Darstellungsparameter: Aktuell verwendete Einstellungen:
Skalierung der Graphiken ... ?
xyx+y,   Skalierungsfaktor:      Skalierung: Modus: x, Faktor: 1
Darstellungszeitraum ... ?
Vom - - bis: - -   Zeitraum: 18.03.2020 - 15.04.2020
Min/Max/Avg-Anzeige ... ?
Zeige MMA aktuell
Zeige MMA Monat
Zeige MMA alles
Zeige --A aktuell
Zeige --A Monat
Zeige --A alles
Keine MMA-Anzeige
MMA:
Average (ber die Originaldaten)
MMA-Basis: 18.03.2020 - 15.04.2020
Quicknavigation für Darstellung... ?
Tage:      1T, 2T, 3T, 5T -1T -2T -3T -5T +1T +2T +3T +5T
Wochen: 1W, 2W, 3W -1W -2W -3W +1W +2W +3W
Monate: 1M, 3M, 6M -1M -3M -6M +1M +3M +6M
Jahre:    1J, 3J, 5J, 10J -1J -3J -5J -10J +1J +3J +5J +10J
Nutze für die Darstellung ... ?
Originaldaten oder Mittelwerte auf ...
Stundenbasis Tagesbasis Wochenbasis
Monatsbasis Jahresbasis      Datenbasis: Original-Daten
Darstellen als:
Statistik (Auto) Statistik J:M      Darstellung:
Zur Graphik,    zurück zur Übersicht aller Sensoren.
 
Tabellarische Datenbersicht: ?
 
Sensor: Nr:Datum:Temp:Feuchte:
Aussen-T/F 1 18-03-2020 00:09:17 5.9 C 43 %
2 18-03-2020 00:19:17 5.8 C 44 %
3 18-03-2020 00:29:17 5.9 C 44 %
4 18-03-2020 00:39:17 5.8 C 44 %
5 18-03-2020 00:49:17 6 C 44 %
6 18-03-2020 00:59:17 6 C 43 %
7 18-03-2020 01:09:17 5.7 C 44 %
8 18-03-2020 01:19:17 5.6 C 44 %
9 18-03-2020 01:29:17 5.3 C 44 %
10 18-03-2020 01:39:17 5.6 C 45 %
11 18-03-2020 01:49:17 5.3 C 45 %
12 18-03-2020 01:59:17 5.6 C 46 %
13 18-03-2020 02:09:17 5.1 C 44 %
14 18-03-2020 02:19:17 4.8 C 45 %
15 18-03-2020 02:29:17 4.8 C 45 %
16 18-03-2020 02:39:17 4.6 C 46 %
17 18-03-2020 02:49:18 4.3 C 46 %
18 18-03-2020 02:59:18 4.3 C 46 %
19 18-03-2020 03:09:18 4.2 C 46 %
20 18-03-2020 03:19:17 4.2 C 46 %
21 18-03-2020 03:29:17 4.1 C 46 %
22 18-03-2020 03:39:17 4 C 46 %
23 18-03-2020 03:49:17 3.8 C 47 %
24 18-03-2020 03:59:17 3.8 C 47 %
25 18-03-2020 04:09:17 3.8 C 47 %
Sensor: Nr:Datum:Temp:Feuchte:
Aussen-T/F 26 18-03-2020 04:19:18 3.8 C 47 %
27 18-03-2020 04:29:18 3.7 C 47 %
28 18-03-2020 04:39:18 3.7 C 47 %
29 18-03-2020 04:49:18 3.6 C 47 %
30 18-03-2020 04:59:18 3.6 C 47 %
31 18-03-2020 05:09:18 3.7 C 48 %
32 18-03-2020 05:19:18 3.8 C 48 %
33 18-03-2020 05:29:18 3.3 C 47 %
34 18-03-2020 05:39:18 3.2 C 47 %
35 18-03-2020 05:49:18 3.3 C 47 %
36 18-03-2020 05:59:18 3.1 C 47 %
37 18-03-2020 06:09:18 2.9 C 48 %
38 18-03-2020 06:19:17 3.3 C 47 %
39 18-03-2020 06:29:18 3.1 C 47 %
40 18-03-2020 06:39:18 3.1 C 47 %
41 18-03-2020 06:49:17 3.1 C 47 %
42 18-03-2020 06:59:18 3.6 C 47 %
43 18-03-2020 07:09:18 3.5 C 47 %
44 18-03-2020 07:19:17 3.4 C 47 %
45 18-03-2020 07:29:17 3.7 C 47 %
46 18-03-2020 07:39:17 3.9 C 47 %
47 18-03-2020 07:49:18 4 C 46 %
48 18-03-2020 07:59:18 4.9 C 46 %
49 18-03-2020 08:09:18 4.6 C 46 %
50 18-03-2020 08:19:18 4.5 C 46 %
Sensor: Nr:Datum:Temp:Feuchte:
Aussen-T/F 51 18-03-2020 08:29:18 4.7 C 46 %
52 18-03-2020 08:39:17 5 C 45 %
53 18-03-2020 08:49:18 5.3 C 46 %
54 18-03-2020 08:59:18 5.6 C 46 %
55 18-03-2020 09:09:17 6.7 C 45 %
56 18-03-2020 09:19:17 7.1 C 45 %
57 18-03-2020 09:29:17 8.5 C 45 %
58 18-03-2020 09:39:17 9.7 C 41 %
59 18-03-2020 09:49:18 10.5 C 40 %
60 18-03-2020 09:59:18 11 C 38 %
61 18-03-2020 10:09:18 11.1 C 38 %
62 18-03-2020 10:19:18 11.6 C 38 %
63 18-03-2020 10:29:18 11.6 C 37 %
64 18-03-2020 10:39:18 11.7 C 38 %
65 18-03-2020 10:49:18 12 C 36 %
66 18-03-2020 10:59:18 12.2 C 35 %
67 18-03-2020 11:09:18 12.7 C 35 %
68 18-03-2020 11:19:18 12.8 C 34 %
69 18-03-2020 11:29:18 13.3 C 34 %
70 18-03-2020 11:39:18 13.9 C 33 %
71 18-03-2020 11:49:17 14.7 C 32 %
72 18-03-2020 11:59:17 15.3 C 30 %
73 18-03-2020 12:09:18 15.8 C 30 %
74 18-03-2020 12:19:17 16.6 C 29 %
75 18-03-2020 12:29:18 17 C 27 %
Sensor: Nr:Datum:Temp:Feuchte:
Aussen-T/F 76 18-03-2020 12:39:18 17.8 C 26 %
77 18-03-2020 12:49:17 19.1 C 25 %
78 18-03-2020 12:59:17 19.8 C 20 %
79 18-03-2020 13:09:17 21 C 20 %
80 18-03-2020 13:19:17 21.2 C 20 %
81 18-03-2020 13:29:17 19.5 C 20 %
82 18-03-2020 13:39:18 17.7 C 20 %
83 18-03-2020 13:49:17 16.6 C 22 %
84 18-03-2020 13:59:17 16 C 22 %
85 18-03-2020 14:09:17 17.6 C 21 %
86 18-03-2020 14:19:17 16.7 C 20 %
87 18-03-2020 14:29:17 17.9 C 20 %
88 18-03-2020 14:39:18 18.5 C 20 %
89 18-03-2020 14:49:17 17.4 C 20 %
90 18-03-2020 14:59:17 17.4 C 20 %
91 18-03-2020 15:09:17 20.6 C 20 %
92 18-03-2020 15:19:18 17.9 C 20 %
93 18-03-2020 15:29:18 18.2 C 20 %
94 18-03-2020 15:39:18 17.7 C 20 %
95 18-03-2020 15:49:17 16.9 C 20 %
96 18-03-2020 15:59:17 16.7 C 21 %
97 18-03-2020 16:09:17 16.4 C 21 %
98 18-03-2020 16:19:17 16.4 C 22 %
99 18-03-2020 16:29:17 16.4 C 20 %
100 18-03-2020 16:39:17 16.5 C 20 %
Sensor: Nr:Datum:Temp:Feuchte:
Aussen-T/F 101 18-03-2020 16:49:18 16.2 C 21 %
102 18-03-2020 16:59:18 16.1 C 21 %
103 18-03-2020 17:09:17 16 C 21 %
104 18-03-2020 17:19:17 16 C 21 %
105 18-03-2020 17:29:17 15.7 C 22 %
106 18-03-2020 17:39:18 16 C 20 %
107 18-03-2020 17:49:17 16.3 C 20 %
108 18-03-2020 17:59:17 15.8 C 22 %
109 18-03-2020 18:09:17 15.4 C 22 %
110 18-03-2020 18:19:17 14.7 C 26 %
111 18-03-2020 18:29:17 13.7 C 26 %
112 18-03-2020 18:39:17 13.3 C 28 %
113 18-03-2020 18:49:17 12.7 C 30 %
114 18-03-2020 18:59:17 12 C 31 %
115 18-03-2020 19:09:17 11.7 C 32 %
116 18-03-2020 19:19:18 11.5 C 32 %
117 18-03-2020 19:29:18 10.5 C 34 %
118 18-03-2020 19:39:18 10.9 C 34 %
119 18-03-2020 19:49:18 11.1 C 34 %
120 18-03-2020 19:59:18 10.9 C 35 %
121 18-03-2020 20:09:18 10.6 C 35 %
122 18-03-2020 20:19:17 10.4 C 35 %
123 18-03-2020 20:29:17 10.4 C 35 %
124 18-03-2020 20:39:18 10 C 36 %
125 18-03-2020 20:49:17 9.7 C 37 %
Sensor: Nr:Datum:Temp:Feuchte:
Aussen-T/F 126 18-03-2020 20:59:17 9.7 C 37 %
127 18-03-2020 21:09:18 9.7 C 37 %
128 18-03-2020 21:19:17 9.6 C 37 %
129 18-03-2020 21:29:17 9.4 C 37 %
130 18-03-2020 21:39:17 9 C 37 %
131 18-03-2020 21:49:17 8.7 C 38 %
132 18-03-2020 21:59:17 8.4 C 39 %
133 18-03-2020 22:09:17 8.2 C 39 %
134 18-03-2020 22:19:17 8.1 C 40 %
135 18-03-2020 22:29:17 8 C 40 %
136 18-03-2020 22:39:17 8 C 40 %
137 18-03-2020 22:49:17 8.1 C 40 %
138 18-03-2020 22:59:17 8.2 C 40 %
139 18-03-2020 23:09:18 8.3 C 40 %
140 18-03-2020 23:19:17 8.1 C 40 %
141 18-03-2020 23:29:17 8 C 40 %
142 18-03-2020 23:39:18 8 C 40 %
143 18-03-2020 23:49:18 8.4 C 40 %
144 18-03-2020 23:59:18 8.9 C 40 %
145 19-03-2020 00:09:17 8.9 C 39 %
146 19-03-2020 00:19:18 8.9 C 38 %
147 19-03-2020 00:29:18 9 C 38 %
148 19-03-2020 00:39:18 9 C 38 %
149 19-03-2020 00:49:17 9.1 C 38 %
150 19-03-2020 00:59:17 9.1 C 38 %
Sensor: Nr:Datum:Temp:Feuchte:
Aussen-T/F 151 19-03-2020 01:09:18 9 C 38 %
152 19-03-2020 01:19:17 9.1 C 38 %
153 19-03-2020 01:29:17 9 C 38 %
154 19-03-2020 01:39:17 9 C 38 %
155 19-03-2020 01:49:17 8.9 C 38 %
156 19-03-2020 01:59:17 8.8 C 39 %
157 19-03-2020 02:09:18 8.7 C 39 %
158 19-03-2020 02:19:17 8.7 C 39 %
159 19-03-2020 02:29:17 8.6 C 39 %
160 19-03-2020 02:39:17 8.5 C 39 %
161 19-03-2020 02:49:18 8.5 C 39 %
162 19-03-2020 02:59:18 8.5 C 39 %
163 19-03-2020 03:09:18 8.5 C 39 %
164 19-03-2020 03:19:18 8.6 C 39 %
165 19-03-2020 03:29:18 8.5 C 39 %
166 19-03-2020 03:39:17 8.5 C 39 %
167 19-03-2020 03:49:18 8.4 C 39 %
168 19-03-2020 03:59:18 8.4 C 40 %
169 19-03-2020 04:09:18 8.4 C 40 %
170 19-03-2020 04:19:17 8.5 C 40 %
171 19-03-2020 04:29:17 8.5 C 39 %
172 19-03-2020 04:39:17 8.5 C 39 %
173 19-03-2020 04:49:18 8.5 C 39 %
174 19-03-2020 04:59:18 8.5 C 39 %
175 19-03-2020 05:09:18 8.6 C 39 %
Sensor: Nr:Datum:Temp:Feuchte:
Aussen-T/F 176 19-03-2020 05:19:18 8.9 C 38 %
177 19-03-2020 05:29:18 8.7 C 39 %
178 19-03-2020 05:39:18 8.6 C 39 %
179 19-03-2020 05:49:17 8.5 C 39 %
180 19-03-2020 05:59:18 8.4 C 39 %
181 19-03-2020 06:09:18 8.4 C 39 %
182 19-03-2020 06:19:17 8.3 C 40 %
183 19-03-2020 06:29:17 8.2 C 39 %
184 19-03-2020 06:39:17 8.1 C 40 %
185 19-03-2020 06:49:17 8.1 C 40 %
186 19-03-2020 06:59:17 8.2 C 40 %
187 19-03-2020 07:09:17 8.2 C 40 %
188 19-03-2020 07:19:17 8.5 C 40 %
189 19-03-2020 07:29:17 8.7 C 39 %
190 19-03-2020 07:39:18 8.9 C 39 %
191 19-03-2020 07:49:18 9.1 C 38 %
192 19-03-2020 07:59:18 9.4 C 38 %
193 19-03-2020 08:09:18 9.7 C 38 %
194 19-03-2020 08:19:17 9.9 C 37 %
195 19-03-2020 08:29:17 9.9 C 37 %
196 19-03-2020 08:39:17 10.5 C 36 %
197 19-03-2020 08:49:18 10.4 C 36 %
198 19-03-2020 08:59:18 10.2 C 36 %
199 19-03-2020 09:09:17 11.2 C 35 %
200 19-03-2020 09:19:17 11.7 C 35 %
Sensor: Nr:Datum:Temp:Feuchte:
Aussen-T/F 201 19-03-2020 09:29:17 11.5 C 35 %
202 19-03-2020 09:39:18 11.8 C 35 %
203 19-03-2020 09:49:17 11.6 C 35 %
204 19-03-2020 09:59:17 12.4 C 33 %
205 19-03-2020 10:09:18 12.3 C 32 %
206 19-03-2020 10:19:18 13.1 C 31 %
207 19-03-2020 10:29:18 13.5 C 30 %
208 19-03-2020 10:39:17 13.9 C 31 %
209 19-03-2020 10:49:17 14.2 C 30 %
210 19-03-2020 10:59:17 15.4 C 29 %
211 19-03-2020 11:09:17 15.5 C 29 %
212 19-03-2020 11:19:17 16.4 C 26 %
213 19-03-2020 11:29:17 17.7 C 26 %
214 19-03-2020 11:39:17 18.5 C 24 %
215 19-03-2020 11:49:17 15.8 C 26 %
216 19-03-2020 11:59:17 15 C 28 %
217 19-03-2020 12:09:17 15.2 C 28 %
218 19-03-2020 12:19:17 15.5 C 28 %
219 19-03-2020 12:29:17 16.8 C 26 %
220 19-03-2020 12:39:18 18.1 C 22 %
221 19-03-2020 12:49:17 18.6 C 20 %
222 19-03-2020 12:59:17 17.9 C 20 %
223 19-03-2020 13:09:18 20.4 C 20 %
224 19-03-2020 13:19:18 25.8 C 20 %
225 19-03-2020 13:29:18 25.6 C 20 %
Sensor: Nr:Datum:Temp:Feuchte:
Aussen-T/F 226 19-03-2020 13:39:18 19.7 C 20 %
227 19-03-2020 13:49:17 18.8 C 20 %
228 19-03-2020 13:59:17 18.2 C 20 %
229 19-03-2020 14:09:17 18.7 C 20 %
230 19-03-2020 14:19:17 18.9 C 20 %
231 19-03-2020 14:29:17 18.8 C 20 %
232 19-03-2020 14:39:17 18.9 C 20 %
233 19-03-2020 14:49:17 19.3 C 20 %
234 19-03-2020 14:59:17 19.1 C 20 %
235 19-03-2020 15:09:18 18.5 C 20 %
236 19-03-2020 15:19:18 19.1 C 20 %
237 19-03-2020 15:29:18 19.3 C 20 %
238 19-03-2020 15:39:18 19.8 C 20 %
239 19-03-2020 15:49:17 21.8 C 20 %
240 19-03-2020 15:59:18 19.5 C 20 %
241 19-03-2020 16:09:18 19.1 C 20 %
242 19-03-2020 16:20:17 19.1 C 20 %
243 19-03-2020 16:29:17 19.1 C 20 %
244 19-03-2020 16:39:17 19.1 C 20 %
245 19-03-2020 16:49:17 19.1 C 20 %
246 19-03-2020 16:59:17 18.4 C 20 %
247 19-03-2020 17:09:18 17.6 C 20 %
248 19-03-2020 17:19:18 17.3 C 20 %
249 19-03-2020 17:29:18 17 C 20 %
250 19-03-2020 17:39:18 16.8 C 20 %
Sensor: Nr:Datum:Temp:Feuchte:
Aussen-T/F 251 19-03-2020 17:49:18 16.9 C 20 %
252 19-03-2020 17:59:18 16.7 C 20 %
253 19-03-2020 18:09:18 16.3 C 20 %
254 19-03-2020 18:20:17 15.7 C 23 %
255 19-03-2020 18:30:17 13.9 C 29 %
256 19-03-2020 18:40:17 13.5 C 30 %
257 19-03-2020 18:50:17 12.8 C 31 %
258 19-03-2020 18:59:18 12.7 C 31 %
259 19-03-2020 19:09:18 12.3 C 31 %
260 19-03-2020 19:20:17 12.2 C 31 %
261 19-03-2020 19:30:17 11.9 C 32 %
262 19-03-2020 19:40:17 11.7 C 32 %
263 19-03-2020 19:50:17 11.7 C 33 %
264 19-03-2020 19:59:17 11.7 C 33 %
265 19-03-2020 20:09:17 11.7 C 33 %
266 19-03-2020 20:29:17 11.5 C 34 %
267 19-03-2020 20:29:17 11.6 C 34 %
268 19-03-2020 20:39:17 12 C 33 %
269 19-03-2020 20:49:17 11.8 C 34 %
270 19-03-2020 20:59:17 11.5 C 35 %
271 19-03-2020 21:09:18 12 C 33 %
272 19-03-2020 21:20:17 11.4 C 35 %
273 19-03-2020 21:30:17 11.3 C 35 %
274 19-03-2020 21:40:17 10.3 C 36 %
275 19-03-2020 21:50:17 10.7 C 36 %
Sensor: Nr:Datum:Temp:Feuchte:
Aussen-T/F 276 19-03-2020 21:59:18 10.6 C 36 %
277 19-03-2020 22:09:18 10.1 C 37 %
278 19-03-2020 22:19:18 9.7 C 38 %
279 19-03-2020 22:29:18 9.8 C 38 %
280 19-03-2020 22:39:18 9.5 C 39 %
281 19-03-2020 22:49:18 9.4 C 39 %
282 19-03-2020 22:59:18 9.5 C 38 %
283 19-03-2020 23:09:18 9.5 C 38 %
284 19-03-2020 23:20:17 9.4 C 39 %
285 19-03-2020 23:30:17 9.2 C 39 %
286 19-03-2020 23:40:17 9.6 C 38 %
287 19-03-2020 23:50:17 9.1 C 39 %
288 19-03-2020 23:59:18 8.7 C 40 %
289 20-03-2020 00:09:18 8.6 C 40 %
290 20-03-2020 00:19:18 9.3 C 39 %
291 20-03-2020 00:29:18 9.1 C 39 %
292 20-03-2020 00:39:18 9 C 39 %
293 20-03-2020 00:59:17 8.8 C 40 %
294 20-03-2020 01:00:18 8.8 C 40 %
295 20-03-2020 01:10:18 8.7 C 40 %
296 20-03-2020 01:20:17 8.7 C 40 %
297 20-03-2020 01:30:18 8.6 C 40 %
298 20-03-2020 01:40:18 8.4 C 40 %
299 20-03-2020 01:50:17 8.5 C 40 %
300 20-03-2020 02:00:18 8.3 C 40 %
Sensor: Nr:Datum:Temp:Feuchte:
Aussen-T/F 301 20-03-2020 02:10:18 7.9 C 40 %
302 20-03-2020 02:20:17 7.6 C 41 %
303 20-03-2020 02:30:17 7.4 C 41 %
304 20-03-2020 02:40:17 7.4 C 41 %
305 20-03-2020 02:50:17 7.1 C 41 %
306 20-03-2020 03:00:17 7.1 C 42 %
307 20-03-2020 03:10:17 7.1 C 42 %
308 20-03-2020 03:20:17 7.1 C 42 %
309 20-03-2020 03:30:18 7.2 C 42 %
310 20-03-2020 03:40:18 7.3 C 42 %
311 20-03-2020 03:50:17 7.5 C 42 %
312 20-03-2020 04:00:18 7.5 C 42 %
313 20-03-2020 04:10:18 7.7 C 42 %
314 20-03-2020 04:20:18 7.6 C 41 %
315 20-03-2020 04:30:18 7.4 C 42 %
316 20-03-2020 04:40:18 7.2 C 42 %
317 20-03-2020 04:50:17 7 C 42 %
318 20-03-2020 05:00:18 6.9 C 43 %
319 20-03-2020 05:10:18 6.8 C 43 %
320 20-03-2020 05:20:17 6.5 C 43 %
321 20-03-2020 05:30:17 6.2 C 43 %
322 20-03-2020 05:40:17 5.9 C 44 %
323 20-03-2020 05:50:17 5.6 C 44 %
324 20-03-2020 06:00:17 5.4 C 45 %
325 20-03-2020 06:10:17 5.2 C 45 %
Sensor: Nr:Datum:Temp:Feuchte:
Aussen-T/F 326 20-03-2020 06:20:17 5 C 45 %
327 20-03-2020 06:30:17 5.1 C 46 %
328 20-03-2020 06:40:17 5 C 46 %
329 20-03-2020 06:50:17 5 C 46 %
330 20-03-2020 07:00:17 5.1 C 46 %
331 20-03-2020 07:10:17 5.3 C 46 %
332 20-03-2020 07:20:17 5.5 C 46 %
333 20-03-2020 07:30:17 5.6 C 46 %
334 20-03-2020 07:40:17 5.7 C 46 %
335 20-03-2020 07:50:18 5.8 C 46 %
336 20-03-2020 08:00:17 6.3 C 46 %
337 20-03-2020 08:10:17 6.9 C 45 %
338 20-03-2020 08:20:17 7.2 C 43 %
339 20-03-2020 08:30:17 7.1 C 43 %
340 20-03-2020 08:40:17 7.1 C 43 %
341 20-03-2020 08:50:17 7.3 C 43 %
342 20-03-2020 09:00:17 8 C 43 %
343 20-03-2020 09:10:17 8.2 C 42 %
344 20-03-2020 09:20:17 9.6 C 42 %
345 20-03-2020 09:30:17 10 C 40 %
346 20-03-2020 09:40:17 10.2 C 40 %
347 20-03-2020 09:50:17 10.5 C 39 %
348 20-03-2020 10:00:18 10.8 C 39 %
349 20-03-2020 10:10:18 11.2 C 38 %
350 20-03-2020 10:20:18 11.1 C 37 %
Sensor: Nr:Datum:Temp:Feuchte:
Aussen-T/F 351 20-03-2020 10:30:18 11 C 37 %
352 20-03-2020 10:40:18 11.5 C 37 %
353 20-03-2020 10:50:18 12.6 C 36 %
354 20-03-2020 11:00:17 13.1 C 35 %
355 20-03-2020 11:10:18 13.1 C 35 %
356 20-03-2020 11:20:18 14.2 C 33 %
357 20-03-2020 11:30:18 14.5 C 32 %
358 20-03-2020 11:40:18 15.3 C 31 %
359 20-03-2020 11:50:18 14.6 C 32 %
360 20-03-2020 12:00:17 15.6 C 31 %
361 20-03-2020 12:10:17 15.4 C 30 %
362 20-03-2020 12:20:17 15.6 C 30 %
363 20-03-2020 12:30:18 14.4 C 31 %
364 20-03-2020 12:40:18 14.9 C 31 %
365 20-03-2020 12:50:18 14.9 C 31 %
366 20-03-2020 13:00:18 14.9 C 31 %
367 20-03-2020 13:10:18 14.9 C 31 %
368 20-03-2020 13:20:18 14.9 C 31 %
369 20-03-2020 13:30:18 14.9 C 31 %
370 20-03-2020 13:40:18 14.9 C 31 %
371 20-03-2020 13:50:17 16.4 C 26 %
372 20-03-2020 14:00:17 16.2 C 27 %
373 20-03-2020 14:10:17 16.6 C 26 %
374 20-03-2020 14:20:17 16.2 C 27 %
375 20-03-2020 14:30:18 17.4 C 26 %
Sensor: Nr:Datum:Temp:Feuchte:
Aussen-T/F 376 20-03-2020 14:40:18 17.3 C 26 %
377 20-03-2020 14:50:18 17.9 C 25 %
378 20-03-2020 15:00:17 17.9 C 25 %
379 20-03-2020 15:10:17 18.1 C 25 %
380 20-03-2020 15:20:17 17 C 25 %
381 20-03-2020 15:30:18 17.9 C 25 %
382 20-03-2020 15:40:18 18.5 C 25 %
383 20-03-2020 15:50:18 17 C 25 %
384 20-03-2020 16:00:17 16.2 C 26 %
385 20-03-2020 16:10:17 16.1 C 26 %
386 20-03-2020 16:20:17 15.5 C 26 %
387 20-03-2020 16:30:18 15.8 C 26 %
388 20-03-2020 16:40:18 15.3 C 26 %
389 20-03-2020 16:50:18 17 C 25 %
390 20-03-2020 17:00:18 16.1 C 26 %
391 20-03-2020 17:10:18 15.2 C 27 %
392 20-03-2020 17:20:18 14.3 C 28 %
393 20-03-2020 17:30:18 13.9 C 30 %
394 20-03-2020 17:40:18 12.8 C 31 %
395 20-03-2020 17:50:17 12.5 C 31 %
396 20-03-2020 18:00:17 12.4 C 32 %
397 20-03-2020 18:10:17 11.9 C 33 %
398 20-03-2020 18:20:17 11.8 C 34 %
399 20-03-2020 18:30:17 11.6 C 34 %
400 20-03-2020 18:40:17 11.6 C 34 %
Sensor: Nr:Datum:Temp:Feuchte:
Aussen-T/F 401 20-03-2020 18:50:18 11.5 C 34 %
402 20-03-2020 19:00:17 11.5 C 34 %
403 20-03-2020 19:10:17 11.3 C 34 %
404 20-03-2020 19:20:17 11.1 C 34 %
405 20-03-2020 19:30:17 11 C 35 %
406 20-03-2020 19:40:17 10.7 C 35 %
407 20-03-2020 19:50:17 10.6 C 35 %
408 20-03-2020 20:00:17 10.4 C 35 %
409 20-03-2020 20:10:17 10.2 C 35 %
410 20-03-2020 20:20:17 10.3 C 35 %
411 20-03-2020 20:30:17 10.3 C 35 %
412 20-03-2020 20:40:17 10.2 C 35 %
413 20-03-2020 20:50:18 10.3 C 35 %
414 20-03-2020 21:00:18 10.1 C 35 %
415 20-03-2020 21:10:18 9.9 C 35 %
416 20-03-2020 21:20:17 9.5 C 35 %
417 20-03-2020 21:30:17 9.2 C 35 %
418 20-03-2020 21:40:17 9.1 C 35 %
419 20-03-2020 21:50:17 8.7 C 36 %
420 20-03-2020 22:00:17 8.5 C 36 %
421 20-03-2020 22:10:17 8.4 C 36 %
422 20-03-2020 22:20:18 8.3 C 36 %
423 20-03-2020 22:30:17 8.2 C 36 %
424 20-03-2020 22:40:18 8.1 C 36 %
425 20-03-2020 22:50:17 8.1 C 36 %
Sensor: Nr:Datum:Temp:Feuchte:
Aussen-T/F 426 20-03-2020 23:00:18 8 C 35 %
427 20-03-2020 23:10:18 7.9 C 36 %
428 20-03-2020 23:20:17 7.9 C 36 %
429 20-03-2020 23:30:18 7.9 C 35 %
430 20-03-2020 23:40:18 7.8 C 35 %
431 20-03-2020 23:50:18 7.7 C 35 %
432 21-03-2020 00:00:17 7.6 C 34 %
433 21-03-2020 00:10:17 7.6 C 34 %
434 21-03-2020 00:20:17 7.4 C 34 %
435 21-03-2020 00:30:17 7.3 C 34 %
436 21-03-2020 00:40:17 7.3 C 34 %
437 21-03-2020 00:50:17 7.3 C 34 %
438 21-03-2020 01:00:17 7.2 C 33 %
439 21-03-2020 01:10:17 7.1 C 33 %
440 21-03-2020 01:20:17 6.8 C 35 %
441 21-03-2020 01:30:18 6.5 C 35 %
442 21-03-2020 01:40:18 6.2 C 36 %
443 21-03-2020 01:50:17 5.9 C 38 %
444 21-03-2020 02:00:18 5.6 C 39 %
445 21-03-2020 02:10:18 5.3 C 40 %
446 21-03-2020 02:20:17 5.1 C 41 %
447 21-03-2020 02:30:18 4.9 C 43 %
448 21-03-2020 02:40:18 4.9 C 43 %
449 21-03-2020 02:50:18 4.6 C 43 %
450 21-03-2020 03:00:17 4.5 C 43 %
Sensor: Nr:Datum:Temp:Feuchte:
Aussen-T/F 451 21-03-2020 03:10:17 4.4 C 44 %
452 21-03-2020 03:20:17 4.5 C 45 %
453 21-03-2020 03:30:18 4.5 C 45 %
454 21-03-2020 03:40:18 4.4 C 45 %
455 21-03-2020 03:50:17 4.4 C 45 %
456 21-03-2020 04:00:18 4.3 C 45 %
457 21-03-2020 04:10:18 4.2 C 45 %
458 21-03-2020 04:20:17 4.1 C 45 %
459 21-03-2020 04:30:18 4.1 C 45 %
460 21-03-2020 04:40:18 4 C 45 %
461 21-03-2020 04:50:18 3.9 C 46 %
462 21-03-2020 05:00:18 3.9 C 46 %
463 21-03-2020 05:10:18 4 C 46 %
464 21-03-2020 05:20:18 3.9 C 47 %
465 21-03-2020 05:30:18 3.9 C 47 %
466 21-03-2020 05:40:18 3.9 C 47 %
467 21-03-2020 05:50:17 4 C 46 %
468 21-03-2020 06:00:18 4 C 47 %
469 21-03-2020 06:10:18 3.9 C 47 %
470 21-03-2020 06:20:17 4 C 47 %
471 21-03-2020 06:30:18 4 C 47 %
472 21-03-2020 06:40:18 4 C 47 %
473 21-03-2020 06:50:17 4 C 47 %
474 21-03-2020 07:00:17 4.1 C 47 %
475 21-03-2020 07:10:18 4.1 C 47 %
Sensor: Nr:Datum:Temp:Feuchte:
Aussen-T/F 476 21-03-2020 07:20:18 4.1 C 47 %
477 21-03-2020 07:30:18 4.2 C 47 %
478 21-03-2020 07:40:18 4.3 C 47 %
479 21-03-2020 07:50:17 4.3 C 47 %
480 21-03-2020 08:00:18 4.4 C 47 %
481 21-03-2020 08:10:18 4.5 C 47 %
482 21-03-2020 08:20:17 4.5 C 46 %
483 21-03-2020 08:30:17 4.6 C 46 %
484 21-03-2020 08:40:17 4.7 C 46 %
485 21-03-2020 08:50:18 4.8 C 46 %
486 21-03-2020 09:00:18 4.7 C 46 %
487 21-03-2020 09:10:18 4.6 C 45 %
488 21-03-2020 09:20:18 5.2 C 43 %
489 21-03-2020 09:30:18 5.6 C 42 %
490 21-03-2020 09:40:18 5.8 C 41 %
491 21-03-2020 09:50:17 6 C 41 %
492 21-03-2020 10:00:17 6.2 C 41 %
493 21-03-2020 10:10:18 6.4 C 39 %
494 21-03-2020 10:20:18 6.5 C 40 %
495 21-03-2020 10:30:18 6.7 C 39 %
496 21-03-2020 10:40:18 6.7 C 38 %
497 21-03-2020 10:50:17 6.4 C 39 %
498 21-03-2020 11:00:17 6.5 C 37 %
499 21-03-2020 11:10:18 7.1 C 36 %
500 21-03-2020 11:20:18 7.3 C 36 %
Sensor: Nr:Datum:Temp:Feuchte:
Aussen-T/F 501 21-03-2020 11:30:18 8.1 C 34 %
502 21-03-2020 11:40:18 8 C 34 %
503 21-03-2020 11:50:18 8.3 C 32 %
504 21-03-2020 12:00:18 7.8 C 32 %
505 21-03-2020 12:10:18 7.6 C 33 %
506 21-03-2020 12:20:17 7.9 C 31 %
507 21-03-2020 12:30:17 8.7 C 32 %
508 21-03-2020 12:40:17 8.2 C 30 %
509 21-03-2020 12:50:17 7.8 C 31 %
510 21-03-2020 13:00:17 7.9 C 30 %
511 21-03-2020 13:10:17 8.7 C 30 %
512 21-03-2020 13:20:18 8.9 C 28 %
513 21-03-2020 13:30:18 8.5 C 28 %
514 21-03-2020 13:40:18 8.2 C 27 %
515 21-03-2020 13:50:17 8.4 C 27 %
516 21-03-2020 14:00:18 8.6 C 27 %
517 21-03-2020 14:10:18 9.1 C 26 %
518 21-03-2020 14:20:18 8.7 C 27 %
519 21-03-2020 14:30:18 9.1 C 25 %
520 21-03-2020 14:40:18 11.1 C 24 %
521 21-03-2020 14:50:17 9.8 C 23 %
522 21-03-2020 15:00:18 11 C 20 %
523 21-03-2020 15:10:18 10.1 C 20 %
524 21-03-2020 15:20:17 11.2 C 20 %
525 21-03-2020 15:30:17 11.7 C 20 %
Sensor: Nr:Datum:Temp:Feuchte:
Aussen-T/F 526 21-03-2020 15:40:17 9.4 C 20 %
527 21-03-2020 15:50:17 8.6 C 20 %
528 21-03-2020 16:00:18 9.4 C 20 %
529 21-03-2020 16:10:18 9.5 C 20 %
530 21-03-2020 16:20:17 12.1 C 20 %
531 21-03-2020 16:30:17 12 C 20 %
532 21-03-2020 16:40:17 13.3 C 20 %
533 21-03-2020 16:50:17 10.9 C 20 %
534 21-03-2020 17:00:17 9.2 C 20 %
535 21-03-2020 17:10:17 8.9 C 20 %
536 21-03-2020 17:20:17 8.3 C 20 %
537 21-03-2020 17:30:18 7.8 C 20 %
538 21-03-2020 17:40:18 7.8 C 20 %
539 21-03-2020 17:50:17 7.5 C 20 %
540 21-03-2020 18:00:17 7 C 20 %
541 21-03-2020 18:10:17 6.9 C 20 %
542 21-03-2020 18:20:17 6.6 C 21 %
543 21-03-2020 18:30:17 6.4 C 23 %
544 21-03-2020 18:40:17 5.9 C 25 %
545 21-03-2020 18:50:17 5.5 C 27 %
546 21-03-2020 19:00:17 5.5 C 26 %
547 21-03-2020 19:10:17 5.1 C 28 %
548 21-03-2020 19:20:17 4.7 C 30 %
549 21-03-2020 19:30:18 4.4 C 31 %
550 21-03-2020 19:40:18 4.5 C 30 %
Sensor: Nr:Datum:Temp:Feuchte:
Aussen-T/F 551 21-03-2020 19:50:17 4.4 C 29 %
552 21-03-2020 20:00:18 4.1 C 30 %
553 21-03-2020 20:10:18 3.7 C 31 %
554 21-03-2020 20:20:18 3.2 C 33 %
555 21-03-2020 20:30:18 3.7 C 32 %
556 21-03-2020 20:40:18 3.9 C 30 %
557 21-03-2020 20:50:17 3.6 C 31 %
558 21-03-2020 21:00:18 3.3 C 32 %
559 21-03-2020 21:10:18 3 C 32 %
560 21-03-2020 21:20:18 3.4 C 32 %
561 21-03-2020 21:30:18 3.1 C 31 %
562 21-03-2020 21:40:18 2.9 C 32 %
563 21-03-2020 21:50:17 2.6 C 33 %
564 21-03-2020 22:00:17 1.9 C 36 %
565 21-03-2020 22:10:17 2.3 C 34 %
566 21-03-2020 22:20:17 3 C 32 %
567 21-03-2020 22:30:18 2.7 C 32 %
568 21-03-2020 22:40:18 2.3 C 33 %
569 21-03-2020 22:50:18 2.7 C 32 %
570 21-03-2020 23:00:18 2 C 34 %
571 21-03-2020 23:10:18 2.2 C 33 %
572 21-03-2020 23:20:18 1.6 C 35 %
573 21-03-2020 23:30:18 1.7 C 35 %
574 21-03-2020 23:40:18 1.8 C 35 %
575 21-03-2020 23:50:17 1.7 C 35 %
Sensor: Nr:Datum:Temp:Feuchte:
Aussen-T/F 576 22-03-2020 00:00:18 1.4 C 35 %
577 22-03-2020 00:10:18 1.5 C 35 %
578 22-03-2020 00:20:17 0.9 C 37 %
579 22-03-2020 00:30:17 0.7 C 38 %
580 22-03-2020 00:40:17 1.2 C 36 %
581 22-03-2020 00:50:17 0.9 C 37 %
582 22-03-2020 01:00:18 1.5 C 35 %
583 22-03-2020 01:10:18 1.5 C 35 %
584 22-03-2020 01:20:18 1.1 C 35 %
585 22-03-2020 01:30:18 1.1 C 35 %
586 22-03-2020 01:40:18 0.9 C 36 %
587 22-03-2020 01:50:18 1 C 35 %
588 22-03-2020 02:00:18 1 C 35 %
589 22-03-2020 02:10:18 0.1 C 38 %
590 22-03-2020 02:20:17 0.3 C 38 %
591 22-03-2020 02:30:18 0.5 C 37 %
592 22-03-2020 02:40:18 0.5 C 37 %
593 22-03-2020 02:50:18 0.4 C 37 %
594 22-03-2020 03:00:18 0.2 C 37 %
595 22-03-2020 03:10:18 0.7 C 37 %
596 22-03-2020 03:20:18 -0.4 C 38 %
597 22-03-2020 03:30:18 -0.1 C 38 %
598 22-03-2020 03:40:18 -0.4 C 39 %
599 22-03-2020 03:50:17 -0.3 C 39 %
600 22-03-2020 04:00:17 -0.2 C 38 %
Sensor: Nr:Datum:Temp:Feuchte:
Aussen-T/F 601 22-03-2020 04:10:17 0 C 37 %
602 22-03-2020 04:20:17 -0.4 C 38 %
603 22-03-2020 04:30:17 0.3 C 37 %
604 22-03-2020 04:40:17 0.1 C 37 %
605 22-03-2020 04:50:17 -0.2 C 38 %
606 22-03-2020 05:00:18 0.1 C 37 %
607 22-03-2020 05:10:18 -0.3 C 37 %
608 22-03-2020 05:20:17 -0.4 C 37 %
609 22-03-2020 05:30:18 -0.5 C 38 %
610 22-03-2020 05:40:18 -0.7 C 38 %
611 22-03-2020 05:50:17 -1 C 39 %
612 22-03-2020 06:00:17 -1.1 C 39 %
613 22-03-2020 06:10:17 -0.8 C 39 %
614 22-03-2020 06:20:17 0.1 C 37 %
615 22-03-2020 06:30:17 -0.3 C 37 %
616 22-03-2020 06:40:17 -0.4 C 37 %
617 22-03-2020 06:50:18 0 C 36 %
618 22-03-2020 07:00:18 -0.3 C 37 %
619 22-03-2020 07:10:18 -0.2 C 37 %
620 22-03-2020 07:20:18 -0.4 C 37 %
621 22-03-2020 07:30:18 -0.1 C 36 %
622 22-03-2020 07:40:18 -0.2 C 37 %
623 22-03-2020 07:50:17 -0.1 C 36 %
624 22-03-2020 08:00:18 -0.1 C 36 %
625 22-03-2020 08:10:18 0.3 C 36 %
Sensor: Nr:Datum:Temp:Feuchte:
Aussen-T/F 626 22-03-2020 08:20:18 0.3 C 35 %
627 22-03-2020 08:30:18 0.5 C 35 %
628 22-03-2020 08:40:18 0.8 C 35 %
629 22-03-2020 08:50:18 0.4 C 35 %
630 22-03-2020 09:00:18 0.8 C 35 %
631 22-03-2020 09:10:18 1.2 C 32 %
632 22-03-2020 09:20:18 1.6 C 32 %
633 22-03-2020 09:30:18 2.2 C 30 %
634 22-03-2020 09:40:18 2.5 C 27 %
635 22-03-2020 09:50:17 2.8 C 26 %
636 22-03-2020 10:00:18 3.3 C 25 %
637 22-03-2020 10:10:18 3.6 C 25 %
638 22-03-2020 10:20:18 3.9 C 20 %
639 22-03-2020 10:30:18 4.4 C 20 %
640 22-03-2020 10:40:18 4.6 C 20 %
641 22-03-2020 10:50:17 5.2 C 20 %
642 22-03-2020 11:00:18 5.5 C 20 %
643 22-03-2020 11:10:18 6.3 C 20 %
644 22-03-2020 11:20:17 6.5 C 20 %
645 22-03-2020 11:30:18 6.7 C 20 %
646 22-03-2020 11:40:18 6.7 C 20 %
647 22-03-2020 11:50:17 6.5 C 20 %
648 22-03-2020 12:00:18 7 C 20 %
649 22-03-2020 12:10:18 7.4 C 20 %
650 22-03-2020 12:20:18 7.3 C 20 %
Sensor: Nr:Datum:Temp:Feuchte:
Aussen-T/F 651 22-03-2020 12:30:17 6.9 C 20 %
652 22-03-2020 12:40:17 8 C 20 %
653 22-03-2020 12:50:18 8.5 C 20 %
654 22-03-2020 13:00:18 10.1 C 20 %
655 22-03-2020 13:10:18 11.1 C 20 %
656 22-03-2020 13:20:17 11.9 C 20 %
657 22-03-2020 13:30:18 11.6 C 20 %
658 22-03-2020 13:40:18 10.9 C 20 %
659 22-03-2020 13:50:18 10.3 C 20 %
660 22-03-2020 14:00:17 9.6 C 20 %
661 22-03-2020 14:10:17 10.2 C 20 %
662 22-03-2020 14:20:17 12.2 C 20 %
663 22-03-2020 14:30:17 12.6 C 20 %
664 22-03-2020 14:40:17 14.4 C 20 %
665 22-03-2020 14:50:17 14.4 C 20 %
666 22-03-2020 15:00:18 15 C 20 %
667 22-03-2020 15:10:18 14.4 C 20 %
668 22-03-2020 15:20:17 14.7 C 20 %
669 22-03-2020 15:30:17 13.6 C 20 %
670 22-03-2020 15:40:17 13.7 C 20 %
671 22-03-2020 15:50:18 15.4 C 20 %
672 22-03-2020 16:00:18 16.2 C 20 %
673 22-03-2020 16:10:18 14.9 C 20 %
674 22-03-2020 16:20:18 14.1 C 20 %
675 22-03-2020 16:30:18 13.3 C 20 %
Sensor: Nr:Datum:Temp:Feuchte:
Aussen-T/F 676 22-03-2020 16:40:18 13.2 C 20 %
677 22-03-2020 16:50:17 11.7 C 20 %
678 22-03-2020 17:00:17 10.7 C 20 %
679 22-03-2020 17:10:17 9.9 C 20 %
680 22-03-2020 17:20:17 9.7 C 20 %
681 22-03-2020 17:30:17 9.8 C 20 %
682 22-03-2020 17:40:17 9.5 C 20 %
683 22-03-2020 17:50:17 8.9 C 20 %
684 22-03-2020 18:00:18 8.6 C 20 %
685 22-03-2020 18:10:18 8.4 C 20 %
686 22-03-2020 18:20:17 7.9 C 20 %
687 22-03-2020 18:30:17 7.5 C 20 %
688 22-03-2020 18:40:17 7 C 20 %
689 22-03-2020 18:50:17 6.5 C 20 %
690 22-03-2020 19:00:17 5.6 C 20 %
691 22-03-2020 19:10:17 4.9 C 21 %
692 22-03-2020 19:20:17 5.2 C 20 %
693 22-03-2020 19:30:17 4.3 C 26 %
694 22-03-2020 19:40:17 3.8 C 27 %
695 22-03-2020 19:50:18 3.7 C 28 %
696 22-03-2020 20:00:18 3.6 C 28 %
697 22-03-2020 20:10:18 3.6 C 27 %
698 22-03-2020 20:20:17 3.6 C 26 %
699 22-03-2020 20:30:17 3.2 C 26 %
700 22-03-2020 20:40:17 3 C 26 %
Sensor: Nr:Datum:Temp:Feuchte:
Aussen-T/F 701 22-03-2020 20:50:17 2.5 C 30 %
702 22-03-2020 21:00:17 2.9 C 26 %
703 22-03-2020 21:10:17 2.7 C 27 %
704 22-03-2020 21:20:17 2.3 C 30 %
705 22-03-2020 21:30:17 2.2 C 29 %
706 22-03-2020 21:40:17 1.8 C 30 %
707 22-03-2020 21:50:18 1.5 C 31 %
708 22-03-2020 22:00:18 2 C 30 %
709 22-03-2020 22:10:18 2.5 C 26 %
710 22-03-2020 22:20:17 1.8 C 30 %
711 22-03-2020 22:30:17 1.5 C 29 %
712 22-03-2020 22:40:17 1.3 C 31 %
713 22-03-2020 22:50:17 1.4 C 30 %
714 22-03-2020 23:00:17 0.7 C 33 %
715 22-03-2020 23:10:17 1.1 C 30 %
716 22-03-2020 23:20:17 0.8 C 32 %
717 22-03-2020 23:30:18 0.3 C 33 %
718 22-03-2020 23:40:18 0.3 C 34 %
719 22-03-2020 23:50:18 0.6 C 33 %
720 23-03-2020 00:00:18 0.4 C 34 %
721 23-03-2020 00:10:18 0 C 33 %
722 23-03-2020 00:20:17 -0.2 C 33 %
723 23-03-2020 00:30:17 -0.5 C 35 %
724 23-03-2020 00:40:17 -0.7 C 36 %
725 23-03-2020 00:50:18 -1.1 C 36 %
Sensor: Nr:Datum:Temp:Feuchte:
Aussen-T/F 726 23-03-2020 01:00:17 -0.6 C 35 %
727 23-03-2020 01:10:17 -0.7 C 36 %
728 23-03-2020 01:20:17 -0.9 C 35 %
729 23-03-2020 01:30:18 -0.8 C 35 %
730 23-03-2020 01:40:18 -1.1 C 35 %
731 23-03-2020 01:50:18 -0.8 C 35 %
732 23-03-2020 02:00:18 -1.1 C 35 %
733 23-03-2020 02:10:18 -1.4 C 35 %
734 23-03-2020 02:20:17 -1.2 C 35 %
735 23-03-2020 02:30:17 -1.2 C 35 %
736 23-03-2020 02:40:17 -1.2 C 35 %
737 23-03-2020 02:50:17 -1.3 C 35 %
738 23-03-2020 03:00:17 -1.6 C 35 %
739 23-03-2020 03:10:18 -1.9 C 35 %
740 23-03-2020 03:20:18 -1.6 C 35 %
741 23-03-2020 03:30:18 -1.7 C 35 %
742 23-03-2020 03:40:18 -1.9 C 35 %
743 23-03-2020 03:50:18 -1.8 C 35 %
744 23-03-2020 04:00:18 -1.8 C 35 %
745 23-03-2020 04:10:18 -2.1 C 35 %
746 23-03-2020 04:20:17 -1.9 C 35 %
747 23-03-2020 04:30:17 -2 C 35 %
748 23-03-2020 04:40:17 -2.1 C 35 %
749 23-03-2020 04:50:17 -2.7 C 36 %
750 23-03-2020 05:00:18 -2.5 C 36 %
Sensor: Nr:Datum:Temp:Feuchte:
Aussen-T/F 751 23-03-2020 05:10:18 -2.4 C 36 %
752 23-03-2020 05:20:17 -2.3 C 36 %
753 23-03-2020 05:30:18 -2.4 C 35 %
754 23-03-2020 05:40:18 -2.7 C 36 %
755 23-03-2020 05:50:17 -2.7 C 36 %
756 23-03-2020 06:00:18 -2.6 C 36 %
757 23-03-2020 06:10:18 -2.9 C 36 %
758 23-03-2020 06:20:17 -2.6 C 36 %
759 23-03-2020 06:30:18 -2.8 C 36 %
760 23-03-2020 06:40:18 -3.2 C 36 %
761 23-03-2020 06:50:18 -3 C 36 %
762 23-03-2020 07:00:18 -3 C 36 %
763 23-03-2020 07:10:18 -3.1 C 36 %
764 23-03-2020 07:20:18 -2.5 C 35 %
765 23-03-2020 07:30:18 -2.7 C 36 %
766 23-03-2020 07:40:18 -2.6 C 36 %
767 23-03-2020 07:50:18 -1.9 C 34 %
768 23-03-2020 08:00:18 -2 C 35 %
769 23-03-2020 08:10:18 -1.4 C 32 %
770 23-03-2020 08:20:17 -1.1 C 31 %
771 23-03-2020 08:30:18 -0.2 C 27 %
772 23-03-2020 08:40:18 -0.2 C 26 %
773 23-03-2020 08:50:18 -0.3 C 25 %
774 23-03-2020 09:00:18 0 C 23 %
775 23-03-2020 09:10:18 0.2 C 23 %
Sensor: Nr:Datum:Temp:Feuchte:
Aussen-T/F 776 23-03-2020 09:20:18 0.5 C 20 %
777 23-03-2020 09:30:17 0.7 C 20 %
778 23-03-2020 09:40:17 1.5 C 20 %
779 23-03-2020 09:50:18 1.8 C 20 %
780 23-03-2020 10:00:18 2.4 C 20 %
781 23-03-2020 10:10:18 2.7 C 20 %
782 23-03-2020 10:20:18 3 C 20 %
783 23-03-2020 10:30:17 3.8 C 20 %
784 23-03-2020 10:40:17 4.1 C 20 %
785 23-03-2020 10:50:17 4.7 C 20 %
786 23-03-2020 11:00:17 5.5 C 20 %
787 23-03-2020 11:10:17 5.5 C 20 %
788 23-03-2020 11:20:17 6 C 20 %
789 23-03-2020 11:30:18 6.7 C 20 %
790 23-03-2020 11:40:18 6.2 C 20 %
791 23-03-2020 11:50:17 6.3 C 20 %
792 23-03-2020 12:00:18 7 C 20 %
793 23-03-2020 12:10:18 7.4 C 20 %
794 23-03-2020 12:20:18 7.8 C 20 %
795 23-03-2020 12:30:18 7.5 C 20 %
796 23-03-2020 12:40:18 8.1 C 20 %
797 23-03-2020 12:50:18 8.7 C 20 %
798 23-03-2020 13:00:17 10.4 C 20 %
799 23-03-2020 13:10:17 10.7 C 20 %
800 23-03-2020 13:20:17 11.9 C 20 %
Sensor: Nr:Datum:Temp:Feuchte:
Aussen-T/F 801 23-03-2020 13:30:17 11.4 C 20 %
802 23-03-2020 13:40:17 10 C 20 %
803 23-03-2020 13:50:17 9.8 C 20 %
804 23-03-2020 14:00:18 9.2 C 20 %
805 23-03-2020 14:10:18 10.5 C 20 %
806 23-03-2020 14:20:18 12.9 C 20 %
807 23-03-2020 14:30:18 13 C 20 %
808 23-03-2020 14:40:18 14.2 C 20 %
809 23-03-2020 14:50:18 14.3 C 20 %
810 23-03-2020 15:00:18 14.3 C 20 %
811 23-03-2020 15:10:18 14.4 C 20 %
812 23-03-2020 15:20:17 14.7 C 20 %
813 23-03-2020 15:30:17 13.5 C 20 %
814 23-03-2020 15:40:17 14.4 C 20 %
815 23-03-2020 15:50:17 14.1 C 20 %
816 23-03-2020 16:00:17 13.8 C 20 %
817 23-03-2020 16:10:17 14.7 C 20 %
818 23-03-2020 16:20:17 15.3 C 20 %
819 23-03-2020 16:30:18 14.7 C 20 %
820 23-03-2020 16:40:18 14.8 C 20 %
821 23-03-2020 16:50:17 11.4 C 20 %
822 23-03-2020 17:00:18 10.1 C 20 %
823 23-03-2020 17:10:18 9.7 C 20 %
824 23-03-2020 17:20:18 9.4 C 20 %
825 23-03-2020 17:30:18 9 C 20 %
Sensor: Nr:Datum:Temp:Feuchte:
Aussen-T/F 826 23-03-2020 17:40:18 9 C 20 %
827 23-03-2020 17:50:17 8.6 C 20 %
828 23-03-2020 18:00:18 8.3 C 20 %
829 23-03-2020 18:10:18 7.6 C 20 %
830 23-03-2020 18:20:17 7.4 C 20 %
831 23-03-2020 18:30:18 7 C 20 %
832 23-03-2020 18:40:18 5.3 C 20 %
833 23-03-2020 18:50:18 4.4 C 20 %
834 23-03-2020 19:00:18 4.2 C 20 %
835 23-03-2020 19:10:18 4.1 C 20 %
836 23-03-2020 19:20:17 3.7 C 20 %
837 23-03-2020 19:30:18 3.6 C 20 %
838 23-03-2020 19:40:18 3.4 C 20 %
839 23-03-2020 19:50:18 2.7 C 20 %
840 23-03-2020 20:00:17 2.9 C 20 %
841 23-03-2020 20:10:17 2.6 C 20 %
842 23-03-2020 20:20:17 2.5 C 20 %
843 23-03-2020 20:30:18 2.3 C 20 %
844 23-03-2020 20:40:18 2.4 C 20 %
845 23-03-2020 20:50:18 2.3 C 20 %
846 23-03-2020 21:00:18 2.1 C 20 %
847 23-03-2020 21:10:18 0.9 C 27 %
848 23-03-2020 21:20:17 1 C 26 %
849 23-03-2020 21:30:18 1.1 C 28 %
850 23-03-2020 21:40:18 0.7 C 29 %
Sensor: Nr:Datum:Temp:Feuchte:
Aussen-T/F 851 23-03-2020 21:50:18 0.2 C 30 %
852 23-03-2020 22:00:17 -0.4 C 31 %
853 23-03-2020 22:10:18 -0.9 C 35 %
854 23-03-2020 22:20:18 -0.2 C 34 %
855 23-03-2020 22:30:18 -0.9 C 35 %
856 23-03-2020 22:40:18 -0.9 C 35 %
857 23-03-2020 22:50:18 -1.3 C 35 %
858 23-03-2020 23:00:18 -1.4 C 36 %
859 23-03-2020 23:10:18 -1.6 C 36 %
860 23-03-2020 23:20:17 -1.7 C 36 %
861 23-03-2020 23:30:17 -1.7 C 37 %
862 23-03-2020 23:40:17 -1.9 C 37 %
863 23-03-2020 23:50:18 -1.8 C 37 %
864 24-03-2020 00:00:18 -1.9 C 36 %
865 24-03-2020 00:10:18 -2 C 36 %
866 24-03-2020 00:20:17 -2.2 C 36 %
867 24-03-2020 00:30:18 -2.4 C 37 %
868 24-03-2020 00:40:18 -2.4 C 38 %
869 24-03-2020 00:50:18 -2.5 C 38 %
870 24-03-2020 01:00:18 -2.3 C 37 %
871 24-03-2020 01:10:18 -2.6 C 37 %
872 24-03-2020 01:20:18 -2.7 C 38 %
873 24-03-2020 01:30:18 -2.7 C 38 %
874 24-03-2020 01:40:18 -3 C 38 %
875 24-03-2020 01:50:18 -2.5 C 37 %
Sensor: Nr:Datum:Temp:Feuchte:
Aussen-T/F 876 24-03-2020 02:00:18 -2.6 C 38 %
877 24-03-2020 02:10:18 -2.8 C 38 %
878 24-03-2020 02:20:17 -3.1 C 38 %
879 24-03-2020 02:30:17 -3.2 C 38 %
880 24-03-2020 02:40:17 -3.3 C 38 %
881 24-03-2020 02:50:17 -3.2 C 38 %
882 24-03-2020 03:00:17 -3.4 C 38 %
883 24-03-2020 03:10:17 -3.5 C 38 %
884 24-03-2020 03:20:17 -3.6 C 39 %
885 24-03-2020 03:30:17 -3.6 C 38 %
886 24-03-2020 03:40:17 -3.7 C 38 %
887 24-03-2020 03:50:17 -3.9 C 39 %
888 24-03-2020 04:00:18 -3.7 C 39 %
889 24-03-2020 04:10:18 -3.9 C 38 %
890 24-03-2020 04:20:18 -4 C 38 %
891 24-03-2020 04:30:18 -4 C 38 %
892 24-03-2020 04:40:18 -4 C 38 %
893 24-03-2020 04:50:17 -3.9 C 38 %
894 24-03-2020 05:00:17 -4.2 C 38 %
895 24-03-2020 05:10:17 -4.3 C 39 %
896 24-03-2020 05:20:17 -4.2 C 38 %
897 24-03-2020 05:30:18 -4.3 C 38 %
898 24-03-2020 05:40:18 -4.4 C 38 %
899 24-03-2020 05:50:18 -4.6 C 39 %
900 24-03-2020 06:00:17 -4.7 C 39 %
Sensor: Nr:Datum:Temp:Feuchte:
Aussen-T/F 901 24-03-2020 06:10:18 -4.7 C 38 %
902 24-03-2020 06:20:17 -4.7 C 39 %
903 24-03-2020 06:30:18 -4.7 C 38 %
904 24-03-2020 06:40:18 -4.6 C 39 %
905 24-03-2020 06:50:18 -4.4 C 38 %
906 24-03-2020 07:00:18 -4.5 C 39 %
907 24-03-2020 07:10:18 -4.4 C 39 %
908 24-03-2020 07:20:18 -4.3 C 39 %
909 24-03-2020 07:30:18 -4.2 C 39 %
910 24-03-2020 07:40:18 -4 C 39 %
911 24-03-2020 07:50:17 -3.8 C 39 %
912 24-03-2020 08:00:17 -3.7 C 39 %
913 24-03-2020 08:10:17 -3.5 C 38 %
914 24-03-2020 08:20:17 -3.3 C 38 %
915 24-03-2020 08:30:17 -2.5 C 38 %
916 24-03-2020 08:40:17 -2.4 C 37 %
917 24-03-2020 08:50:17 -2 C 37 %
918 24-03-2020 09:00:17 -1.6 C 36 %
919 24-03-2020 09:10:17 -0.7 C 35 %
920 24-03-2020 09:20:17 -0.2 C 34 %
921 24-03-2020 09:30:17 0.4 C 30 %
922 24-03-2020 09:40:17 1 C 27 %
923 24-03-2020 09:50:18 1.7 C 23 %
924 24-03-2020 10:00:18 3 C 20 %
925 24-03-2020 10:10:18 3.3 C 20 %
Sensor: Nr:Datum:Temp:Feuchte:
Aussen-T/F 926 24-03-2020 10:20:17 3.9 C 20 %
927 24-03-2020 10:30:17 4.3 C 20 %
928 24-03-2020 10:40:17 4.7 C 20 %
929 24-03-2020 10:50:17 5.7 C 20 %
930 24-03-2020 11:00:18 5.7 C 20 %
931 24-03-2020 11:10:18 6.4 C 20 %
932 24-03-2020 11:20:17 6.9 C 20 %
933 24-03-2020 11:30:17 7.9 C 20 %
934 24-03-2020 11:40:17 7.2 C 20 %
935 24-03-2020 11:50:18 6.8 C 20 %
936 24-03-2020 12:00:18 7.8 C 20 %
937 24-03-2020 12:10:18 8.6 C 20 %
938 24-03-2020 12:20:17 8.2 C 20 %
939 24-03-2020 12:30:17 8.2 C 20 %
940 24-03-2020 12:40:17 9 C 20 %
941 24-03-2020 12:50:17 9.2 C 20 %
942 24-03-2020 13:00:18 10.4 C 20 %
943 24-03-2020 13:10:18 11.7 C 20 %
944 24-03-2020 13:20:17 12.5 C 20 %
945 24-03-2020 13:30:17 13 C 20 %
946 24-03-2020 13:40:17 11.9 C 20 %
947 24-03-2020 13:50:18 11 C 20 %
948 24-03-2020 14:00:17 10.8 C 20 %
949 24-03-2020 14:10:17 11.3 C 20 %
950 24-03-2020 14:20:17 13.7 C 20 %
Sensor: Nr:Datum:Temp:Feuchte:
Aussen-T/F 951 24-03-2020 14:30:17 12.2 C 20 %
952 24-03-2020 14:40:17 14.4 C 20 %
953 24-03-2020 14:50:18 13.4 C 20 %
954 24-03-2020 15:00:18 13.5 C 20 %
955 24-03-2020 15:10:18 14.1 C 20 %
956 24-03-2020 15:20:18 15.3 C 20 %
957 24-03-2020 15:30:18 14.1 C 20 %
958 24-03-2020 15:40:18 15.4 C 20 %
959 24-03-2020 15:50:18 14.9 C 20 %
960 24-03-2020 16:00:18 14.8 C 20 %
961 24-03-2020 16:10:18 14.8 C 20 %
962 24-03-2020 16:20:18 14.1 C 20 %
963 24-03-2020 16:30:18 13.6 C 20 %
964 24-03-2020 16:40:18 14.3 C 20 %
965 24-03-2020 16:50:18 11.4 C 20 %
966 24-03-2020 17:00:18 10.8 C 20 %
967 24-03-2020 17:10:18 10.4 C 20 %
968 24-03-2020 17:20:18 10.1 C 20 %
969 24-03-2020 17:30:18 9.9 C 20 %
970 24-03-2020 17:40:18 9.6 C 20 %
971 24-03-2020 17:50:17 9.3 C 20 %
972 24-03-2020 18:00:17 9 C 20 %
973 24-03-2020 18:10:17 8.6 C 20 %
974 24-03-2020 18:20:17 8.4 C 20 %
975 24-03-2020 18:30:17 7.6 C 20 %
Sensor: Nr:Datum:Temp:Feuchte:
Aussen-T/F 976 24-03-2020 18:40:18 6.4 C 20 %
977 24-03-2020 18:50:17 5.4 C 20 %
978 24-03-2020 19:00:18 4.9 C 20 %
979 24-03-2020 19:10:18 4.6 C 20 %
980 24-03-2020 19:20:18 4.5 C 20 %
981 24-03-2020 19:30:18 4.1 C 20 %
982 24-03-2020 19:40:18 3.9 C 20 %
983 24-03-2020 19:50:17 3.6 C 20 %
984 24-03-2020 20:00:18 3.6 C 20 %
985 24-03-2020 20:10:18 3.5 C 20 %
986 24-03-2020 20:20:17 3.4 C 20 %
987 24-03-2020 20:30:18 3.4 C 20 %
988 24-03-2020 20:40:18 2.9 C 20 %
989 24-03-2020 20:50:18 2.7 C 20 %
990 24-03-2020 21:00:18 2.7 C 20 %
991 24-03-2020 21:10:18 2.6 C 20 %
992 24-03-2020 21:20:17 2.3 C 20 %
993 24-03-2020 21:30:17 2.3 C 20 %
994 24-03-2020 21:40:17 2.2 C 20 %
995 24-03-2020 21:50:17 2.2 C 20 %
996 24-03-2020 22:00:18 1.7 C 20 %
997 24-03-2020 22:10:18 1.6 C 20 %
998 24-03-2020 22:20:17 1.6 C 20 %
999 24-03-2020 22:30:18 0.3 C 25 %
1000 24-03-2020 22:40:18 -0.2 C 30 %
Sensor: Nr:Datum:Temp:Feuchte:
Aussen-T/F 1001 24-03-2020 22:50:17 -0.7 C 30 %
1002 24-03-2020 23:00:18 -1.2 C 32 %
1003 24-03-2020 23:10:18 -1.1 C 31 %
1004 24-03-2020 23:20:17 -1.4 C 31 %
1005 24-03-2020 23:30:18 -1.7 C 30 %
1006 24-03-2020 23:40:18 -0.9 C 30 %
1007 24-03-2020 23:50:18 -1.2 C 30 %
1008 25-03-2020 00:00:17 -1.6 C 30 %
1009 25-03-2020 00:10:17 -1.6 C 31 %
1010 25-03-2020 00:20:17 -1.8 C 32 %
1011 25-03-2020 00:30:17 -1.8 C 30 %
1012 25-03-2020 00:40:18 -1.9 C 31 %
1013 25-03-2020 00:50:17 -1.8 C 32 %
1014 25-03-2020 01:00:17 -1.6 C 32 %
1015 25-03-2020 01:10:18 -1.3 C 31 %
1016 25-03-2020 01:20:17 -1.1 C 30 %
1017 25-03-2020 01:30:18 -1.1 C 29 %
1018 25-03-2020 01:40:18 -0.9 C 28 %
1019 25-03-2020 01:50:17 -1.1 C 28 %
1020 25-03-2020 02:00:17 -1.1 C 28 %
1021 25-03-2020 02:10:18 -1.3 C 27 %
1022 25-03-2020 02:20:18 -1.4 C 29 %
1023 25-03-2020 02:30:18 -1.6 C 27 %
1024 25-03-2020 02:40:18 -1.5 C 27 %
1025 25-03-2020 02:50:18 -1.4 C 27 %
Sensor: Nr:Datum:Temp:Feuchte:
Aussen-T/F 1026 25-03-2020 03:00:18 -1.4 C 26 %
1027 25-03-2020 03:10:18 -1.4 C 26 %
1028 25-03-2020 03:20:17 -1.5 C 27 %
1029 25-03-2020 03:30:17 -2.3 C 30 %
1030 25-03-2020 03:40:17 -2.6 C 31 %
1031 25-03-2020 03:50:17 -2.8 C 32 %
1032 25-03-2020 04:00:17 -3.1 C 33 %
1033 25-03-2020 04:10:17 -3.2 C 34 %
1034 25-03-2020 04:20:17 -3.3 C 34 %
1035 25-03-2020 04:30:18 -3.3 C 34 %
1036 25-03-2020 04:40:18 -3 C 33 %
1037 25-03-2020 04:50:17 -3.2 C 33 %
1038 25-03-2020 05:00:18 -3 C 32 %
1039 25-03-2020 05:10:18 -2.6 C 32 %
1040 25-03-2020 05:20:17 -2.3 C 30 %
1041 25-03-2020 05:30:17 -2.5 C 30 %
1042 25-03-2020 05:40:17 -3.4 C 33 %
1043 25-03-2020 05:50:17 -4 C 35 %
1044 25-03-2020 06:00:17 -4.4 C 36 %
1045 25-03-2020 06:10:17 -4.2 C 36 %
1046 25-03-2020 06:20:17 -4.2 C 36 %
1047 25-03-2020 06:30:17 -4.4 C 36 %
1048 25-03-2020 06:40:17 -4.3 C 36 %
1049 25-03-2020 06:50:17 -4.3 C 36 %
1050 25-03-2020 07:00:17 -4.3 C 37 %
Sensor: Nr:Datum:Temp:Feuchte:
Aussen-T/F 1051 25-03-2020 07:10:17 -4.3 C 37 %
1052 25-03-2020 07:20:17 -4.1 C 37 %
1053 25-03-2020 07:30:17 -4 C 37 %
1054 25-03-2020 07:40:17 -3.8 C 37 %
1055 25-03-2020 07:50:17 -3.2 C 36 %
1056 25-03-2020 08:00:17 -2.6 C 35 %
1057 25-03-2020 08:10:17 -2 C 32 %
1058 25-03-2020 08:20:17 -2.7 C 35 %
1059 25-03-2020 08:30:17 -2 C 34 %
1060 25-03-2020 08:40:17 -1.9 C 34 %
1061 25-03-2020 08:50:17 -1.6 C 34 %
1062 25-03-2020 09:00:17 -1.5 C 34 %
1063 25-03-2020 09:10:17 -1.3 C 35 %
1064 25-03-2020 09:20:17 -1 C 35 %
1065 25-03-2020 09:30:17 -0.2 C 32 %
1066 25-03-2020 09:40:18 0.7 C 29 %
1067 25-03-2020 09:50:17 2.1 C 20 %
1068 25-03-2020 10:00:18 2.8 C 20 %
1069 25-03-2020 10:10:18 3.2 C 20 %
1070 25-03-2020 10:20:17 3.6 C 20 %
1071 25-03-2020 10:30:17 4.1 C 20 %
1072 25-03-2020 10:40:17 4.7 C 20 %
1073 25-03-2020 10:50:17 5.1 C 20 %
1074 25-03-2020 11:00:17 5.3 C 20 %
1075 25-03-2020 11:10:17 5.7 C 20 %
Sensor: Nr:Datum:Temp:Feuchte:
Aussen-T/F 1076 25-03-2020 11:20:17 7.2 C 20 %
1077 25-03-2020 11:30:18 7.7 C 20 %
1078 25-03-2020 11:40:18 7.3 C 20 %
1079 25-03-2020 11:50:17 6.8 C 20 %
1080 25-03-2020 12:00:17 7.8 C 20 %
1081 25-03-2020 12:10:17 8.3 C 20 %
1082 25-03-2020 12:20:17 8.4 C 20 %
1083 25-03-2020 12:30:17 8.4 C 20 %
1084 25-03-2020 12:40:17 8.6 C 20 %
1085 25-03-2020 12:50:17 10.3 C 20 %
1086 25-03-2020 13:00:17 11.2 C 20 %
1087 25-03-2020 13:10:17 12.2 C 20 %
1088 25-03-2020 13:20:18 13.8 C 20 %
1089 25-03-2020 13:30:18 14.5 C 20 %
1090 25-03-2020 13:40:18 12.4 C 20 %
1091 25-03-2020 13:50:18 12 C 20 %
1092 25-03-2020 14:00:18 11.3 C 20 %
1093 25-03-2020 14:10:18 11.1 C 20 %
1094 25-03-2020 14:20:17 13.2 C 20 %
1095 25-03-2020 14:30:17 13.5 C 20 %
1096 25-03-2020 14:40:17 12.7 C 20 %
1097 25-03-2020 14:50:17 13.5 C 20 %
1098 25-03-2020 15:00:17 13.8 C 20 %
1099 25-03-2020 15:10:17 14.1 C 20 %
1100 25-03-2020 15:20:18 14.9 C 20 %
Sensor: Nr:Datum:Temp:Feuchte:
Aussen-T/F 1101 25-03-2020 15:30:18 14.4 C 20 %
1102 25-03-2020 15:40:18 14.4 C 20 %
1103 25-03-2020 15:50:17 15 C 20 %
1104 25-03-2020 16:00:18 15.3 C 20 %
1105 25-03-2020 16:10:18 14.5 C 20 %
1106 25-03-2020 16:20:17 15.7 C 20 %
1107 25-03-2020 16:30:17 13.8 C 20 %
1108 25-03-2020 16:40:17 12.9 C 20 %
1109 25-03-2020 16:50:18 12.2 C 20 %
1110 25-03-2020 17:00:18 11.9 C 20 %
1111 25-03-2020 17:10:18 11.5 C 20 %
1112 25-03-2020 17:20:17 11.1 C 20 %
1113 25-03-2020 17:30:17 11 C 20 %
1114 25-03-2020 17:40:17 10.7 C 20 %
1115 25-03-2020 17:50:17 10.5 C 20 %
1116 25-03-2020 18:00:18 10.5 C 20 %
1117 25-03-2020 18:10:18 10.1 C 20 %
1118 25-03-2020 18:20:17 9.6 C 20 %
1119 25-03-2020 18:30:18 8.8 C 20 %
1120 25-03-2020 18:40:18 7.7 C 20 %
1121 25-03-2020 18:50:18 7 C 20 %
1122 25-03-2020 19:00:18 6.3 C 20 %
1123 25-03-2020 19:10:18 6.1 C 20 %
1124 25-03-2020 19:20:17 5.4 C 20 %
1125 25-03-2020 19:30:18 5.8 C 20 %
Sensor: Nr:Datum:Temp:Feuchte:
Aussen-T/F 1126 25-03-2020 19:40:18 5.1 C 20 %
1127 25-03-2020 19:50:17 4.6 C 20 %
1128 25-03-2020 20:00:17 4.5 C 20 %
1129 25-03-2020 20:10:17 4.1 C 20 %
1130 25-03-2020 20:20:17 4 C 20 %
1131 25-03-2020 20:30:18 4.7 C 20 %
1132 25-03-2020 20:40:18 4.3 C 20 %
1133 25-03-2020 20:50:17 3.8 C 20 %
1134 25-03-2020 21:00:18 4.6 C 20 %
1135 25-03-2020 21:10:18 4.6 C 20 %
1136 25-03-2020 21:20:17 4.3 C 20 %
1137 25-03-2020 21:30:17 4.3 C 20 %
1138 25-03-2020 21:40:17 4 C 20 %
1139 25-03-2020 21:50:17 3.6 C 20 %
1140 25-03-2020 22:00:17 2.8 C 20 %
1141 25-03-2020 22:10:17 2.6 C 20 %
1142 25-03-2020 22:20:17 2.6 C 20 %
1143 25-03-2020 22:30:18 2.1 C 20 %
1144 25-03-2020 22:40:18 2.3 C 20 %
1145 25-03-2020 22:50:18 2.1 C 20 %
1146 25-03-2020 23:00:18 1.7 C 20 %
1147 25-03-2020 23:10:18 1.7 C 23 %
1148 25-03-2020 23:20:17 1.6 C 23 %
1149 25-03-2020 23:30:18 1.5 C 21 %
1150 25-03-2020 23:40:18 1.8 C 20 %
Sensor: Nr:Datum:Temp:Feuchte:
Aussen-T/F 1151 25-03-2020 23:50:18 1.8 C 20 %
1152 26-03-2020 00:00:18 1.4 C 21 %
1153 26-03-2020 00:10:18 1.2 C 21 %
1154 26-03-2020 00:20:18 1.3 C 21 %
1155 26-03-2020 00:30:18 0.9 C 23 %
1156 26-03-2020 00:40:18 0.9 C 25 %
1157 26-03-2020 00:50:18 1 C 23 %
1158 26-03-2020 01:00:18 0.7 C 25 %
1159 26-03-2020 01:10:18 0.4 C 25 %
1160 26-03-2020 01:20:17 0.5 C 25 %
1161 26-03-2020 01:30:17 0.7 C 25 %
1162 26-03-2020 01:40:17 0.7 C 23 %
1163 26-03-2020 01:50:17 0.7 C 21 %
1164 26-03-2020 02:00:17 0.6 C 23 %
1165 26-03-2020 02:10:17 0.7 C 21 %
1166 26-03-2020 02:20:17 0.7 C 21 %
1167 26-03-2020 02:30:17 0.6 C 21 %
1168 26-03-2020 02:40:18 0.4 C 21 %
1169 26-03-2020 02:50:17 0.3 C 23 %
1170 26-03-2020 03:00:17 0 C 23 %
1171 26-03-2020 03:10:18 0.1 C 23 %
1172 26-03-2020 03:20:18 0 C 23 %
1173 26-03-2020 03:30:18 -0.3 C 25 %
1174 26-03-2020 03:40:18 -0.3 C 27 %
1175 26-03-2020 03:50:17 -0.4 C 27 %
Sensor: Nr:Datum:Temp:Feuchte:
Aussen-T/F 1176 26-03-2020 04:00:17 -0.1 C 26 %
1177 26-03-2020 04:10:17 -0.3 C 25 %
1178 26-03-2020 04:20:17 -0.3 C 26 %
1179 26-03-2020 04:30:18 -0.4 C 26 %
1180 26-03-2020 04:40:18 -0.4 C 26 %
1181 26-03-2020 04:50:17 -0.5 C 26 %
1182 26-03-2020 05:00:18 -0.5 C 27 %
1183 26-03-2020 05:10:18 -0.6 C 27 %
1184 26-03-2020 05:20:17 -0.6 C 28 %
1185 26-03-2020 05:30:17 -0.7 C 28 %
1186 26-03-2020 05:40:18 -0.5 C 28 %
1187 26-03-2020 05:50:17 -0.6 C 28 %
1188 26-03-2020 06:00:18 -0.7 C 29 %
1189 26-03-2020 06:10:18 -0.8 C 28 %
1190 26-03-2020 06:20:18 -0.9 C 28 %
1191 26-03-2020 06:30:18 -1 C 28 %
1192 26-03-2020 06:40:18 -0.9 C 30 %
1193 26-03-2020 06:50:18 -1.1 C 30 %
1194 26-03-2020 07:00:18 -0.8 C 30 %
1195 26-03-2020 07:10:18 -1.1 C 30 %
1196 26-03-2020 07:20:18 -0.6 C 30 %
1197 26-03-2020 07:30:18 -0.4 C 30 %
1198 26-03-2020 07:40:18 0.2 C 27 %
1199 26-03-2020 07:50:17 0.5 C 25 %
1200 26-03-2020 08:00:18 0.3 C 28 %
Sensor: Nr:Datum:Temp:Feuchte:
Aussen-T/F 1201 26-03-2020 08:10:18 0.4 C 28 %
1202 26-03-2020 08:20:18 0.7 C 26 %
1203 26-03-2020 08:30:18 1.4 C 21 %
1204 26-03-2020 08:40:18 1.7 C 21 %
1205 26-03-2020 08:50:17 2.2 C 20 %
1206 26-03-2020 09:00:18 2.3 C 20 %
1207 26-03-2020 09:10:18 2.3 C 20 %
1208 26-03-2020 09:20:18 2.7 C 20 %
1209 26-03-2020 09:30:18 3.2 C 20 %
1210 26-03-2020 09:40:18 3.5 C 20 %
1211 26-03-2020 09:50:18 4.1 C 20 %
1212 26-03-2020 10:00:18 4.4 C 20 %
1213 26-03-2020 10:10:18 4.9 C 20 %
1214 26-03-2020 10:20:18 5 C 20 %
1215 26-03-2020 10:30:18 5.4 C 20 %
1216 26-03-2020 10:40:18 5.9 C 20 %
1217 26-03-2020 10:50:17 6 C 20 %
1218 26-03-2020 11:00:18 6.6 C 20 %
1219 26-03-2020 11:10:18 6.9 C 20 %
1220 26-03-2020 11:20:18 7.3 C 20 %
1221 26-03-2020 11:30:18 8.5 C 20 %
1222 26-03-2020 11:40:18 8.3 C 20 %
1223 26-03-2020 11:50:18 7.3 C 20 %
1224 26-03-2020 12:00:18 8 C 20 %
1225 26-03-2020 12:10:18 9.1 C 20 %
Sensor: Nr:Datum:Temp:Feuchte:
Aussen-T/F 1226 26-03-2020 12:20:17 9.6 C 20 %
1227 26-03-2020 12:30:17 9.6 C 20 %
1228 26-03-2020 12:40:17 9.6 C 20 %
1229 26-03-2020 12:50:17 9.7 C 20 %
1230 26-03-2020 13:00:17 10.4 C 20 %
1231 26-03-2020 13:10:17 10.8 C 20 %
1232 26-03-2020 13:20:18 11.5 C 20 %
1233 26-03-2020 13:30:18 11.5 C 20 %
1234 26-03-2020 13:40:18 12.1 C 20 %
1235 26-03-2020 13:50:18 13 C 20 %
1236 26-03-2020 14:00:18 12 C 20 %
1237 26-03-2020 14:10:18 12.2 C 20 %
1238 26-03-2020 14:20:18 11.9 C 20 %
1239 26-03-2020 14:30:18 14.3 C 20 %
1240 26-03-2020 14:40:18 14.2 C 20 %
1241 26-03-2020 14:50:17 14 C 20 %
1242 26-03-2020 15:00:17 15.3 C 20 %
1243 26-03-2020 15:10:18 14.2 C 20 %
1244 26-03-2020 15:20:18 14 C 20 %
1245 26-03-2020 15:30:18 15.6 C 20 %
1246 26-03-2020 15:40:18 15.6 C 20 %
1247 26-03-2020 15:50:18 16.5 C 20 %
1248 26-03-2020 16:00:18 15.6 C 20 %
1249 26-03-2020 16:10:18 15.3 C 20 %
1250 26-03-2020 16:20:18 12.5 C 20 %
Sensor: Nr:Datum:Temp:Feuchte:
Aussen-T/F 1251 26-03-2020 16:30:18 12.3 C 20 %
1252 26-03-2020 16:40:18 13.9 C 20 %
1253 26-03-2020 16:50:18 12.8 C 20 %
1254 26-03-2020 17:00:18 11.4 C 20 %
1255 26-03-2020 17:10:18 11 C 20 %
1256 26-03-2020 17:20:17 10.9 C 20 %
1257 26-03-2020 17:30:17 11 C 20 %
1258 26-03-2020 17:40:17 11.1 C 20 %
1259 26-03-2020 17:50:17 10.7 C 20 %
1260 26-03-2020 18:00:17 10.5 C 20 %
1261 26-03-2020 18:10:17 10.3 C 20 %
1262 26-03-2020 18:20:18 10.1 C 20 %
1263 26-03-2020 18:30:18 9.8 C 20 %
1264 26-03-2020 18:40:18 9.4 C 20 %
1265 26-03-2020 18:50:17 8.6 C 20 %
1266 26-03-2020 19:00:17 8 C 20 %
1267 26-03-2020 19:10:17 7.4 C 20 %
1268 26-03-2020 19:20:17 6.9 C 21 %
1269 26-03-2020 19:30:17 6.7 C 21 %
1270 26-03-2020 19:40:17 6.4 C 21 %
1271 26-03-2020 19:50:17 6.5 C 21 %
1272 26-03-2020 20:00:17 6.2 C 23 %
1273 26-03-2020 20:10:18 6 C 23 %
1274 26-03-2020 20:20:18 5.7 C 25 %
1275 26-03-2020 20:30:17 5.4 C 26 %
Sensor: Nr:Datum:Temp:Feuchte:
Aussen-T/F 1276 26-03-2020 20:40:17 4.9 C 28 %
1277 26-03-2020 20:50:17 4.9 C 28 %
1278 26-03-2020 21:00:17 4.7 C 29 %
1279 26-03-2020 21:10:17 4.5 C 29 %
1280 26-03-2020 21:20:17 4.5 C 30 %
1281 26-03-2020 21:30:18 4.1 C 30 %
1282 26-03-2020 21:40:18 4.6 C 30 %
1283 26-03-2020 21:50:18 4.6 C 30 %
1284 26-03-2020 22:00:18 4.6 C 30 %
1285 26-03-2020 22:10:18 4.6 C 30 %
1286 26-03-2020 22:20:17 4.5 C 30 %
1287 26-03-2020 22:30:17 4.5 C 30 %
1288 26-03-2020 22:40:17 4.5 C 30 %
1289 26-03-2020 22:50:17 4.4 C 30 %
1290 26-03-2020 23:00:18 4.5 C 30 %
1291 26-03-2020 23:10:18 4.2 C 30 %
1292 26-03-2020 23:20:17 4.2 C 30 %
1293 26-03-2020 23:30:18 3.9 C 31 %
1294 26-03-2020 23:40:18 4 C 30 %
1295 26-03-2020 23:50:18 3.9 C 31 %
1296 27-03-2020 00:00:18 4 C 30 %
1297 27-03-2020 00:10:18 3.9 C 31 %
1298 27-03-2020 00:20:17 4 C 30 %
1299 27-03-2020 00:30:17 4 C 30 %
1300 27-03-2020 00:40:17 3.7 C 32 %
Sensor: Nr:Datum:Temp:Feuchte:
Aussen-T/F 1301 27-03-2020 00:50:18 3.6 C 32 %
1302 27-03-2020 01:00:18 2.7 C 35 %
1303 27-03-2020 01:10:18 2.5 C 36 %
1304 27-03-2020 01:20:17 3 C 35 %
1305 27-03-2020 01:30:18 3.1 C 35 %
1306 27-03-2020 01:40:18 2.7 C 36 %
1307 27-03-2020 01:50:18 3 C 35 %
1308 27-03-2020 02:00:18 2.9 C 35 %
1309 27-03-2020 02:10:18 2.8 C 35 %
1310 27-03-2020 02:20:17 2.7 C 35 %
1311 27-03-2020 02:30:17 2.5 C 36 %
1312 27-03-2020 02:40:17 2.5 C 36 %
1313 27-03-2020 02:50:17 2.6 C 35 %
1314 27-03-2020 03:00:17 2.6 C 35 %
1315 27-03-2020 03:10:17 2.2 C 36 %
1316 27-03-2020 03:20:17 2.5 C 35 %
1317 27-03-2020 03:30:17 2.4 C 35 %
1318 27-03-2020 03:40:17 2.6 C 35 %
1319 27-03-2020 03:50:17 2.4 C 36 %
1320 27-03-2020 04:00:18 2.4 C 35 %
1321 27-03-2020 04:10:18 2.4 C 35 %
1322 27-03-2020 04:20:18 1.4 C 38 %
1323 27-03-2020 04:30:18 1.3 C 38 %
1324 27-03-2020 04:40:18 1.6 C 38 %
1325 27-03-2020 04:50:17 1.8 C 37 %
Sensor: Nr:Datum:Temp:Feuchte:
Aussen-T/F 1326 27-03-2020 05:00:18 1.5 C 38 %
1327 27-03-2020 05:10:18 0.7 C 40 %
1328 27-03-2020 05:20:18 0.4 C 40 %
1329 27-03-2020 05:30:18 0 C 41 %
1330 27-03-2020 05:40:18 0 C 42 %
1331 27-03-2020 05:50:18 -0.1 C 42 %
1332 27-03-2020 06:00:18 -0.5 C 42 %
1333 27-03-2020 06:10:18 -0.6 C 43 %
1334 27-03-2020 06:20:18 -0.4 C 43 %
1335 27-03-2020 06:30:18 -0.4 C 43 %
1336 27-03-2020 06:40:18 -0.3 C 43 %
1337 27-03-2020 06:50:17 -0.3 C 43 %
1338 27-03-2020 07:00:18 -0.2 C 43 %
1339 27-03-2020 07:10:18 -0.1 C 43 %
1340 27-03-2020 07:20:18 0.1 C 43 %
1341 27-03-2020 07:30:18 0.3 C 43 %
1342 27-03-2020 07:40:18 0.8 C 43 %
1343 27-03-2020 07:50:17 1.2 C 41 %
1344 27-03-2020 08:00:17 1.1 C 41 %
1345 27-03-2020 08:10:18 1.9 C 40 %
1346 27-03-2020 08:20:18 1.7 C 40 %
1347 27-03-2020 08:30:18 1.6 C 41 %
1348 27-03-2020 08:40:18 1.9 C 41 %
1349 27-03-2020 08:50:17 2.6 C 39 %
1350 27-03-2020 09:00:18 3 C 38 %
Sensor: Nr:Datum:Temp:Feuchte:
Aussen-T/F 1351 27-03-2020 09:10:18 3.3 C 37 %
1352 27-03-2020 09:20:17 3.6 C 37 %
1353 27-03-2020 09:30:18 4.1 C 36 %
1354 27-03-2020 09:40:18 4.5 C 35 %
1355 27-03-2020 09:50:18 5.3 C 35 %
1356 27-03-2020 10:00:18 5.8 C 34 %
1357 27-03-2020 10:10:18 6.5 C 32 %
1358 27-03-2020 10:20:17 7.6 C 30 %
1359 27-03-2020 10:30:17 8.1 C 28 %
1360 27-03-2020 10:40:17 9.1 C 25 %
1361 27-03-2020 10:50:17 9.3 C 25 %
1362 27-03-2020 11:00:17 10.2 C 20 %
1363 27-03-2020 11:10:17 11 C 20 %
1364 27-03-2020 11:20:17 12.4 C 20 %
1365 27-03-2020 11:30:17 14.5 C 20 %
1366 27-03-2020 11:40:17 14.2 C 20 %
1367 27-03-2020 11:50:17 12.5 C 20 %
1368 27-03-2020 12:00:17 13.4 C 20 %
1369 27-03-2020 12:10:17 13.7 C 20 %
1370 27-03-2020 12:20:17 14.4 C 20 %
1371 27-03-2020 12:30:17 14.1 C 20 %
1372 27-03-2020 12:40:18 14.2 C 20 %
1373 27-03-2020 12:50:18 14.6 C 20 %
1374 27-03-2020 13:00:18 16.6 C 20 %
1375 27-03-2020 13:10:18 15.8 C 20 %
Sensor: Nr:Datum:Temp:Feuchte:
Aussen-T/F 1376 27-03-2020 13:20:17 17.6 C 20 %
1377 27-03-2020 13:30:18 18.8 C 20 %
1378 27-03-2020 13:40:18 16.8 C 20 %
1379 27-03-2020 13:50:18 17.3 C 20 %
1380 27-03-2020 14:00:18 16.9 C 20 %
1381 27-03-2020 14:10:18 17.6 C 20 %
1382 27-03-2020 14:20:18 17.7 C 20 %
1383 27-03-2020 14:30:17 20.4 C 20 %
1384 27-03-2020 14:40:17 18.1 C 20 %
1385 27-03-2020 14:50:17 18.4 C 20 %
1386 27-03-2020 15:00:17 18.5 C 20 %
1387 27-03-2020 15:10:17 18.7 C 20 %
1388 27-03-2020 15:20:17 18.9 C 20 %
1389 27-03-2020 15:30:18 19.4 C 20 %
1390 27-03-2020 15:40:18 18.3 C 20 %
1391 27-03-2020 15:50:17 19.5 C 20 %
1392 27-03-2020 16:00:17 18.5 C 20 %
1393 27-03-2020 16:10:17 18.2 C 20 %
1394 27-03-2020 16:20:17 19.2 C 20 %
1395 27-03-2020 16:30:17 18.3 C 20 %
1396 27-03-2020 16:40:17 18 C 20 %
1397 27-03-2020 16:50:17 17 C 20 %
1398 27-03-2020 17:00:18 16.4 C 20 %
1399 27-03-2020 17:10:18 16.3 C 20 %
1400 27-03-2020 17:20:18 16.1 C 20 %
Sensor: Nr:Datum:Temp:Feuchte:
Aussen-T/F 1401 27-03-2020 17:30:18 16 C 20 %
1402 27-03-2020 17:40:18 15.8 C 20 %
1403 27-03-2020 17:50:18 15.7 C 20 %
1404 27-03-2020 18:00:17 15.4 C 20 %
1405 27-03-2020 18:10:17 15 C 20 %
1406 27-03-2020 18:20:17 14.1 C 20 %
1407 27-03-2020 18:30:18 13.5 C 20 %
1408 27-03-2020 18:40:18 12.9 C 20 %
1409 27-03-2020 18:50:18 12.3 C 20 %
1410 27-03-2020 19:00:18 11.8 C 20 %
1411 27-03-2020 19:10:18 11.5 C 20 %
1412 27-03-2020 19:20:17 11.4 C 20 %
1413 27-03-2020 19:30:17 10.7 C 20 %
1414 27-03-2020 19:40:17 10.7 C 21 %
1415 27-03-2020 19:50:17 10.4 C 23 %
1416 27-03-2020 20:00:18 10.4 C 22 %
1417 27-03-2020 20:10:18 9.2 C 26 %
1418 27-03-2020 20:20:17 8.9 C 28 %
1419 27-03-2020 20:30:17 8.4 C 30 %
1420 27-03-2020 20:40:17 8.1 C 30 %
1421 27-03-2020 20:50:18 7.8 C 31 %
1422 27-03-2020 21:00:17 7.4 C 31 %
1423 27-03-2020 21:10:17 7.3 C 32 %
1424 27-03-2020 21:20:17 7.1 C 32 %
1425 27-03-2020 21:30:17 7 C 32 %
Sensor: Nr:Datum:Temp:Feuchte:
Aussen-T/F 1426 27-03-2020 21:40:17 6.6 C 33 %
1427 27-03-2020 21:50:17 6.6 C 34 %
1428 27-03-2020 22:00:17 6.4 C 34 %
1429 27-03-2020 22:10:17 6.3 C 34 %
1430 27-03-2020 22:20:17 6 C 35 %
1431 27-03-2020 22:30:18 5.8 C 35 %
1432 27-03-2020 22:40:18 5.6 C 35 %
1433 27-03-2020 22:50:18 5.5 C 36 %
1434 27-03-2020 23:00:18 5.6 C 36 %
1435 27-03-2020 23:10:18 5.6 C 36 %
1436 27-03-2020 23:20:17 5.3 C 36 %
1437 27-03-2020 23:30:17 5.2 C 36 %
1438 27-03-2020 23:40:17 5.1 C 36 %
1439 27-03-2020 23:50:17 4.8 C 37 %
1440 28-03-2020 00:00:17 4.8 C 38 %
1441 28-03-2020 00:10:17 4.8 C 39 %
1442 28-03-2020 00:20:17 5 C 37 %
1443 28-03-2020 00:30:18 4.9 C 38 %
1444 28-03-2020 00:40:18 4.7 C 38 %
1445 28-03-2020 00:50:17 4.7 C 38 %
1446 28-03-2020 01:00:17 4.6 C 38 %
1447 28-03-2020 01:10:17 4.4 C 39 %
1448 28-03-2020 01:20:17 4.3 C 39 %
1449 28-03-2020 01:30:17 4.1 C 39 %
1450 28-03-2020 01:40:18 3.9 C 40 %
Sensor: Nr:Datum:Temp:Feuchte:
Aussen-T/F 1451 28-03-2020 01:50:17 3.7 C 41 %
1452 28-03-2020 02:00:18 3.6 C 41 %
1453 28-03-2020 02:10:18 3.3 C 41 %
1454 28-03-2020 02:20:18 3.1 C 41 %
1455 28-03-2020 02:30:17 3.7 C 42 %
1456 28-03-2020 02:40:17 3.7 C 41 %
1457 28-03-2020 02:50:18 3.4 C 41 %
1458 28-03-2020 03:00:18 3.1 C 41 %
1459 28-03-2020 03:10:18 2.9 C 42 %
1460 28-03-2020 03:20:17 2.8 C 43 %
1461 28-03-2020 03:30:18 2.6 C 43 %
1462 28-03-2020 03:40:18 2.1 C 43 %
1463 28-03-2020 03:50:17 2.1 C 44 %
1464 28-03-2020 04:00:18 2.2 C 44 %
1465 28-03-2020 04:10:18 2.1 C 44 %
1466 28-03-2020 04:20:18 1.9 C 45 %
1467 28-03-2020 04:30:18 1.7 C 45 %
1468 28-03-2020 04:40:18 1.8 C 46 %
1469 28-03-2020 04:50:17 1.8 C 46 %
1470 28-03-2020 05:00:18 1.7 C 45 %
1471 28-03-2020 05:10:18 1.6 C 45 %
1472 28-03-2020 05:20:17 1.5 C 45 %
1473 28-03-2020 05:30:18 1.3 C 46 %
1474 28-03-2020 05:40:18 1.2 C 46 %
1475 28-03-2020 05:50:18 1.2 C 46 %
Sensor: Nr:Datum:Temp:Feuchte:
Aussen-T/F 1476 28-03-2020 06:00:18 1.2 C 46 %
1477 28-03-2020 06:10:18 1.3 C 46 %
1478 28-03-2020 06:20:17 1.1 C 46 %
1479 28-03-2020 06:30:17 1.1 C 46 %
1480 28-03-2020 06:40:17 1 C 46 %
1481 28-03-2020 06:50:17 1.2 C 47 %
1482 28-03-2020 07:00:17 1.5 C 47 %
1483 28-03-2020 07:10:17 1.7 C 47 %
1484 28-03-2020 07:20:17 1.9 C 47 %
1485 28-03-2020 07:30:18 1.9 C 46 %
1486 28-03-2020 07:40:18 1.9 C 46 %
1487 28-03-2020 07:50:17 2 C 45 %
1488 28-03-2020 08:00:17 2.2 C 45 %
1489 28-03-2020 08:10:18 2.5 C 45 %
1490 28-03-2020 08:20:18 2.8 C 46 %
1491 28-03-2020 08:30:17 3.2 C 45 %
1492 28-03-2020 08:40:17 3.7 C 44 %
1493 28-03-2020 08:50:18 4 C 43 %
1494 28-03-2020 09:00:18 4.6 C 43 %
1495 28-03-2020 09:10:18 5.1 C 41 %
1496 28-03-2020 09:20:17 5.7 C 41 %
1497 28-03-2020 09:30:18 6.3 C 40 %
1498 28-03-2020 09:40:18 6.9 C 40 %
1499 28-03-2020 09:50:18 7.8 C 38 %
1500 28-03-2020 10:00:18 8.4 C 37 %
Sensor: Nr:Datum:Temp:Feuchte:
Aussen-T/F 1501 28-03-2020 10:10:18 9.5 C 35 %
1502 28-03-2020 10:20:17 10.2 C 32 %
1503 28-03-2020 10:30:17 10.9 C 31 %
1504 28-03-2020 10:40:17 11.6 C 30 %
1505 28-03-2020 10:50:18 12.2 C 29 %
1506 28-03-2020 11:00:18 13.4 C 26 %
1507 28-03-2020 11:10:18 13.6 C 25 %
1508 28-03-2020 11:20:17 15.8 C 20 %
1509 28-03-2020 11:30:17 16.7 C 20 %
1510 28-03-2020 11:40:17 16.4 C 20 %
1511 28-03-2020 11:50:18 15.9 C 20 %
1512 28-03-2020 12:00:17 16.6 C 20 %
1513 28-03-2020 12:10:17 17 C 20 %
1514 28-03-2020 12:20:17 17.7 C 20 %
1515 28-03-2020 12:30:17 17.8 C 20 %
1516 28-03-2020 12:40:17 18.1 C 20 %
1517 28-03-2020 12:50:18 18 C 20 %
1518 28-03-2020 13:00:18 18.6 C 20 %
1519 28-03-2020 13:10:18 19.6 C 20 %
1520 28-03-2020 13:20:18 21.7 C 20 %
1521 28-03-2020 13:30:17 21.1 C 20 %
1522 28-03-2020 13:40:17 20.7 C 20 %
1523 28-03-2020 13:50:18 20.6 C 20 %
1524 28-03-2020 14:00:17 21.1 C 20 %
1525 28-03-2020 14:10:17 21.3 C 20 %
Sensor: Nr:Datum:Temp:Feuchte:
Aussen-T/F 1526 28-03-2020 14:20:17 21.9 C 20 %
1527 28-03-2020 14:30:17 23.7 C 20 %
1528 28-03-2020 14:40:17 24.3 C 20 %
1529 28-03-2020 14:50:17 23.2 C 20 %
1530 28-03-2020 15:00:18 22.4 C 20 %
1531 28-03-2020 15:10:18 19.9 C 20 %
1532 28-03-2020 15:20:18 18.6 C 20 %
1533 28-03-2020 15:30:18 19.6 C 20 %
1534 28-03-2020 15:40:18 22.1 C 20 %
1535 28-03-2020 15:50:18 20.5 C 20 %
1536 28-03-2020 16:00:18 21.1 C 20 %
1537 28-03-2020 16:10:18 21.1 C 20 %
1538 28-03-2020 16:20:18 19.9 C 20 %
1539 28-03-2020 16:30:18 19.6 C 20 %
1540 28-03-2020 16:40:18 19.6 C 20 %
1541 28-03-2020 16:50:18 18.5 C 20 %
1542 28-03-2020 17:00:18 17.9 C 20 %
1543 28-03-2020 17:10:18 17 C 20 %
1544 28-03-2020 17:20:18 16.6 C 20 %
1545 28-03-2020 17:30:18 16.2 C 20 %
1546 28-03-2020 17:40:18 16.2 C 20 %
1547 28-03-2020 17:50:17 15.4 C 20 %
1548 28-03-2020 18:00:18 14.9 C 20 %
1549 28-03-2020 18:10:18 14.6 C 20 %
1550 28-03-2020 18:20:17 14 C 20 %
Sensor: Nr:Datum:Temp:Feuchte:
Aussen-T/F 1551 28-03-2020 18:30:17 13.5 C 20 %
1552 28-03-2020 18:40:17 13.1 C 20 %
1553 28-03-2020 18:50:18 12.6 C 20 %
1554 28-03-2020 19:00:18 12.3 C 20 %
1555 28-03-2020 19:10:18 11.7 C 20 %
1556 28-03-2020 19:20:18 11.7 C 20 %
1557 28-03-2020 19:30:18 11.4 C 20 %
1558 28-03-2020 19:40:18 11.2 C 20 %
1559 28-03-2020 19:50:17 10.8 C 20 %
1560 28-03-2020 20:00:18 10.3 C 20 %
1561 28-03-2020 20:10:18 10.7 C 20 %
1562 28-03-2020 20:20:17 10.5 C 20 %
1563 28-03-2020 20:30:18 10 C 20 %
1564 28-03-2020 20:40:18 9.2 C 20 %
1565 28-03-2020 20:50:17 8.7 C 20 %
1566 28-03-2020 21:00:17 8.8 C 20 %
1567 28-03-2020 21:10:17 9.2 C 20 %
1568 28-03-2020 21:20:17 8.7 C 23 %
1569 28-03-2020 21:30:17 8.1 C 25 %
1570 28-03-2020 21:40:17 8.4 C 23 %
1571 28-03-2020 21:50:17 7.6 C 25 %
1572 28-03-2020 22:00:17 8.3 C 25 %
1573 28-03-2020 22:10:17 8.5 C 21 %
1574 28-03-2020 22:20:17 8.4 C 25 %
1575 28-03-2020 22:30:17 8.3 C 26 %
Sensor: Nr:Datum:Temp:Feuchte:
Aussen-T/F 1576 28-03-2020 22:40:17 7.9 C 26 %
1577 28-03-2020 22:50:17 7.4 C 28 %
1578 28-03-2020 23:00:17 7.3 C 30 %
1579 28-03-2020 23:10:17 7.2 C 30 %
1580 28-03-2020 23:20:18 7.1 C 30 %
1581 28-03-2020 23:30:18 7.1 C 31 %
1582 28-03-2020 23:40:18 6.8 C 32 %
1583 28-03-2020 23:50:17 6.7 C 33 %
1584 29-03-2020 00:00:18 6.5 C 33 %
1585 29-03-2020 00:10:18 6.4 C 33 %
1586 29-03-2020 00:20:17 6.2 C 33 %
1587 29-03-2020 00:30:17 6.5 C 33 %
1588 29-03-2020 00:40:17 6.6 C 33 %
1589 29-03-2020 00:50:18 6.5 C 32 %
1590 29-03-2020 01:00:18 6.3 C 32 %
1591 29-03-2020 01:10:18 6.3 C 32 %
1592 29-03-2020 01:20:17 6.2 C 32 %
1593 29-03-2020 01:30:17 6.1 C 32 %
1594 29-03-2020 01:40:17 6 C 31 %
1595 29-03-2020 01:50:17 6 C 31 %
1596 29-03-2020 02:00:17 5.8 C 31 %
1597 29-03-2020 02:10:17 5.7 C 31 %
1598 29-03-2020 02:20:18 5.4 C 31 %
1599 29-03-2020 02:30:18 5 C 31 %
1600 29-03-2020 02:40:18 4.7 C 32 %
Sensor: Nr:Datum:Temp:Feuchte:
Aussen-T/F 1601 29-03-2020 02:50:18 4.7 C 32 %
1602 29-03-2020 04:00:18 4.6 C 31 %
1603 29-03-2020 04:10:18 4.2 C 32 %
1604 29-03-2020 04:20:17 4.1 C 31 %
1605 29-03-2020 04:30:17 4.3 C 31 %
1606 29-03-2020 04:40:17 4.4 C 31 %
1607 29-03-2020 04:50:18 4.3 C 31 %
1608 29-03-2020 05:00:17 4.4 C 32 %
1609 29-03-2020 05:10:17 4.3 C 32 %
1610 29-03-2020 05:20:17 4.2 C 31 %
1611 29-03-2020 05:30:17 4 C 31 %
1612 29-03-2020 05:40:17 3.8 C 32 %
1613 29-03-2020 05:50:18 3.5 C 32 %
1614 29-03-2020 06:00:18 3.1 C 32 %
1615 29-03-2020 06:10:18 2.8 C 33 %
1616 29-03-2020 06:20:17 2.5 C 33 %
1617 29-03-2020 06:30:18 2.9 C 33 %
1618 29-03-2020 06:40:18 3.2 C 32 %
1619 29-03-2020 06:50:17 3.3 C 33 %
1620 29-03-2020 07:00:18 3.4 C 33 %
1621 29-03-2020 07:10:18 3.5 C 34 %
1622 29-03-2020 07:20:17 3.5 C 35 %
1623 29-03-2020 07:30:17 3.6 C 35 %
1624 29-03-2020 07:40:17 3.7 C 35 %
1625 29-03-2020 07:50:17 3.7 C 35 %
Sensor: Nr:Datum:Temp:Feuchte:
Aussen-T/F 1626 29-03-2020 08:00:18 3.8 C 35 %
1627 29-03-2020 08:10:18 3.8 C 35 %
1628 29-03-2020 08:20:17 4.1 C 33 %
1629 29-03-2020 08:30:17 4.1 C 33 %
1630 29-03-2020 08:40:17 4.3 C 33 %
1631 29-03-2020 08:50:17 4 C 33 %
1632 29-03-2020 09:00:17 4.3 C 33 %
1633 29-03-2020 09:10:17 4.2 C 32 %
1634 29-03-2020 09:20:17 4.1 C 33 %
1635 29-03-2020 09:30:17 4.2 C 33 %
1636 29-03-2020 09:40:17 4.5 C 32 %
1637 29-03-2020 09:50:17 4.8 C 32 %
1638 29-03-2020 10:00:17 5 C 31 %
1639 29-03-2020 10:10:17 5.3 C 31 %
1640 29-03-2020 10:20:17 5.8 C 30 %
1641 29-03-2020 10:30:18 5.6 C 30 %
1642 29-03-2020 10:40:18 6.2 C 30 %
1643 29-03-2020 10:50:17 6.2 C 28 %
1644 29-03-2020 11:00:18 6.5 C 25 %
1645 29-03-2020 11:10:18 6.5 C 25 %
1646 29-03-2020 11:20:18 6 C 25 %
1647 29-03-2020 11:30:18 6.1 C 25 %
1648 29-03-2020 11:40:18 6.2 C 25 %
1649 29-03-2020 11:50:17 6.3 C 25 %
1650 29-03-2020 12:00:17 6.2 C 25 %
Sensor: Nr:Datum:Temp:Feuchte:
Aussen-T/F 1651 29-03-2020 12:10:17 5.6 C 27 %
1652 29-03-2020 12:20:17 5.5 C 27 %
1653 29-03-2020 12:30:17 5.7 C 27 %
1654 29-03-2020 12:40:17 5.8 C 26 %
1655 29-03-2020 12:50:18 6.4 C 26 %
1656 29-03-2020 13:00:18 6.3 C 25 %
1657 29-03-2020 13:10:18 6.1 C 25 %
1658 29-03-2020 13:20:17 6.6 C 23 %
1659 29-03-2020 13:30:17 6.8 C 20 %
1660 29-03-2020 13:40:18 8.1 C 20 %
1661 29-03-2020 13:50:17 8.4 C 20 %
1662 29-03-2020 14:00:18 7.6 C 20 %
1663 29-03-2020 14:10:18 7.5 C 20 %
1664 29-03-2020 14:20:17 7 C 20 %
1665 29-03-2020 14:30:17 6.7 C 20 %
1666 29-03-2020 14:40:17 6.5 C 20 %
1667 29-03-2020 14:50:17 6.7 C 20 %
1668 29-03-2020 15:00:17 7.2 C 20 %
1669 29-03-2020 15:10:17 7.4 C 20 %
1670 29-03-2020 15:20:17 7.4 C 20 %
1671 29-03-2020 15:30:18 7.6 C 20 %
1672 29-03-2020 15:40:18 7.6 C 20 %
1673 29-03-2020 15:50:17 8 C 20 %
1674 29-03-2020 16:00:18 7.4 C 20 %
1675 29-03-2020 16:10:18 7 C 20 %
Sensor: Nr:Datum:Temp:Feuchte:
Aussen-T/F 1676 29-03-2020 16:20:17 6.7 C 20 %
1677 29-03-2020 16:30:18 6.5 C 20 %
1678 29-03-2020 16:40:18 6.6 C 20 %
1679 29-03-2020 16:50:18 6.8 C 20 %
1680 29-03-2020 17:00:18 7 C 20 %
1681 29-03-2020 17:10:18 6.8 C 20 %
1682 29-03-2020 17:20:17 7.4 C 20 %
1683 29-03-2020 17:30:17 7 C 20 %
1684 29-03-2020 17:40:17 7 C 20 %
1685 29-03-2020 17:50:18 6.8 C 25 %
1686 29-03-2020 18:00:18 7.1 C 23 %
1687 29-03-2020 18:10:18 6.5 C 25 %
1688 29-03-2020 18:20:18 6.2 C 25 %
1689 29-03-2020 18:30:18 5.3 C 29 %
1690 29-03-2020 18:40:18 4.4 C 35 %
1691 29-03-2020 18:50:18 4.1 C 36 %
1692 29-03-2020 19:00:18 4 C 36 %
1693 29-03-2020 19:10:18 3.6 C 39 %
1694 29-03-2020 19:20:17 3.6 C 40 %
1695 29-03-2020 19:30:17 3.4 C 40 %
1696 29-03-2020 19:40:17 3.2 C 41 %
1697 29-03-2020 19:50:17 3.1 C 41 %
1698 29-03-2020 20:00:17 3 C 41 %
1699 29-03-2020 20:10:17 3 C 41 %
1700 29-03-2020 20:20:18 2.9 C 42 %
Sensor: Nr:Datum:Temp:Feuchte:
Aussen-T/F 1701 29-03-2020 20:30:18 3 C 41 %
1702 29-03-2020 20:40:18 3.3 C 40 %
1703 29-03-2020 20:50:18 3.5 C 40 %
1704 29-03-2020 21:00:18 3.6 C 39 %
1705 29-03-2020 21:10:18 3.7 C 39 %
1706 29-03-2020 21:20:18 3.7 C 38 %
1707 29-03-2020 21:30:17 3.7 C 37 %
1708 29-03-2020 21:40:17 3.8 C 37 %
1709 29-03-2020 21:50:17 3.8 C 37 %
1710 29-03-2020 22:00:17 3.7 C 37 %
1711 29-03-2020 22:10:17 3.7 C 36 %
1712 29-03-2020 22:20:18 3.7 C 36 %
1713 29-03-2020 22:30:18 3.6 C 36 %
1714 29-03-2020 22:40:18 3.6 C 36 %
1715 29-03-2020 22:50:18 3.6 C 35 %
1716 29-03-2020 23:00:18 3.6 C 35 %
1717 29-03-2020 23:10:18 3.5 C 35 %
1718 29-03-2020 23:20:17 3.4 C 34 %
1719 29-03-2020 23:30:17 3.3 C 33 %
1720 29-03-2020 23:40:17 3.1 C 33 %
1721 29-03-2020 23:50:17 2.9 C 33 %
1722 30-03-2020 00:00:18 2.5 C 34 %
1723 30-03-2020 00:10:18 2.4 C 33 %
1724 30-03-2020 00:20:17 2.4 C 33 %
1725 30-03-2020 00:30:17 1.7 C 35 %
Sensor: Nr:Datum:Temp:Feuchte:
Aussen-T/F 1726 30-03-2020 00:40:17 1 C 36 %
1727 30-03-2020 00:50:17 0.3 C 38 %
1728 30-03-2020 01:00:18 0.2 C 38 %
1729 30-03-2020 01:10:18 0.3 C 38 %
1730 30-03-2020 01:20:17 0.3 C 37 %
1731 30-03-2020 01:30:18 0.5 C 36 %
1732 30-03-2020 01:40:18 -0.1 C 37 %
1733 30-03-2020 01:50:17 -0.3 C 37 %
1734 30-03-2020 02:00:17 -0.8 C 38 %
1735 30-03-2020 02:10:17 -0.9 C 38 %
1736 30-03-2020 02:20:17 -1.5 C 39 %
1737 30-03-2020 02:30:18 -1.7 C 39 %
1738 30-03-2020 02:40:18 -1.6 C 40 %
1739 30-03-2020 02:50:17 -1.6 C 39 %
1740 30-03-2020 03:00:18 -1.7 C 39 %
1741 30-03-2020 03:10:18 -1.3 C 38 %
1742 30-03-2020 03:20:18 -1.7 C 39 %
1743 30-03-2020 03:30:18 -2.2 C 40 %
1744 30-03-2020 03:40:18 -2.1 C 40 %
1745 30-03-2020 03:50:17 -2.1 C 40 %
1746 30-03-2020 04:00:18 -1.9 C 39 %
1747 30-03-2020 04:10:18 -2.2 C 39 %
1748 30-03-2020 04:20:17 -2 C 39 %
1749 30-03-2020 04:30:17 -2.4 C 39 %
1750 30-03-2020 04:40:17 -2.6 C 39 %
Sensor: Nr:Datum:Temp:Feuchte:
Aussen-T/F 1751 30-03-2020 04:50:17 -2.4 C 39 %
1752 30-03-2020 05:00:17 -2.4 C 38 %
1753 30-03-2020 05:10:17 -2.5 C 38 %
1754 30-03-2020 05:20:17 -2.7 C 38 %
1755 30-03-2020 05:30:18 -3 C 39 %
1756 30-03-2020 05:40:18 -3 C 38 %
1757 30-03-2020 05:50:17 -3 C 38 %
1758 30-03-2020 06:00:18 -3 C 38 %
1759 30-03-2020 06:10:18 -3.4 C 38 %
1760 30-03-2020 06:20:17 -3.7 C 39 %
1761 30-03-2020 06:30:17 -3.9 C 40 %
1762 30-03-2020 06:40:17 -4.1 C 40 %
1763 30-03-2020 06:50:17 -3.3 C 39 %
1764 30-03-2020 07:00:17 -3.7 C 40 %
1765 30-03-2020 07:10:17 -3.2 C 39 %
1766 30-03-2020 07:20:17 -3.8 C 39 %
1767 30-03-2020 07:30:18 -4.3 C 40 %
1768 30-03-2020 07:40:18 -4.5 C 40 %
1769 30-03-2020 07:50:17 -4.5 C 40 %
1770 30-03-2020 08:00:18 -3.8 C 40 %
1771 30-03-2020 08:10:18 -3.9 C 40 %
1772 30-03-2020 08:20:18 -4.1 C 40 %
1773 30-03-2020 08:30:18 -3.7 C 39 %
1774 30-03-2020 08:40:18 -3.3 C 39 %
1775 30-03-2020 08:50:17 -3.2 C 38 %
Sensor: Nr:Datum:Temp:Feuchte:
Aussen-T/F 1776 30-03-2020 09:00:18 -3.1 C 38 %
1777 30-03-2020 09:10:18 -2.7 C 37 %
1778 30-03-2020 09:20:18 -2.6 C 37 %
1779 30-03-2020 09:30:18 -2.5 C 37 %
1780 30-03-2020 09:40:18 -2.1 C 37 %
1781 30-03-2020 09:50:18 -2.1 C 37 %
1782 30-03-2020 10:00:18 -1.6 C 36 %
1783 30-03-2020 10:10:18 -1.7 C 37 %
1784 30-03-2020 10:20:17 -1.5 C 37 %
1785 30-03-2020 10:30:17 -1.3 C 36 %
1786 30-03-2020 10:40:17 0.1 C 31 %
1787 30-03-2020 10:50:17 1 C 21 %
1788 30-03-2020 11:00:17 1.1 C 23 %
1789 30-03-2020 11:10:18 2 C 20 %
1790 30-03-2020 11:20:18 2.4 C 20 %
1791 30-03-2020 11:30:18 2.8 C 20 %
1792 30-03-2020 11:40:18 2.9 C 20 %
1793 30-03-2020 11:50:18 3.2 C 20 %
1794 30-03-2020 12:00:18 3.7 C 20 %
1795 30-03-2020 12:10:18 4 C 20 %
1796 30-03-2020 12:20:18 6.4 C 20 %
1797 30-03-2020 12:30:18 7.6 C 20 %
1798 30-03-2020 12:40:18 6.3 C 20 %
1799 30-03-2020 12:50:18 5.1 C 20 %
1800 30-03-2020 13:00:18 6.6 C 20 %
Sensor: Nr:Datum:Temp:Feuchte:
Aussen-T/F 1801 30-03-2020 13:10:18 6.5 C 20 %
1802 30-03-2020 13:20:18 5.6 C 20 %
1803 30-03-2020 13:30:17 5.9 C 20 %
1804 30-03-2020 13:40:17 7 C 20 %
1805 30-03-2020 13:50:17 6.4 C 20 %
1806 30-03-2020 14:00:17 7.1 C 20 %
1807 30-03-2020 14:10:17 8.4 C 20 %
1808 30-03-2020 14:20:18 8.9 C 20 %
1809 30-03-2020 14:30:18 9.5 C 20 %
1810 30-03-2020 14:40:18 9.7 C 20 %
1811 30-03-2020 14:50:18 10.8 C 20 %
1812 30-03-2020 15:00:18 11.3 C 20 %
1813 30-03-2020 15:10:18 11.7 C 20 %
1814 30-03-2020 15:20:17 11.6 C 20 %
1815 30-03-2020 15:30:18 13.5 C 20 %
1816 30-03-2020 15:40:18 13.6 C 20 %
1817 30-03-2020 15:50:18 11.9 C 20 %
1818 30-03-2020 16:00:18 12.9 C 20 %
1819 30-03-2020 16:10:18 13.6 C 20 %
1820 30-03-2020 16:20:17 15.2 C 20 %
1821 30-03-2020 16:30:18 9.9 C 20 %
1822 30-03-2020 16:40:18 13.9 C 20 %
1823 30-03-2020 16:50:18 13.6 C 20 %
1824 30-03-2020 17:00:17 10.1 C 20 %
1825 30-03-2020 17:10:17 13.4 C 20 %
Sensor: Nr:Datum:Temp:Feuchte:
Aussen-T/F 1826 30-03-2020 17:20:18 12.5 C 20 %
1827 30-03-2020 17:30:18 12.6 C 20 %
1828 30-03-2020 17:40:18 11.6 C 20 %
1829 30-03-2020 17:50:18 10.2 C 20 %
1830 30-03-2020 18:00:18 8.7 C 20 %
1831 30-03-2020 18:10:18 7.6 C 20 %
1832 30-03-2020 18:20:18 7.9 C 20 %
1833 30-03-2020 18:30:18 8.2 C 20 %
1834 30-03-2020 18:40:18 7.7 C 20 %
1835 30-03-2020 18:50:18 7.8 C 20 %
1836 30-03-2020 19:00:18 7.3 C 20 %
1837 30-03-2020 19:10:18 7.1 C 20 %
1838 30-03-2020 19:20:17 6.5 C 20 %
1839 30-03-2020 19:30:18 6.3 C 20 %
1840 30-03-2020 19:40:18 5.8 C 20 %
1841 30-03-2020 19:50:17 5 C 20 %
1842 30-03-2020 20:00:18 3.8 C 27 %
1843 30-03-2020 20:10:18 3 C 30 %
1844 30-03-2020 20:20:17 2.8 C 30 %
1845 30-03-2020 20:30:18 3.3 C 31 %
1846 30-03-2020 20:40:18 3.2 C 30 %
1847 30-03-2020 20:50:18 3.3 C 31 %
1848 30-03-2020 21:00:18 4 C 29 %
1849 30-03-2020 21:10:18 4.1 C 29 %
1850 30-03-2020 21:20:18 4.2 C 30 %
Sensor: Nr:Datum:Temp:Feuchte:
Aussen-T/F 1851 30-03-2020 21:30:18 4.3 C 30 %
1852 30-03-2020 21:40:18 4.2 C 30 %
1853 30-03-2020 21:50:18 4.1 C 30 %
1854 30-03-2020 22:00:18 3.7 C 32 %
1855 30-03-2020 22:10:18 3.7 C 33 %
1856 30-03-2020 22:20:17 3.9 C 32 %
1857 30-03-2020 22:30:18 4 C 31 %
1858 30-03-2020 22:40:18 4.1 C 31 %
1859 30-03-2020 22:50:18 4.2 C 31 %
1860 30-03-2020 23:00:18 4.1 C 31 %
1861 30-03-2020 23:10:18 4.2 C 30 %
1862 30-03-2020 23:20:18 4.2 C 31 %
1863 30-03-2020 23:30:18 4.1 C 31 %
1864 30-03-2020 23:40:18 4.2 C 31 %
1865 30-03-2020 23:50:17 4.2 C 31 %
1866 31-03-2020 00:00:18 4.3 C 30 %
1867 31-03-2020 00:10:18 4.3 C 30 %
1868 31-03-2020 00:20:18 4.2 C 31 %
1869 31-03-2020 00:30:18 4.2 C 31 %
1870 31-03-2020 00:40:18 4.2 C 31 %
1871 31-03-2020 00:50:18 4.3 C 31 %
1872 31-03-2020 01:00:18 4.4 C 32 %
1873 31-03-2020 01:10:18 4 C 34 %
1874 31-03-2020 01:20:18 3.8 C 36 %
1875 31-03-2020 01:30:18 3.8 C 36 %
Sensor: Nr:Datum:Temp:Feuchte:
Aussen-T/F 1876 31-03-2020 01:40:18 3.7 C 37 %
1877 31-03-2020 01:50:18 4 C 37 %
1878 31-03-2020 02:00:18 3.9 C 38 %
1879 31-03-2020 02:10:18 3.4 C 39 %
1880 31-03-2020 02:20:17 3.5 C 39 %
1881 31-03-2020 02:30:18 3.7 C 39 %
1882 31-03-2020 02:40:18 3.3 C 40 %
1883 31-03-2020 02:50:18 2.8 C 41 %
1884 31-03-2020 03:00:18 2.5 C 41 %
1885 31-03-2020 03:10:18 2.2 C 42 %
1886 31-03-2020 03:20:17 2.4 C 42 %
1887 31-03-2020 03:30:18 2.3 C 42 %
1888 31-03-2020 03:40:18 2.3 C 43 %
1889 31-03-2020 03:50:18 2.7 C 43 %
1890 31-03-2020 04:00:18 2.9 C 42 %
1891 31-03-2020 04:10:18 3 C 42 %
1892 31-03-2020 04:20:18 3.1 C 42 %
1893 31-03-2020 04:30:17 3.2 C 42 %
1894 31-03-2020 04:40:18 3.2 C 41 %
1895 31-03-2020 04:50:17 3.5 C 41 %
1896 31-03-2020 05:00:18 3.4 C 41 %
1897 31-03-2020 05:10:18 3 C 41 %
1898 31-03-2020 05:20:17 2.8 C 43 %
1899 31-03-2020 05:30:18 2.5 C 43 %
1900 31-03-2020 05:40:18 2.3 C 43 %
Sensor: Nr:Datum:Temp:Feuchte:
Aussen-T/F 1901 31-03-2020 05:50:18 1.9 C 44 %
1902 31-03-2020 06:00:18 1.7 C 44 %
1903 31-03-2020 06:10:18 1.6 C 45 %
1904 31-03-2020 06:20:18 1.5 C 45 %
1905 31-03-2020 06:30:18 1.7 C 45 %
1906 31-03-2020 06:40:18 2 C 45 %
1907 31-03-2020 06:50:18 2.1 C 45 %
1908 31-03-2020 07:00:18 2.2 C 45 %
1909 31-03-2020 07:10:18 2.3 C 45 %
1910 31-03-2020 07:20:18 2.2 C 44 %
1911 31-03-2020 07:30:18 2.1 C 44 %
1912 31-03-2020 07:40:18 1.7 C 45 %
1913 31-03-2020 07:50:17 2 C 45 %
1914 31-03-2020 08:00:18 2.5 C 45 %
1915 31-03-2020 08:10:18 3.1 C 43 %
1916 31-03-2020 08:20:18 3.3 C 42 %
1917 31-03-2020 08:30:18 3.5 C 41 %
1918 31-03-2020 08:40:18 3.7 C 40 %
1919 31-03-2020 08:50:17 4 C 38 %
1920 31-03-2020 09:00:18 3.9 C 38 %
1921 31-03-2020 09:10:18 3.9 C 37 %
1922 31-03-2020 09:20:18 4 C 36 %
1923 31-03-2020 09:30:17 4 C 36 %
1924 31-03-2020 09:40:17 4.1 C 35 %
1925 31-03-2020 09:50:18 4.3 C 35 %
Sensor: Nr:Datum:Temp:Feuchte:
Aussen-T/F 1926 31-03-2020 10:00:18 4.8 C 34 %
1927 31-03-2020 10:10:18 4.7 C 34 %
1928 31-03-2020 10:20:18 4.5 C 34 %
1929 31-03-2020 10:30:18 4.4 C 34 %
1930 31-03-2020 10:40:18 4.3 C 34 %
1931 31-03-2020 10:50:17 4.3 C 33 %
1932 31-03-2020 11:00:17 4.3 C 33 %
1933 31-03-2020 11:10:17 4.4 C 32 %
1934 31-03-2020 11:20:18 4.7 C 31 %
1935 31-03-2020 11:30:18 5.4 C 30 %
1936 31-03-2020 11:40:18 5.3 C 30 %
1937 31-03-2020 11:50:17 5.3 C 29 %
1938 31-03-2020 12:00:18 5.6 C 27 %
1939 31-03-2020 12:10:18 6.3 C 25 %
1940 31-03-2020 12:20:17 6.4 C 20 %
1941 31-03-2020 12:30:18 9.2 C 20 %
1942 31-03-2020 12:40:18 8.4 C 20 %
1943 31-03-2020 12:50:18 7 C 20 %
1944 31-03-2020 13:00:17 7.5 C 20 %
1945 31-03-2020 13:10:17 7.1 C 20 %
1946 31-03-2020 13:20:17 7.3 C 20 %
1947 31-03-2020 13:30:17 7 C 20 %
1948 31-03-2020 13:40:17 8.1 C 20 %
1949 31-03-2020 13:51:17 8.4 C 20 %
1950 31-03-2020 14:00:17 8.5 C 20 %
Sensor: Nr:Datum:Temp:Feuchte:
Aussen-T/F 1951 31-03-2020 14:10:17 9.7 C 20 %
1952 31-03-2020 14:20:17 11.2 C 20 %
1953 31-03-2020 14:30:17 12.6 C 20 %
1954 31-03-2020 14:40:17 11.7 C 20 %
1955 31-03-2020 14:51:17 12 C 20 %
1956 31-03-2020 15:00:17 12 C 20 %
1957 31-03-2020 15:10:18 13.1 C 20 %
1958 31-03-2020 15:20:17 13.2 C 20 %
1959 31-03-2020 15:30:17 13.5 C 20 %
1960 31-03-2020 15:40:17 14.6 C 20 %
1961 31-03-2020 15:50:18 13.9 C 20 %
1962 31-03-2020 16:00:17 16.8 C 20 %
1963 31-03-2020 16:10:17 14.8 C 20 %
1964 31-03-2020 16:20:17 15.8 C 20 %
1965 31-03-2020 16:31:17 15.1 C 20 %
1966 31-03-2020 16:40:17 14 C 20 %
1967 31-03-2020 16:50:17 13.3 C 20 %
1968 31-03-2020 17:00:17 14.4 C 20 %
1969 31-03-2020 17:10:17 16.2 C 20 %
1970 31-03-2020 17:21:17 15.3 C 20 %
1971 31-03-2020 17:31:17 14.7 C 20 %
1972 31-03-2020 17:40:17 15.5 C 20 %
1973 31-03-2020 17:51:17 10.6 C 20 %
1974 31-03-2020 18:01:17 10.5 C 20 %
1975 31-03-2020 18:11:17 10.2 C 20 %
Sensor: Nr:Datum:Temp:Feuchte:
Aussen-T/F 1976 31-03-2020 18:21:17 9.8 C 20 %
1977 31-03-2020 18:31:17 9.6 C 20 %
1978 31-03-2020 18:40:17 9.4 C 20 %
1979 31-03-2020 18:51:17 9.1 C 20 %
1980 31-03-2020 19:00:17 9.1 C 20 %
1981 31-03-2020 19:10:17 8.8 C 20 %
1982 31-03-2020 19:20:17 8.7 C 20 %
1983 31-03-2020 19:31:17 8.2 C 20 %
1984 31-03-2020 19:41:17 7.7 C 20 %
1985 31-03-2020 19:50:17 6.6 C 20 %
1986 31-03-2020 20:01:17 5.6 C 20 %
1987 31-03-2020 20:11:17 5.5 C 20 %
1988 31-03-2020 20:21:17 5.3 C 20 %
1989 31-03-2020 20:31:17 4.7 C 20 %
1990 31-03-2020 20:41:17 4.4 C 20 %
1991 31-03-2020 20:51:17 4 C 20 %
1992 31-03-2020 21:00:17 3.7 C 20 %
1993 31-03-2020 21:10:18 3.9 C 20 %
1994 31-03-2020 21:21:17 3.7 C 20 %
1995 31-03-2020 21:31:17 3.5 C 20 %
1996 31-03-2020 21:41:17 3.2 C 23 %
1997 31-03-2020 21:51:17 3.2 C 23 %
1998 31-03-2020 22:00:18 3 C 23 %
1999 31-03-2020 22:10:18 2.7 C 25 %
2000 31-03-2020 22:21:17 2.7 C 25 %
Sensor: Nr:Datum:Temp:Feuchte:
Aussen-T/F 2001 31-03-2020 22:31:17 2.6 C 25 %
2002 31-03-2020 22:41:17 1.8 C 30 %
2003 31-03-2020 22:50:18 1.6 C 30 %
2004 31-03-2020 23:01:17 1.6 C 30 %
2005 31-03-2020 23:11:17 1.7 C 30 %
2006 31-03-2020 23:21:17 1.4 C 31 %
2007 31-03-2020 23:30:17 1.3 C 31 %
2008 31-03-2020 23:40:18 1.6 C 31 %
2009 31-03-2020 23:51:17 0.9 C 32 %
2010 01-04-2020 00:01:17 1.2 C 31 %
2011 01-04-2020 00:11:17 0 C 35 %
2012 01-04-2020 00:21:17 0.8 C 33 %
2013 01-04-2020 00:31:17 0.6 C 32 %
2014 01-04-2020 00:41:17 0.5 C 33 %
2015 01-04-2020 00:51:17 -0.3 C 35 %
2016 01-04-2020 01:01:17 -0.1 C 36 %
2017 01-04-2020 01:11:17 -0.3 C 35 %
2018 01-04-2020 01:21:17 -1 C 37 %
2019 01-04-2020 01:30:18 -1.4 C 38 %
2020 01-04-2020 01:40:18 -1.7 C 38 %
2021 01-04-2020 01:51:17 -1.9 C 38 %
2022 01-04-2020 02:01:17 -1.9 C 38 %
2023 01-04-2020 02:11:17 -2 C 38 %
2024 01-04-2020 02:21:17 -2.1 C 38 %
2025 01-04-2020 02:31:17 -2.3 C 39 %
Sensor: Nr:Datum:Temp:Feuchte:
Aussen-T/F 2026 01-04-2020 02:41:17 -2.4 C 38 %
2027 01-04-2020 02:50:18 -2.4 C 39 %
2028 01-04-2020 03:01:17 -2.5 C 38 %
2029 01-04-2020 03:11:17 -2.6 C 38 %
2030 01-04-2020 03:21:17 -2.8 C 39 %
2031 01-04-2020 03:31:17 -2.7 C 38 %
2032 01-04-2020 03:41:18 -3 C 38 %
2033 01-04-2020 03:51:17 -3 C 39 %
2034 01-04-2020 04:01:17 -2.8 C 39 %
2035 01-04-2020 04:11:17 -3.1 C 38 %
2036 01-04-2020 04:21:17 -3.2 C 39 %
2037 01-04-2020 04:31:18 -3.5 C 38 %
2038 01-04-2020 04:41:19 -3.4 C 39 %
2039 01-04-2020 04:51:17 -3.5 C 39 %
2040 01-04-2020 05:01:18 -3.6 C 39 %
2041 01-04-2020 05:11:19 -3.8 C 40 %
2042 01-04-2020 05:21:17 -3.8 C 40 %
2043 01-04-2020 05:31:18 -3.8 C 40 %
2044 01-04-2020 05:41:18 -4 C 40 %
2045 01-04-2020 05:51:17 -4.2 C 40 %
2046 01-04-2020 06:01:18 -4.2 C 40 %
2047 01-04-2020 06:11:18 -4 C 40 %
2048 01-04-2020 06:21:17 -4.2 C 40 %
2049 01-04-2020 06:31:17 -4.2 C 41 %
2050 01-04-2020 06:41:17 -4.3 C 41 %
Sensor: Nr:Datum:Temp:Feuchte:
Aussen-T/F 2051 01-04-2020 06:51:17 -4.5 C 41 %
2052 01-04-2020 07:01:18 -4.6 C 41 %
2053 01-04-2020 07:11:19 -4.7 C 41 %
2054 01-04-2020 07:21:17 -4.5 C 41 %
2055 01-04-2020 07:31:18 -4.4 C 41 %
2056 01-04-2020 07:41:18 -4.5 C 41 %
2057 01-04-2020 07:51:17 -4.3 C 41 %
2058 01-04-2020 08:01:17 -4.2 C 41 %
2059 01-04-2020 08:11:17 -4.2 C 41 %
2060 01-04-2020 08:21:17 -3.7 C 41 %
2061 01-04-2020 08:31:17 -3.8 C 41 %
2062 01-04-2020 08:41:17 -3.7 C 41 %
2063 01-04-2020 08:51:17 -3.4 C 40 %
2064 01-04-2020 09:01:17 -3.4 C 40 %
2065 01-04-2020 09:11:17 -2.7 C 40 %
2066 01-04-2020 09:21:17 -2.6 C 40 %
2067 01-04-2020 09:31:17 -2.5 C 40 %
2068 01-04-2020 09:41:17 -2.1 C 40 %
2069 01-04-2020 09:51:17 -1.5 C 39 %
2070 01-04-2020 10:01:17 -1 C 39 %
2071 01-04-2020 10:11:17 -0.9 C 40 %
2072 01-04-2020 10:21:17 -0.4 C 40 %
2073 01-04-2020 10:31:18 0.5 C 39 %
2074 01-04-2020 10:41:18 1 C 37 %
2075 01-04-2020 10:51:17 1.6 C 36 %
Sensor: Nr:Datum:Temp:Feuchte:
Aussen-T/F 2076 01-04-2020 11:01:17 2.4 C 35 %
2077 01-04-2020 11:11:17 3.2 C 33 %
2078 01-04-2020 11:21:17 4.2 C 29 %
2079 01-04-2020 11:31:17 4.8 C 20 %
2080 01-04-2020 11:41:17 5.3 C 20 %
2081 01-04-2020 11:51:17 6 C 20 %
2082 01-04-2020 12:01:17 6.6 C 20 %
2083 01-04-2020 12:11:18 7.1 C 20 %
2084 01-04-2020 12:21:17 8.9 C 20 %
2085 01-04-2020 12:31:17 10.3 C 20 %
2086 01-04-2020 12:41:17 9.2 C 20 %
2087 01-04-2020 12:51:17 8 C 20 %
2088 01-04-2020 13:01:17 9.3 C 20 %
2089 01-04-2020 13:11:17 9.3 C 20 %
2090 01-04-2020 13:21:16 8.6 C 20 %
2091 01-04-2020 13:31:17 9.2 C 20 %
2092 01-04-2020 13:41:17 9.6 C 20 %
2093 01-04-2020 13:51:17 10 C 20 %
2094 01-04-2020 14:01:17 10.3 C 20 %
2095 01-04-2020 14:11:17 10.7 C 20 %
2096 01-04-2020 14:21:17 13.2 C 20 %
2097 01-04-2020 14:31:16 15.9 C 20 %
2098 01-04-2020 14:41:16 16.3 C 20 %
2099 01-04-2020 14:51:17 13.7 C 20 %
2100 01-04-2020 15:01:17 14.2 C 20 %
Sensor: Nr:Datum:Temp:Feuchte:
Aussen-T/F 2101 01-04-2020 15:11:17 17.2 C 20 %
2102 01-04-2020 15:21:17 16.8 C 20 %
2103 01-04-2020 15:31:16 16.3 C 20 %
2104 01-04-2020 15:41:16 18.2 C 20 %
2105 01-04-2020 15:51:17 19.5 C 20 %
2106 01-04-2020 16:01:16 18.7 C 20 %
2107 01-04-2020 16:11:16 18.7 C 20 %
2108 01-04-2020 16:21:16 19.7 C 20 %
2109 01-04-2020 16:31:17 21.3 C 20 %
2110 01-04-2020 16:41:17 15.5 C 20 %
2111 01-04-2020 16:51:16 18.4 C 20 %
2112 01-04-2020 17:01:16 17.2 C 20 %
2113 01-04-2020 17:11:16 17.4 C 20 %
2114 01-04-2020 17:21:17 17.7 C 20 %
2115 01-04-2020 17:31:17 18.5 C 20 %
2116 01-04-2020 17:41:17 16.8 C 20 %
2117 01-04-2020 17:51:17 15.8 C 20 %
2118 01-04-2020 18:01:17 12.6 C 20 %
2119 01-04-2020 18:11:17 12 C 20 %
2120 01-04-2020 18:21:16 12.1 C 20 %
2121 01-04-2020 18:31:17 11.7 C 20 %
2122 01-04-2020 18:41:17 11.8 C 20 %
2123 01-04-2020 18:51:16 11.6 C 20 %
2124 01-04-2020 19:01:17 11 C 20 %
2125 01-04-2020 19:11:17 10.7 C 20 %
Sensor: Nr:Datum:Temp:Feuchte:
Aussen-T/F 2126 01-04-2020 19:21:17 10.4 C 20 %
2127 01-04-2020 19:31:17 9.9 C 20 %
2128 01-04-2020 19:41:17 9.6 C 20 %
2129 01-04-2020 19:51:16 8.9 C 20 %
2130 01-04-2020 20:01:17 8.1 C 20 %
2131 01-04-2020 20:11:17 7.8 C 20 %
2132 01-04-2020 20:21:16 8.1 C 20 %
2133 01-04-2020 20:31:16 7.1 C 20 %
2134 01-04-2020 20:41:16 6.2 C 20 %
2135 01-04-2020 20:51:16 5.9 C 20 %
2136 01-04-2020 21:01:16 6 C 20 %
2137 01-04-2020 21:11:16 6 C 20 %
2138 01-04-2020 21:21:16 5.7 C 20 %
2139 01-04-2020 21:31:16 5.7 C 20 %
2140 01-04-2020 21:41:16 5.4 C 20 %
2141 01-04-2020 21:51:16 4 C 21 %
2142 01-04-2020 22:01:16 4.2 C 21 %
2143 01-04-2020 22:11:16 3.7 C 26 %
2144 01-04-2020 22:21:16 3.2 C 26 %
2145 01-04-2020 22:31:16 2.5 C 29 %
2146 01-04-2020 22:41:16 2.6 C 28 %
2147 01-04-2020 22:51:16 2 C 30 %
2148 01-04-2020 23:01:17 1.7 C 33 %
2149 01-04-2020 23:11:17 1.7 C 32 %
2150 01-04-2020 23:21:16 1.4 C 34 %
Sensor: Nr:Datum:Temp:Feuchte:
Aussen-T/F 2151 01-04-2020 23:31:16 1.2 C 34 %
2152 01-04-2020 23:41:16 1 C 35 %
2153 01-04-2020 23:51:16 1.1 C 34 %
2154 02-04-2020 00:01:17 1 C 35 %
2155 02-04-2020 00:11:17 0.4 C 36 %
2156 02-04-2020 00:21:16 0.4 C 36 %
2157 02-04-2020 00:31:17 0.2 C 36 %
2158 02-04-2020 00:41:17 0.3 C 37 %
2159 02-04-2020 00:51:16 0.3 C 36 %
2160 02-04-2020 01:01:17 0 C 37 %
2161 02-04-2020 01:11:17 -0.4 C 38 %
2162 02-04-2020 01:21:16 -0.6 C 38 %
2163 02-04-2020 01:31:17 -0.7 C 38 %
2164 02-04-2020 01:41:17 -0.7 C 38 %
2165 02-04-2020 01:51:16 -0.9 C 39 %
2166 02-04-2020 02:01:16 -1 C 39 %
2167 02-04-2020 02:11:16 -1 C 39 %
2168 02-04-2020 02:21:16 -1.2 C 39 %
2169 02-04-2020 02:31:17 -1.3 C 40 %
2170 02-04-2020 02:41:17 -1.6 C 40 %
2171 02-04-2020 02:51:17 -1.5 C 40 %
2172 02-04-2020 03:01:17 -1.5 C 40 %
2173 02-04-2020 03:11:17 -1.5 C 40 %
2174 02-04-2020 03:21:17 -1.3 C 40 %
2175 02-04-2020 03:31:17 -1.4 C 40 %
Sensor: Nr:Datum:Temp:Feuchte:
Aussen-T/F 2176 02-04-2020 03:41:17 -1.6 C 40 %
2177 02-04-2020 03:51:18 -1.7 C 40 %
2178 02-04-2020 04:01:18 -2.1 C 40 %
2179 02-04-2020 04:11:18 -1.7 C 41 %
2180 02-04-2020 04:21:18 -1.6 C 40 %
2181 02-04-2020 04:31:17 -2 C 40 %
2182 02-04-2020 04:41:17 -2.4 C 41 %
2183 02-04-2020 04:51:17 -2.7 C 41 %
2184 02-04-2020 05:01:18 -2.6 C 41 %
2185 02-04-2020 05:11:18 -2.6 C 41 %
2186 02-04-2020 05:21:17 -2.6 C 41 %
2187 02-04-2020 05:31:18 -2.7 C 41 %
2188 02-04-2020 05:41:18 -2.6 C 41 %
2189 02-04-2020 05:51:17 -2.5 C 41 %
2190 02-04-2020 06:01:17 -2.6 C 41 %
2191 02-04-2020 06:11:17 -3 C 41 %
2192 02-04-2020 06:21:17 -3 C 42 %
2193 02-04-2020 06:31:17 -2.6 C 43 %
2194 02-04-2020 06:41:17 -3.1 C 42 %
2195 02-04-2020 06:51:17 -2.9 C 42 %
2196 02-04-2020 07:01:17 -3.3 C 42 %
2197 02-04-2020 07:11:17 -3 C 42 %
2198 02-04-2020 07:21:17 -3.1 C 42 %
2199 02-04-2020 07:31:17 -3 C 43 %
2200 02-04-2020 07:41:18 -2.9 C 42 %
Sensor: Nr:Datum:Temp:Feuchte:
Aussen-T/F 2201 02-04-2020 07:51:17 -3 C 43 %
2202 02-04-2020 08:01:17 -2.7 C 43 %
2203 02-04-2020 08:11:18 -2.5 C 43 %
2204 02-04-2020 08:21:17 -2.2 C 42 %
2205 02-04-2020 08:31:17 -2.2 C 42 %
2206 02-04-2020 08:41:17 -2 C 42 %
2207 02-04-2020 08:51:17 -1.8 C 42 %
2208 02-04-2020 09:01:17 -1.7 C 42 %
2209 02-04-2020 09:11:17 -1.5 C 41 %
2210 02-04-2020 09:21:17 -1.3 C 41 %
2211 02-04-2020 09:31:17 -1 C 41 %
2212 02-04-2020 09:41:17 -0.6 C 41 %
2213 02-04-2020 09:51:18 -0.3 C 41 %
2214 02-04-2020 10:01:18 0.1 C 41 %
2215 02-04-2020 10:11:18 0.6 C 41 %
2216 02-04-2020 10:21:17 0.8 C 41 %
2217 02-04-2020 10:31:17 1.7 C 40 %
2218 02-04-2020 10:41:17 2.2 C 39 %
2219 02-04-2020 10:51:17 3.1 C 37 %
2220 02-04-2020 11:01:17 3.6 C 37 %
2221 02-04-2020 11:11:17 4.6 C 35 %
2222 02-04-2020 11:21:17 5.7 C 30 %
2223 02-04-2020 11:31:18 6.5 C 30 %
2224 02-04-2020 11:41:18 6.9 C 29 %
2225 02-04-2020 11:51:17 7.4 C 27 %
Sensor: Nr:Datum:Temp:Feuchte:
Aussen-T/F 2226 02-04-2020 12:01:17 8.1 C 27 %
2227 02-04-2020 12:11:17 8.5 C 25 %
2228 02-04-2020 12:21:17 10.5 C 20 %
2229 02-04-2020 12:31:18 12.2 C 20 %
2230 02-04-2020 12:41:18 10.8 C 20 %
2231 02-04-2020 12:51:17 10.3 C 20 %
2232 02-04-2020 13:01:17 11 C 20 %
2233 02-04-2020 13:11:18 11.5 C 20 %
2234 02-04-2020 13:21:17 11.6 C 20 %
2235 02-04-2020 13:31:17 11.4 C 20 %
2236 02-04-2020 13:41:17 12.3 C 20 %
2237 02-04-2020 13:51:17 12.5 C 20 %
2238 02-04-2020 14:01:17 11.8 C 20 %
2239 02-04-2020 14:11:17 12.6 C 20 %
2240 02-04-2020 14:21:17 15.5 C 20 %
2241 02-04-2020 14:31:18 18.1 C 20 %
2242 02-04-2020 14:41:18 18.3 C 20 %
2243 02-04-2020 14:51:17 18.3 C 20 %
2244 02-04-2020 15:01:18 19.7 C 20 %
2245 02-04-2020 15:11:18 17.5 C 20 %
2246 02-04-2020 15:21:17 19.2 C 20 %
2247 02-04-2020 15:31:18 19.8 C 20 %
2248 02-04-2020 15:41:18 19.3 C 20 %
2249 02-04-2020 15:51:17 19.4 C 20 %
2250 02-04-2020 16:01:17 21.3 C 20 %
Sensor: Nr:Datum:Temp:Feuchte:
Aussen-T/F 2251 02-04-2020 16:11:17 19.9 C 20 %
2252 02-04-2020 16:21:17 16.6 C 20 %
2253 02-04-2020 16:31:18 18 C 20 %
2254 02-04-2020 16:41:18 17.6 C 20 %
2255 02-04-2020 16:51:17 17.8 C 20 %
2256 02-04-2020 17:01:17 17.3 C 20 %
2257 02-04-2020 17:11:17 16.6 C 20 %
2258 02-04-2020 17:21:17 15.8 C 20 %
2259 02-04-2020 17:31:18 15.5 C 20 %
2260 02-04-2020 17:41:18 14.7 C 20 %
2261 02-04-2020 17:51:17 14.8 C 20 %
2262 02-04-2020 18:01:17 12.8 C 20 %
2263 02-04-2020 18:11:17 12.2 C 20 %
2264 02-04-2020 18:21:17 12.3 C 20 %
2265 02-04-2020 18:31:17 11.8 C 20 %
2266 02-04-2020 18:41:17 11.3 C 20 %
2267 02-04-2020 18:51:17 11.1 C 20 %
2268 02-04-2020 19:01:17 10.7 C 20 %
2269 02-04-2020 19:11:17 10.2 C 20 %
2270 02-04-2020 19:21:17 10 C 20 %
2271 02-04-2020 19:31:17 9.6 C 20 %
2272 02-04-2020 19:41:17 9.5 C 20 %
2273 02-04-2020 19:51:17 8.7 C 20 %
2274 02-04-2020 20:01:17 8.5 C 20 %
2275 02-04-2020 20:11:17 8.5 C 20 %
Sensor: Nr:Datum:Temp:Feuchte:
Aussen-T/F 2276 02-04-2020 20:21:17 7.9 C 20 %
2277 02-04-2020 20:31:17 7.8 C 20 %
2278 02-04-2020 20:41:17 7.2 C 21 %
2279 02-04-2020 20:51:17 6.9 C 25 %
2280 02-04-2020 21:01:17 6.4 C 26 %
2281 02-04-2020 21:11:17 6.3 C 27 %
2282 02-04-2020 21:21:17 5.9 C 28 %
2283 02-04-2020 21:31:18 5.7 C 29 %
2284 02-04-2020 21:41:18 5.6 C 30 %
2285 02-04-2020 21:51:17 5.3 C 30 %
2286 02-04-2020 22:01:17 5.2 C 30 %
2287 02-04-2020 22:11:17 5.5 C 30 %
2288 02-04-2020 22:21:17 5 C 30 %
2289 02-04-2020 22:31:18 5.3 C 31 %
2290 02-04-2020 22:41:18 5.2 C 31 %
2291 02-04-2020 22:51:17 5.1 C 31 %
2292 02-04-2020 23:01:17 4.8 C 32 %
2293 02-04-2020 23:11:17 5 C 31 %
2294 02-04-2020 23:21:17 5 C 31 %
2295 02-04-2020 23:31:18 4.7 C 33 %
2296 02-04-2020 23:41:18 3.9 C 35 %
2297 02-04-2020 23:51:17 3.1 C 36 %
2298 03-04-2020 00:01:18 2.7 C 38 %
2299 03-04-2020 00:11:18 2.3 C 39 %
2300 03-04-2020 00:21:17 2.6 C 40 %
Sensor: Nr:Datum:Temp:Feuchte:
Aussen-T/F 2301 03-04-2020 00:31:17 2.6 C 39 %
2302 03-04-2020 00:41:17 3.2 C 38 %
2303 03-04-2020 00:51:17 2.4 C 39 %
2304 03-04-2020 01:01:18 2.4 C 39 %
2305 03-04-2020 01:11:18 2.4 C 39 %
2306 03-04-2020 01:21:17 2.6 C 39 %
2307 03-04-2020 01:31:18 2.7 C 39 %
2308 03-04-2020 01:41:18 2.5 C 39 %
2309 03-04-2020 01:51:17 2.3 C 39 %
2310 03-04-2020 02:01:18 2.2 C 39 %
2311 03-04-2020 02:11:18 2.3 C 39 %
2312 03-04-2020 02:21:18 3.1 C 38 %
2313 03-04-2020 02:31:18 3.2 C 38 %
2314 03-04-2020 02:41:18 2.6 C 39 %
2315 03-04-2020 02:51:17 2.8 C 39 %
2316 03-04-2020 03:01:18 3 C 38 %
2317 03-04-2020 03:11:18 3.6 C 38 %
2318 03-04-2020 03:21:17 3.9 C 38 %
2319 03-04-2020 03:31:17 4.4 C 36 %
2320 03-04-2020 03:41:17 4.7 C 36 %
2321 03-04-2020 03:51:17 4.6 C 36 %
2322 03-04-2020 04:01:17 5 C 35 %
2323 03-04-2020 04:11:17 5.6 C 35 %
2324 03-04-2020 04:21:17 4.9 C 35 %
2325 03-04-2020 04:31:18 4.7 C 36 %
Sensor: Nr:Datum:Temp:Feuchte:
Aussen-T/F 2326 03-04-2020 04:41:18 4.6 C 36 %
2327 03-04-2020 04:51:18 4.4 C 36 %
2328 03-04-2020 05:01:18 4.3 C 36 %
2329 03-04-2020 05:11:18 4.5 C 36 %
2330 03-04-2020 05:21:17 4.8 C 36 %
2331 03-04-2020 05:31:17 4.8 C 36 %
2332 03-04-2020 05:41:17 5.2 C 35 %
2333 03-04-2020 05:51:17 5.3 C 35 %
2334 03-04-2020 06:01:18 5.4 C 35 %
2335 03-04-2020 06:11:18 5.4 C 35 %
2336 03-04-2020 06:21:17 5.1 C 35 %
2337 03-04-2020 06:31:17 5.1 C 36 %
2338 03-04-2020 06:41:17 5.1 C 35 %
2339 03-04-2020 06:51:17 5.2 C 35 %
2340 03-04-2020 07:01:17 5.7 C 35 %
2341 03-04-2020 07:11:17 5.6 C 35 %
2342 03-04-2020 07:21:18 5.5 C 35 %
2343 03-04-2020 07:31:17 5.7 C 35 %
2344 03-04-2020 07:41:17 5.6 C 35 %
2345 03-04-2020 07:51:17 5.6 C 35 %
2346 03-04-2020 08:01:17 5.7 C 35 %
2347 03-04-2020 08:11:17 5.9 C 35 %
2348 03-04-2020 08:21:18 5.9 C 35 %
2349 03-04-2020 08:31:17 5.9 C 35 %
2350 03-04-2020 08:41:17 6.1 C 35 %
Sensor: Nr:Datum:Temp:Feuchte:
Aussen-T/F 2351 03-04-2020 08:51:18 6.6 C 35 %
2352 03-04-2020 09:01:17 7 C 34 %
2353 03-04-2020 09:11:17 7.1 C 34 %
2354 03-04-2020 09:21:18 7.6 C 34 %
2355 03-04-2020 09:31:18 7.7 C 34 %
2356 03-04-2020 09:41:18 8 C 33 %
2357 03-04-2020 09:51:17 8.4 C 33 %
2358 03-04-2020 10:01:18 8.6 C 32 %
2359 03-04-2020 10:11:18 8.6 C 32 %
2360 03-04-2020 10:21:17 9 C 32 %
2361 03-04-2020 10:31:18 9.4 C 32 %
2362 03-04-2020 10:41:18 9.2 C 32 %
2363 03-04-2020 10:51:17 9.6 C 32 %
2364 03-04-2020 11:01:17 10.6 C 31 %
2365 03-04-2020 11:11:17 11.2 C 29 %
2366 03-04-2020 11:21:17 10.9 C 29 %
2367 03-04-2020 11:31:17 11.1 C 28 %
2368 03-04-2020 11:41:17 11.5 C 26 %
2369 03-04-2020 11:51:17 11.4 C 26 %
2370 03-04-2020 12:01:17 11.1 C 26 %
2371 03-04-2020 12:11:17 11.2 C 26 %
2372 03-04-2020 12:21:17 11.4 C 26 %
2373 03-04-2020 12:31:17 11.6 C 25 %
2374 03-04-2020 12:41:18 11.1 C 25 %
2375 03-04-2020 12:51:17 11.1 C 25 %
Sensor: Nr:Datum:Temp:Feuchte:
Aussen-T/F 2376 03-04-2020 13:01:18 11.2 C 25 %
2377 03-04-2020 13:11:18 11.7 C 25 %
2378 03-04-2020 13:21:17 12.2 C 22 %
2379 03-04-2020 13:31:17 11.8 C 22 %
2380 03-04-2020 13:41:17 11.8 C 23 %
2381 03-04-2020 13:51:17 12.2 C 22 %
2382 03-04-2020 14:01:18 12.3 C 20 %
2383 03-04-2020 14:11:18 11.6 C 21 %
2384 03-04-2020 14:21:17 11.7 C 21 %
2385 03-04-2020 14:31:17 11.6 C 21 %
2386 03-04-2020 14:41:18 11.4 C 23 %
2387 03-04-2020 14:51:17 11.7 C 21 %
2388 03-04-2020 15:01:17 11.8 C 20 %
2389 03-04-2020 15:11:17 11.7 C 20 %
2390 03-04-2020 15:21:18 11.8 C 20 %
2391 03-04-2020 15:31:17 12.1 C 20 %
2392 03-04-2020 15:41:17 12.5 C 20 %
2393 03-04-2020 15:51:17 13.1 C 20 %
2394 03-04-2020 16:01:17 12.6 C 20 %
2395 03-04-2020 16:11:17 12.4 C 20 %
2396 03-04-2020 16:21:17 12.4 C 20 %
2397 03-04-2020 16:31:17 12.3 C 20 %
2398 03-04-2020 16:41:17 12.4 C 20 %
2399 03-04-2020 16:51:17 12.4 C 20 %
2400 03-04-2020 17:01:17 12.2 C 20 %
Sensor: Nr:Datum:Temp:Feuchte:
Aussen-T/F 2401 03-04-2020 17:11:17 12.2 C 20 %
2402 03-04-2020 17:21:17 12.2 C 20 %
2403 03-04-2020 17:31:17 12.2 C 20 %
2404 03-04-2020 17:41:17 12.4 C 20 %
2405 03-04-2020 17:51:17 11.9 C 20 %
2406 03-04-2020 18:01:17 11.5 C 20 %
2407 03-04-2020 18:11:17 11.7 C 20 %
2408 03-04-2020 18:21:17 11.5 C 20 %
2409 03-04-2020 18:31:18 11.4 C 20 %
2410 03-04-2020 18:41:18 11 C 20 %
2411 03-04-2020 18:51:17 11 C 20 %
2412 03-04-2020 19:01:18 10.8 C 20 %
2413 03-04-2020 19:11:18 10.7 C 20 %
2414 03-04-2020 19:21:17 10.5 C 20 %
2415 03-04-2020 19:31:17 10.2 C 20 %
2416 03-04-2020 19:41:17 10.3 C 20 %
2417 03-04-2020 19:51:17 9.9 C 20 %
2418 03-04-2020 20:01:17 9.8 C 20 %
2419 03-04-2020 20:11:17 9.5 C 20 %
2420 03-04-2020 20:21:17 9.1 C 20 %
2421 03-04-2020 20:31:18 9.5 C 20 %
2422 03-04-2020 20:41:18 9.2 C 20 %
2423 03-04-2020 20:51:18 9.1 C 20 %
2424 03-04-2020 21:01:17 9.2 C 20 %
2425 03-04-2020 21:11:17 9.1 C 20 %
Sensor: Nr:Datum:Temp:Feuchte:
Aussen-T/F 2426 03-04-2020 21:21:17 8.9 C 20 %
2427 03-04-2020 21:31:17 8.7 C 20 %
2428 03-04-2020 21:41:17 8.6 C 20 %
2429 03-04-2020 21:51:17 8.3 C 20 %
2430 03-04-2020 22:01:17 8.1 C 20 %
2431 03-04-2020 22:11:17 7.9 C 20 %
2432 03-04-2020 22:21:17 7.2 C 23 %
2433 03-04-2020 22:31:18 6.8 C 25 %
2434 03-04-2020 22:41:18 6.5 C 26 %
2435 03-04-2020 22:51:17 6.3 C 26 %
2436 03-04-2020 23:01:17 6.4 C 26 %
2437 03-04-2020 23:11:18 6.4 C 25 %
2438 03-04-2020 23:21:18 6.2 C 26 %
2439 03-04-2020 23:31:17 5.2 C 28 %
2440 03-04-2020 23:41:18 5 C 29 %
2441 03-04-2020 23:51:17 4.7 C 30 %
2442 04-04-2020 00:01:17 4.8 C 30 %
2443 04-04-2020 00:11:18 4.8 C 30 %
2444 04-04-2020 00:21:17 4.7 C 30 %
2445 04-04-2020 00:31:17 5.2 C 28 %
2446 04-04-2020 00:41:17 4.5 C 29 %
2447 04-04-2020 00:51:17 4 C 30 %
2448 04-04-2020 01:01:17 4.6 C 30 %
2449 04-04-2020 01:11:17 4.3 C 30 %
2450 04-04-2020 01:21:18 3.9 C 31 %
Sensor: Nr:Datum:Temp:Feuchte:
Aussen-T/F 2451 04-04-2020 01:31:17 4 C 32 %
2452 04-04-2020 01:41:17 3.1 C 35 %
2453 04-04-2020 01:51:17 2.2 C 37 %
2454 04-04-2020 02:01:18 1.7 C 39 %
2455 04-04-2020 02:11:18 1.4 C 40 %
2456 04-04-2020 02:21:17 1.2 C 40 %
2457 04-04-2020 02:31:17 0.9 C 41 %
2458 04-04-2020 02:41:17 0.8 C 41 %
2459 04-04-2020 02:51:17 0.8 C 42 %
2460 04-04-2020 03:01:18 0.6 C 42 %
2461 04-04-2020 03:11:18 0.4 C 42 %
2462 04-04-2020 03:21:17 0.3 C 43 %
2463 04-04-2020 03:31:18 0.6 C 43 %
2464 04-04-2020 03:41:18 0.5 C 42 %
2465 04-04-2020 03:51:17 -0.1 C 43 %
2466 04-04-2020 04:01:17 -0.4 C 43 %
2467 04-04-2020 04:11:17 -0.6 C 43 %
2468 04-04-2020 04:21:17 -0.7 C 44 %
2469 04-04-2020 04:31:17 -0.6 C 44 %
2470 04-04-2020 04:41:17 -0.9 C 44 %
2471 04-04-2020 04:51:17 -0.9 C 45 %
2472 04-04-2020 05:01:18 -0.9 C 45 %
2473 04-04-2020 05:11:18 -1.2 C 45 %
2474 04-04-2020 05:21:18 -1.2 C 45 %
2475 04-04-2020 05:31:17 -1 C 45 %
Sensor: Nr:Datum:Temp:Feuchte:
Aussen-T/F 2476 04-04-2020 05:41:17 -1.2 C 45 %
2477 04-04-2020 05:51:17 -1.2 C 45 %
2478 04-04-2020 06:01:18 -1.5 C 45 %
2479 04-04-2020 06:11:18 -1.5 C 45 %
2480 04-04-2020 06:21:17 -1.5 C 45 %
2481 04-04-2020 06:31:17 -1.8 C 45 %
2482 04-04-2020 06:41:17 -1.4 C 46 %
2483 04-04-2020 06:51:17 -1.5 C 45 %
2484 04-04-2020 07:01:18 -1.6 C 45 %
2485 04-04-2020 07:11:18 -1.8 C 45 %
2486 04-04-2020 07:21:17 -1.5 C 46 %
2487 04-04-2020 07:31:18 -1.8 C 45 %
2488 04-04-2020 07:41:18 -1.7 C 46 %
2489 04-04-2020 07:51:17 -1.8 C 45 %
2490 04-04-2020 08:01:17 -1.8 C 46 %
2491 04-04-2020 08:11:18 -1.7 C 46 %
2492 04-04-2020 08:21:17 -1.5 C 46 %
2493 04-04-2020 08:31:17 -1.1 C 46 %
2494 04-04-2020 08:41:18 -1 C 46 %
2495 04-04-2020 08:51:17 -0.7 C 45 %
2496 04-04-2020 09:01:17 -0.3 C 45 %
2497 04-04-2020 09:11:17 0 C 45 %
2498 04-04-2020 09:21:17 -0.2 C 45 %
2499 04-04-2020 09:31:18 0.2 C 45 %
2500 04-04-2020 09:41:18 0.8 C 44 %
Sensor: Nr:Datum:Temp:Feuchte:
Aussen-T/F 2501 04-04-2020 09:51:17 1.1 C 43 %
2502 04-04-2020 10:01:17 1.5 C 43 %
2503 04-04-2020 10:11:18 1.8 C 43 %
2504 04-04-2020 10:21:17 2.2 C 41 %
2505 04-04-2020 10:31:17 2.9 C 41 %
2506 04-04-2020 10:41:17 3.5 C 40 %
2507 04-04-2020 10:51:17 4.5 C 37 %
2508 04-04-2020 11:01:17 5.3 C 36 %
2509 04-04-2020 11:11:17 6.4 C 35 %
2510 04-04-2020 11:21:18 7.1 C 32 %
2511 04-04-2020 11:31:18 7.9 C 32 %
2512 04-04-2020 11:41:18 8.4 C 29 %
2513 04-04-2020 11:51:18 8.7 C 29 %
2514 04-04-2020 12:01:18 9.7 C 26 %
2515 04-04-2020 12:11:18 9.7 C 26 %
2516 04-04-2020 12:21:17 10.6 C 22 %
2517 04-04-2020 12:31:17 10.9 C 20 %
2518 04-04-2020 12:41:17 11.4 C 20 %
2519 04-04-2020 12:51:17 10.8 C 20 %
2520 04-04-2020 13:01:17 11.1 C 20 %
2521 04-04-2020 13:11:17 12.1 C 20 %
2522 04-04-2020 13:21:17 11.6 C 20 %
2523 04-04-2020 13:31:17 11.4 C 20 %
2524 04-04-2020 13:41:17 12.2 C 20 %
2525 04-04-2020 13:51:18 12.5 C 20 %
Sensor: Nr:Datum:Temp:Feuchte:
Aussen-T/F 2526 04-04-2020 14:01:17 12.1 C 20 %
2527 04-04-2020 14:11:17 13.7 C 20 %
2528 04-04-2020 14:21:17 14.6 C 20 %
2529 04-04-2020 14:31:17 16.6 C 20 %
2530 04-04-2020 14:41:17 17 C 20 %
2531 04-04-2020 14:51:17 16.3 C 20 %
2532 04-04-2020 15:01:18 18.1 C 20 %
2533 04-04-2020 15:11:18 18.9 C 20 %
2534 04-04-2020 15:21:17 16.9 C 20 %
2535 04-04-2020 15:31:17 19.1 C 20 %
2536 04-04-2020 15:41:17 19.8 C 20 %
2537 04-04-2020 15:51:17 17.4 C 20 %
2538 04-04-2020 16:01:17 19.9 C 20 %
2539 04-04-2020 16:11:17 19.3 C 20 %
2540 04-04-2020 16:21:17 18.7 C 20 %
2541 04-04-2020 16:31:17 19.3 C 20 %
2542 04-04-2020 16:41:17 20.5 C 20 %
2543 04-04-2020 16:51:17 20.4 C 20 %
2544 04-04-2020 17:01:17 20.3 C 20 %
2545 04-04-2020 17:11:17 20.1 C 20 %
2546 04-04-2020 17:21:17 20.5 C 20 %
2547 04-04-2020 17:31:17 19.2 C 20 %
2548 04-04-2020 17:41:17 18.7 C 20 %
2549 04-04-2020 17:51:18 17.8 C 20 %
2550 04-04-2020 18:01:17 16.8 C 20 %
Sensor: Nr:Datum:Temp:Feuchte:
Aussen-T/F 2551 04-04-2020 18:11:17 16.2 C 20 %
2552 04-04-2020 18:21:17 15.4 C 20 %
2553 04-04-2020 18:31:17 15.4 C 20 %
2554 04-04-2020 18:41:17 15.6 C 20 %
2555 04-04-2020 18:51:17 15.1 C 20 %
2556 04-04-2020 19:01:17 14.9 C 20 %
2557 04-04-2020 19:11:17 14.4 C 20 %
2558 04-04-2020 19:21:17 14 C 20 %
2559 04-04-2020 19:31:17 13.9 C 20 %
2560 04-04-2020 19:41:17 12.6 C 20 %
2561 04-04-2020 19:51:17 11.5 C 20 %
2562 04-04-2020 20:01:17 11.3 C 20 %
2563 04-04-2020 20:11:17 10.7 C 20 %
2564 04-04-2020 20:21:17 10.3 C 21 %
2565 04-04-2020 20:31:17 9.8 C 25 %
2566 04-04-2020 20:41:17 9.5 C 23 %
2567 04-04-2020 20:51:17 9.2 C 25 %
2568 04-04-2020 21:01:17 9.2 C 21 %
2569 04-04-2020 21:11:17 8.7 C 25 %
2570 04-04-2020 21:21:17 8.8 C 25 %
2571 04-04-2020 21:31:17 8.5 C 25 %
2572 04-04-2020 21:41:17 8.2 C 25 %
2573 04-04-2020 21:51:17 7.1 C 28 %
2574 04-04-2020 22:01:18 5.8 C 31 %
2575 04-04-2020 22:11:18 5.5 C 32 %
Sensor: Nr:Datum:Temp:Feuchte:
Aussen-T/F 2576 04-04-2020 22:21:18 5.1 C 32 %
2577 04-04-2020 22:31:17 4.8 C 35 %
2578 04-04-2020 22:41:17 4.7 C 34 %
2579 04-04-2020 22:51:17 4.6 C 34 %
2580 04-04-2020 23:01:17 4.4 C 34 %
2581 04-04-2020 23:11:17 4.1 C 34 %
2582 04-04-2020 23:21:17 3.9 C 35 %
2583 04-04-2020 23:31:17 3.6 C 36 %
2584 04-04-2020 23:41:17 3.5 C 36 %
2585 04-04-2020 23:51:17 3.4 C 37 %
2586 05-04-2020 00:01:17 3 C 37 %
2587 05-04-2020 00:11:17 2.9 C 38 %
2588 05-04-2020 00:21:17 2.8 C 39 %
2589 05-04-2020 00:31:17 2.5 C 39 %
2590 05-04-2020 00:41:17 2.5 C 40 %
2591 05-04-2020 00:51:18 2.4 C 40 %
2592 05-04-2020 01:01:18 2.3 C 40 %
2593 05-04-2020 01:11:18 2.3 C 40 %
2594 05-04-2020 01:21:17 2.2 C 40 %
2595 05-04-2020 01:31:18 2.1 C 41 %
2596 05-04-2020 01:41:18 1.9 C 42 %
2597 05-04-2020 01:51:17 1.8 C 42 %
2598 05-04-2020 02:01:18 1.6 C 42 %
2599 05-04-2020 02:11:18 1.3 C 42 %
2600 05-04-2020 02:21:17 1.4 C 43 %
Sensor: Nr:Datum:Temp:Feuchte:
Aussen-T/F 2601 05-04-2020 02:31:18 1.4 C 43 %
2602 05-04-2020 02:41:18 1.1 C 43 %
2603 05-04-2020 02:51:17 1.1 C 43 %
2604 05-04-2020 03:01:18 1.3 C 43 %
2605 05-04-2020 03:11:18 1.1 C 43 %
2606 05-04-2020 03:21:17 1 C 43 %
2607 05-04-2020 03:31:17 0.7 C 45 %
2608 05-04-2020 03:41:17 0.5 C 45 %
2609 05-04-2020 03:51:17 0.7 C 45 %
2610 05-04-2020 04:01:17 0.6 C 45 %
2611 05-04-2020 04:11:17 0.4 C 45 %
2612 05-04-2020 04:21:17 0.4 C 46 %
2613 05-04-2020 04:31:17 0.2 C 46 %
2614 05-04-2020 04:41:17 0.2 C 46 %
2615 05-04-2020 04:51:17 0.2 C 46 %
2616 05-04-2020 05:01:17 0 C 46 %
2617 05-04-2020 05:11:17 -0.3 C 46 %
2618 05-04-2020 05:21:17 -0.2 C 47 %
2619 05-04-2020 05:31:17 -0.3 C 46 %
2620 05-04-2020 05:41:17 -0.4 C 47 %
2621 05-04-2020 05:51:17 -0.5 C 47 %
2622 05-04-2020 06:01:17 -0.4 C 47 %
2623 05-04-2020 06:11:17 -0.5 C 47 %
2624 05-04-2020 06:21:17 -0.6 C 47 %
2625 05-04-2020 06:31:18 -0.8 C 48 %
Sensor: Nr:Datum:Temp:Feuchte:
Aussen-T/F 2626 05-04-2020 06:41:18 -0.8 C 47 %
2627 05-04-2020 06:51:17 -0.8 C 47 %
2628 05-04-2020 07:01:18 -0.9 C 47 %
2629 05-04-2020 07:11:18 -0.7 C 48 %
2630 05-04-2020 07:21:18 -0.6 C 48 %
2631 05-04-2020 07:31:17 -0.5 C 48 %
2632 05-04-2020 07:41:17 -0.5 C 48 %
2633 05-04-2020 07:51:17 -0.4 C 48 %
2634 05-04-2020 08:01:17 -0.3 C 48 %
2635 05-04-2020 08:11:17 0 C 49 %
2636 05-04-2020 08:21:17 0.1 C 48 %
2637 05-04-2020 08:31:17 0.4 C 48 %
2638 05-04-2020 08:41:17 0.5 C 49 %
2639 05-04-2020 08:51:18 0.8 C 49 %
2640 05-04-2020 09:01:17 1.1 C 47 %
2641 05-04-2020 09:11:17 1.4 C 47 %
2642 05-04-2020 09:21:17 1.8 C 47 %
2643 05-04-2020 09:31:17 2.4 C 46 %
2644 05-04-2020 09:41:17 2.8 C 46 %
2645 05-04-2020 09:51:18 3.4 C 44 %
2646 05-04-2020 10:01:18 3.9 C 43 %
2647 05-04-2020 10:11:18 4.5 C 41 %
2648 05-04-2020 10:21:17 5.4 C 40 %
2649 05-04-2020 10:31:17 5.9 C 40 %
2650 05-04-2020 10:41:17 7 C 38 %
Sensor: Nr:Datum:Temp:Feuchte:
Aussen-T/F 2651 05-04-2020 10:51:17 7.9 C 37 %
2652 05-04-2020 11:01:17 8.6 C 36 %
2653 05-04-2020 11:11:17 10.7 C 32 %
2654 05-04-2020 11:21:17 11.2 C 30 %
2655 05-04-2020 11:31:17 13.1 C 21 %
2656 05-04-2020 11:41:17 13.9 C 20 %
2657 05-04-2020 11:51:17 14.8 C 20 %
2658 05-04-2020 12:01:17 15.6 C 20 %
2659 05-04-2020 12:11:17 15.9 C 20 %
2660 05-04-2020 12:21:17 16.7 C 20 %
2661 05-04-2020 12:31:18 17.6 C 20 %
2662 05-04-2020 12:41:18 17.4 C 20 %
2663 05-04-2020 12:51:17 17.4 C 20 %
2664 05-04-2020 13:01:17 17.2 C 20 %
2665 05-04-2020 13:11:17 18.4 C 20 %
2666 05-04-2020 13:21:17 17.5 C 20 %
2667 05-04-2020 13:31:17 17.1 C 20 %
2668 05-04-2020 13:41:17 17.9 C 20 %
2669 05-04-2020 13:51:17 17.7 C 20 %
2670 05-04-2020 14:01:17 17.9 C 20 %
2671 05-04-2020 14:11:17 19 C 20 %
2672 05-04-2020 14:21:17 19.8 C 20 %
2673 05-04-2020 14:31:18 21.7 C 20 %
2674 05-04-2020 14:41:18 23.4 C 20 %
2675 05-04-2020 14:51:18 23.3 C 20 %
Sensor: Nr:Datum:Temp:Feuchte:
Aussen-T/F 2676 05-04-2020 15:01:17 24.7 C 20 %
2677 05-04-2020 15:11:18 26.9 C 20 %
2678 05-04-2020 15:21:17 24.5 C 20 %
2679 05-04-2020 15:31:17 24.8 C 20 %
2680 05-04-2020 15:41:17 25.1 C 20 %
2681 05-04-2020 15:51:18 26.6 C 20 %
2682 05-04-2020 16:01:17 25 C 20 %
2683 05-04-2020 16:11:17 23.3 C 20 %
2684 05-04-2020 16:21:17 25.5 C 20 %
2685 05-04-2020 16:31:17 24.8 C 20 %
2686 05-04-2020 16:41:17 23.1 C 20 %
2687 05-04-2020 16:51:17 23.4 C 20 %
2688 05-04-2020 17:01:17 23.5 C 20 %
2689 05-04-2020 17:11:17 26.4 C 20 %
2690 05-04-2020 17:21:17 25.9 C 20 %
2691 05-04-2020 17:31:17 24.4 C 20 %
2692 05-04-2020 17:41:17 24.2 C 20 %
2693 05-04-2020 17:51:17 23.6 C 20 %
2694 05-04-2020 18:01:17 20.8 C 20 %
2695 05-04-2020 18:11:17 19.7 C 20 %
2696 05-04-2020 18:21:17 20 C 20 %
2697 05-04-2020 18:31:17 19.7 C 20 %
2698 05-04-2020 18:41:17 19.4 C 20 %
2699 05-04-2020 18:51:17 18.9 C 20 %
2700 05-04-2020 19:01:17 18.8 C 20 %
Sensor: Nr:Datum:Temp:Feuchte:
Aussen-T/F 2701 05-04-2020 19:11:17 18.4 C 20 %
2702 05-04-2020 19:21:17 18 C 20 %
2703 05-04-2020 19:31:18 17.5 C 20 %
2704 05-04-2020 19:41:18 16.3 C 20 %
2705 05-04-2020 19:51:17 15 C 20 %
2706 05-04-2020 20:01:18 14.3 C 20 %
2707 05-04-2020 20:11:18 14.1 C 20 %
2708 05-04-2020 20:21:17 13.5 C 20 %
2709 05-04-2020 20:31:17 13.3 C 20 %
2710 05-04-2020 20:41:17 13 C 20 %
2711 05-04-2020 20:51:17 12.7 C 20 %
2712 05-04-2020 21:01:18 12.3 C 20 %
2713 05-04-2020 21:11:18 12 C 20 %
2714 05-04-2020 21:21:17 12.1 C 20 %
2715 05-04-2020 21:31:17 11.7 C 20 %
2716 05-04-2020 21:41:17 11.5 C 20 %
2717 05-04-2020 21:51:17 10.3 C 20 %
2718 05-04-2020 22:01:17 10.5 C 20 %
2719 05-04-2020 22:11:17 9.2 C 25 %
2720 05-04-2020 22:21:17 8.9 C 26 %
2721 05-04-2020 22:31:17 8.8 C 26 %
2722 05-04-2020 22:41:17 8.4 C 27 %
2723 05-04-2020 22:51:17 8.2 C 27 %
2724 05-04-2020 23:01:17 8 C 28 %
2725 05-04-2020 23:11:17 7.4 C 30 %
Sensor: Nr:Datum:Temp:Feuchte:
Aussen-T/F 2726 05-04-2020 23:21:17 7.4 C 29 %
2727 05-04-2020 23:31:17 7 C 30 %
2728 05-04-2020 23:41:17 6.7 C 31 %
2729 05-04-2020 23:51:17 6.3 C 31 %
2730 06-04-2020 00:01:17 6.2 C 32 %
2731 06-04-2020 00:11:17 6.3 C 32 %
2732 06-04-2020 00:21:17 6.3 C 32 %
2733 06-04-2020 00:31:18 6 C 32 %
2734 06-04-2020 00:41:18 5.6 C 33 %
2735 06-04-2020 00:51:17 5.6 C 34 %
2736 06-04-2020 01:01:18 5.4 C 35 %
2737 06-04-2020 01:11:18 5.3 C 35 %
2738 06-04-2020 01:21:17 5.1 C 35 %
2739 06-04-2020 01:31:17 4.8 C 36 %
2740 06-04-2020 01:41:17 4.7 C 36 %
2741 06-04-2020 01:51:17 4.6 C 36 %
2742 06-04-2020 02:01:17 4.5 C 37 %
2743 06-04-2020 02:11:17 4.1 C 37 %
2744 06-04-2020 02:21:17 4.2 C 37 %
2745 06-04-2020 02:31:17 4 C 37 %
2746 06-04-2020 02:41:17 4.1 C 37 %
2747 06-04-2020 02:51:17 3.8 C 38 %
2748 06-04-2020 03:01:17 3.9 C 39 %
2749 06-04-2020 03:11:17 3.6 C 39 %
2750 06-04-2020 03:21:17 3.3 C 39 %
Sensor: Nr:Datum:Temp:Feuchte:
Aussen-T/F 2751 06-04-2020 03:31:18 3.3 C 40 %
2752 06-04-2020 03:41:18 3.2 C 40 %
2753 06-04-2020 03:51:17 3.3 C 40 %
2754 06-04-2020 04:01:17 3.2 C 40 %
2755 06-04-2020 04:11:17 3.3 C 40 %
2756 06-04-2020 04:21:17 3.1 C 40 %
2757 06-04-2020 04:31:17 2.8 C 40 %
2758 06-04-2020 04:41:17 2.6 C 41 %
2759 06-04-2020 04:51:17 2.5 C 41 %
2760 06-04-2020 05:01:17 2.4 C 41 %
2761 06-04-2020 05:11:17 2.3 C 41 %
2762 06-04-2020 05:21:18 2.2 C 41 %
2763 06-04-2020 05:31:17 1.9 C 42 %
2764 06-04-2020 05:41:17 1.8 C 43 %
2765 06-04-2020 05:51:17 1.7 C 43 %
2766 06-04-2020 06:01:17 1.6 C 44 %
2767 06-04-2020 06:11:17 1.5 C 44 %
2768 06-04-2020 06:21:18 1.3 C 45 %
2769 06-04-2020 06:31:17 1.2 C 45 %
2770 06-04-2020 06:41:18 1.3 C 45 %
2771 06-04-2020 06:51:17 1.3 C 45 %
2772 06-04-2020 07:01:17 1.4 C 45 %
2773 06-04-2020 07:11:17 1.5 C 45 %
2774 06-04-2020 07:21:17 1.6 C 45 %
2775 06-04-2020 07:31:18 1.5 C 45 %
Sensor: Nr:Datum:Temp:Feuchte:
Aussen-T/F 2776 06-04-2020 07:41:18 1.6 C 45 %
2777 06-04-2020 07:51:17 2 C 45 %
2778 06-04-2020 08:01:17 1.9 C 45 %
2779 06-04-2020 08:11:17 2.2 C 44 %
2780 06-04-2020 08:21:17 2.5 C 44 %
2781 06-04-2020 08:31:17 3 C 42 %
2782 06-04-2020 08:41:17 3.2 C 42 %
2783 06-04-2020 08:51:17 3.4 C 41 %
2784 06-04-2020 09:01:18 3.5 C 41 %
2785 06-04-2020 09:11:18 3.4 C 41 %
2786 06-04-2020 09:21:17 3.9 C 41 %
2787 06-04-2020 09:31:17 4.3 C 40 %
2788 06-04-2020 09:41:17 4.8 C 40 %
2789 06-04-2020 09:51:18 5.2 C 40 %
2790 06-04-2020 10:01:18 6 C 38 %
2791 06-04-2020 10:11:18 6.5 C 37 %
2792 06-04-2020 10:21:17 7.2 C 36 %
2793 06-04-2020 10:31:17 7.9 C 36 %
2794 06-04-2020 10:41:17 8.8 C 35 %
2795 06-04-2020 10:51:17 9.8 C 34 %
2796 06-04-2020 11:01:17 11.1 C 31 %
2797 06-04-2020 11:11:18 12.2 C 29 %
2798 06-04-2020 11:21:17 13.3 C 26 %
2799 06-04-2020 11:31:17 16 C 20 %
2800 06-04-2020 11:41:17 17.1 C 20 %
Sensor: Nr:Datum:Temp:Feuchte:
Aussen-T/F 2801 06-04-2020 11:51:18 17.6 C 20 %
2802 06-04-2020 12:01:18 18.1 C 20 %
2803 06-04-2020 12:11:18 18.6 C 20 %
2804 06-04-2020 12:21:17 20.3 C 20 %
2805 06-04-2020 12:31:17 21 C 20 %
2806 06-04-2020 12:41:17 19.4 C 20 %
2807 06-04-2020 12:51:17 20.2 C 20 %
2808 06-04-2020 13:01:17 20.6 C 20 %
2809 06-04-2020 13:11:17 20.8 C 20 %
2810 06-04-2020 13:21:17 20.4 C 20 %
2811 06-04-2020 13:31:18 20.3 C 20 %
2812 06-04-2020 13:41:18 21.2 C 20 %
2813 06-04-2020 13:51:17 21.3 C 20 %
2814 06-04-2020 14:01:18 22.3 C 20 %
2815 06-04-2020 14:11:18 22.3 C 20 %
2816 06-04-2020 14:21:17 23.7 C 20 %
2817 06-04-2020 14:31:17 26.8 C 20 %
2818 06-04-2020 14:41:17 27.4 C 20 %
2819 06-04-2020 14:51:18 28.3 C 20 %
2820 06-04-2020 15:01:17 28 C 20 %
2821 06-04-2020 15:11:17 26.6 C 20 %
2822 06-04-2020 15:21:17 27.1 C 20 %
2823 06-04-2020 15:31:17 25.8 C 20 %
2824 06-04-2020 15:41:17 26.9 C 20 %
2825 06-04-2020 15:51:17 27.9 C 20 %
Sensor: Nr:Datum:Temp:Feuchte:
Aussen-T/F 2826 06-04-2020 16:01:17 29.7 C 20 %
2827 06-04-2020 16:11:17 27.4 C 20 %
2828 06-04-2020 16:21:18 27.4 C 20 %
2829 06-04-2020 16:31:18 28.3 C 20 %
2830 06-04-2020 16:41:18 28.5 C 20 %
2831 06-04-2020 16:51:17 27.1 C 20 %
2832 06-04-2020 17:01:17 27.6 C 20 %
2833 06-04-2020 17:11:17 26 C 20 %
2834 06-04-2020 17:21:17 26.7 C 20 %
2835 06-04-2020 17:31:17 25.7 C 20 %
2836 06-04-2020 17:41:17 25.5 C 20 %
2837 06-04-2020 17:51:17 24.2 C 20 %
2838 06-04-2020 18:01:17 23.3 C 20 %
2839 06-04-2020 18:11:17 23.1 C 20 %
2840 06-04-2020 18:21:17 22.6 C 20 %
2841 06-04-2020 18:31:18 22.6 C 20 %
2842 06-04-2020 18:41:18 22.3 C 20 %
2843 06-04-2020 18:51:17 22 C 20 %
2844 06-04-2020 19:01:17 21.7 C 20 %
2845 06-04-2020 19:11:17 21.1 C 20 %
2846 06-04-2020 19:21:17 20.5 C 20 %
2847 06-04-2020 19:31:17 20.2 C 20 %
2848 06-04-2020 19:41:17 19.1 C 20 %
2849 06-04-2020 19:51:17 18.3 C 20 %
2850 06-04-2020 20:01:18 16.4 C 20 %
Sensor: Nr:Datum:Temp:Feuchte:
Aussen-T/F 2851 06-04-2020 20:11:18 16.3 C 20 %
2852 06-04-2020 20:21:17 15.8 C 20 %
2853 06-04-2020 20:31:17 15.3 C 20 %
2854 06-04-2020 20:41:18 15.1 C 20 %
2855 06-04-2020 20:51:17 13.7 C 20 %
2856 06-04-2020 21:01:18 13.2 C 20 %
2857 06-04-2020 21:11:18 12.9 C 20 %
2858 06-04-2020 21:21:17 12 C 20 %
2859 06-04-2020 21:31:18 11.8 C 22 %
2860 06-04-2020 21:41:18 11.6 C 22 %
2861 06-04-2020 21:51:17 11.1 C 22 %
2862 06-04-2020 22:01:17 10.8 C 25 %
2863 06-04-2020 22:11:17 10.6 C 25 %
2864 06-04-2020 22:21:17 10.2 C 25 %
2865 06-04-2020 22:31:17 10 C 26 %
2866 06-04-2020 22:41:17 10 C 26 %
2867 06-04-2020 22:51:17 9.9 C 26 %
2868 06-04-2020 23:01:18 9.8 C 26 %
2869 06-04-2020 23:11:18 9.6 C 26 %
2870 06-04-2020 23:21:17 9.5 C 27 %
2871 06-04-2020 23:31:17 9.4 C 27 %
2872 06-04-2020 23:41:17 9.2 C 27 %
2873 06-04-2020 23:51:17 9.5 C 29 %
2874 07-04-2020 00:01:17 10.2 C 26 %
2875 07-04-2020 00:11:17 9.1 C 29 %
Sensor: Nr:Datum:Temp:Feuchte:
Aussen-T/F 2876 07-04-2020 00:21:18 8.7 C 30 %
2877 07-04-2020 00:31:17 8.8 C 30 %
2878 07-04-2020 00:41:17 9 C 30 %
2879 07-04-2020 00:51:17 8.6 C 30 %
2880 07-04-2020 01:01:17 8.7 C 30 %
2881 07-04-2020 01:11:17 9.1 C 30 %
2882 07-04-2020 01:21:17 9.4 C 30 %
2883 07-04-2020 01:31:17 9.8 C 30 %
2884 07-04-2020 01:41:17 10.1 C 30 %
2885 07-04-2020 01:51:18 10 C 29 %
2886 07-04-2020 02:01:18 9.2 C 30 %
2887 07-04-2020 02:11:18 8.8 C 31 %
2888 07-04-2020 02:21:17 8.2 C 33 %
2889 07-04-2020 02:31:17 7.9 C 34 %
2890 07-04-2020 02:41:17 7.5 C 34 %
2891 07-04-2020 02:51:17 7.2 C 35 %
2892 07-04-2020 03:01:17 7.3 C 35 %
2893 07-04-2020 03:11:17 7.6 C 35 %
2894 07-04-2020 03:21:17 7.9 C 35 %
2895 07-04-2020 03:31:17 8 C 35 %
2896 07-04-2020 03:41:17 7.7 C 36 %
2897 07-04-2020 03:51:17 7.8 C 35 %
2898 07-04-2020 04:01:17 7.8 C 36 %
2899 07-04-2020 04:11:17 7.6 C 36 %
2900 07-04-2020 04:21:17 7.4 C 36 %
Sensor: Nr:Datum:Temp:Feuchte:
Aussen-T/F 2901 07-04-2020 04:31:17 7.2 C 36 %
2902 07-04-2020 04:41:18 6.9 C 37 %
2903 07-04-2020 04:51:17 6.8 C 37 %
2904 07-04-2020 05:01:17 6.3 C 38 %
2905 07-04-2020 05:11:17 6.1 C 38 %
2906 07-04-2020 05:21:18 5.9 C 40 %
2907 07-04-2020 05:31:17 5.8 C 40 %
2908 07-04-2020 05:41:17 5.7 C 40 %
2909 07-04-2020 05:51:17 5.6 C 41 %
2910 07-04-2020 06:01:17 5.6 C 41 %
2911 07-04-2020 06:11:17 5.2 C 40 %
2912 07-04-2020 06:21:17 5.3 C 41 %
2913 07-04-2020 06:31:17 5.2 C 41 %
2914 07-04-2020 06:41:17 5 C 41 %
2915 07-04-2020 06:51:17 4.8 C 42 %
2916 07-04-2020 07:01:18 4.8 C 43 %
2917 07-04-2020 07:11:18 4.7 C 43 %
2918 07-04-2020 07:21:18 4.8 C 44 %
2919 07-04-2020 07:31:17 5 C 43 %
2920 07-04-2020 07:41:18 5.7 C 43 %
2921 07-04-2020 07:51:17 5.8 C 42 %
2922 07-04-2020 08:01:17 5.7 C 41 %
2923 07-04-2020 08:11:18 5.8 C 41 %
2924 07-04-2020 08:21:17 6 C 41 %
2925 07-04-2020 08:31:17 6 C 41 %
Sensor: Nr:Datum:Temp:Feuchte:
Aussen-T/F 2926 07-04-2020 08:41:17 6.3 C 41 %
2927 07-04-2020 08:51:17 6.6 C 41 %
2928 07-04-2020 09:01:17 7.1 C 40 %
2929 07-04-2020 09:11:17 7.3 C 40 %
2930 07-04-2020 09:21:17 7.5 C 40 %
2931 07-04-2020 09:31:17 8 C 39 %
2932 07-04-2020 09:41:18 8.9 C 39 %
2933 07-04-2020 09:51:17 9.3 C 37 %
2934 07-04-2020 10:01:17 9.4 C 38 %
2935 07-04-2020 10:11:18 10 C 37 %
2936 07-04-2020 10:21:17 10.7 C 37 %
2937 07-04-2020 10:31:18 11.4 C 36 %
2938 07-04-2020 10:41:18 12.3 C 35 %
2939 07-04-2020 10:51:17 13.1 C 33 %
2940 07-04-2020 11:01:17 14 C 31 %
2941 07-04-2020 11:11:17 14.6 C 31 %
2942 07-04-2020 11:21:17 15.2 C 30 %
2943 07-04-2020 11:31:17 16 C 28 %
2944 07-04-2020 11:41:17 16.5 C 27 %
2945 07-04-2020 11:51:17 16.9 C 27 %
2946 07-04-2020 12:01:17 17.2 C 26 %
2947 07-04-2020 12:11:17 17.7 C 25 %
2948 07-04-2020 12:21:18 18.7 C 23 %
2949 07-04-2020 12:31:17 20.9 C 21 %
2950 07-04-2020 12:41:17 19.6 C 20 %
Sensor: Nr:Datum:Temp:Feuchte:
Aussen-T/F 2951 07-04-2020 12:51:18 19.6 C 20 %
2952 07-04-2020 13:01:17 20.7 C 20 %
2953 07-04-2020 13:11:17 21.3 C 20 %
2954 07-04-2020 13:21:17 20.8 C 20 %
2955 07-04-2020 13:31:17 19.8 C 20 %
2956 07-04-2020 13:41:17 20.4 C 20 %
2957 07-04-2020 13:51:18 20.6 C 20 %
2958 07-04-2020 14:01:17 21.1 C 20 %
2959 07-04-2020 14:11:17 22 C 20 %
2960 07-04-2020 14:21:17 23.6 C 20 %
2961 07-04-2020 14:31:17 26.2 C 20 %
2962 07-04-2020 14:41:17 22.9 C 20 %
2963 07-04-2020 14:51:17 26.7 C 20 %
2964 07-04-2020 15:01:17 26.4 C 20 %
2965 07-04-2020 15:11:17 27.1 C 20 %
2966 07-04-2020 15:21:17 30.1 C 20 %
2967 07-04-2020 15:31:17 28.4 C 20 %
2968 07-04-2020 15:41:18 27.2 C 20 %
2969 07-04-2020 15:51:17 26.6 C 20 %
2970 07-04-2020 16:01:17 27.4 C 20 %
2971 07-04-2020 16:11:17 25.1 C 20 %
2972 07-04-2020 16:21:17 27.8 C 20 %
2973 07-04-2020 16:31:17 23.9 C 20 %
2974 07-04-2020 16:41:18 24.3 C 20 %
2975 07-04-2020 16:51:18 29.2 C 20 %
Sensor: Nr:Datum:Temp:Feuchte:
Aussen-T/F 2976 07-04-2020 17:01:17 31 C 20 %
2977 07-04-2020 17:11:17 25 C 20 %
2978 07-04-2020 17:21:17 24.2 C 20 %
2979 07-04-2020 17:31:18 24.2 C 20 %
2980 07-04-2020 17:41:18 26.9 C 20 %
2981 07-04-2020 17:51:18 24.6 C 20 %
2982 07-04-2020 18:01:17 23.7 C 20 %
2983 07-04-2020 18:11:17 23.7 C 20 %
2984 07-04-2020 18:21:17 22.9 C 20 %
2985 07-04-2020 18:31:17 22.7 C 20 %
2986 07-04-2020 18:41:17 22.3 C 20 %
2987 07-04-2020 18:51:17 22 C 20 %
2988 07-04-2020 19:01:17 21.8 C 20 %
2989 07-04-2020 19:11:18 21 C 20 %
2990 07-04-2020 19:21:17 20 C 20 %
2991 07-04-2020 19:31:17 19.1 C 20 %
2992 07-04-2020 19:41:17 18.4 C 20 %
2993 07-04-2020 19:51:17 18.3 C 20 %
2994 07-04-2020 20:01:18 17.6 C 20 %
2995 07-04-2020 20:11:18 17.3 C 20 %
2996 07-04-2020 20:21:17 17.1 C 20 %
2997 07-04-2020 20:31:17 16.8 C 20 %
2998 07-04-2020 20:41:17 16.5 C 20 %
2999 07-04-2020 20:51:17 16.3 C 20 %
3000 07-04-2020 21:01:17 16.1 C 20 %
Sensor: Nr:Datum:Temp:Feuchte:
Aussen-T/F 3001 07-04-2020 21:11:17 15.9 C 20 %
3002 07-04-2020 21:21:18 15.8 C 20 %
3003 07-04-2020 21:31:17 15.4 C 21 %
3004 07-04-2020 21:41:17 15.2 C 21 %
3005 07-04-2020 21:51:17 15.1 C 22 %
3006 07-04-2020 22:01:18 14.6 C 25 %
3007 07-04-2020 22:11:18 13.1 C 27 %
3008 07-04-2020 22:21:17 12.9 C 29 %
3009 07-04-2020 22:31:17 12.7 C 30 %
3010 07-04-2020 22:41:17 12.7 C 30 %
3011 07-04-2020 22:51:18 12.7 C 30 %
3012 07-04-2020 23:01:18 12.7 C 30 %
3013 07-04-2020 23:11:18 12.6 C 30 %
3014 07-04-2020 23:21:17 13.1 C 29 %
3015 07-04-2020 23:31:17 12.8 C 30 %
3016 07-04-2020 23:41:17 12.8 C 30 %
3017 07-04-2020 23:51:17 12.3 C 31 %
3018 08-04-2020 00:01:17 11.7 C 33 %
3019 08-04-2020 00:11:17 11.7 C 33 %
3020 08-04-2020 00:21:17 11.5 C 33 %
3021 08-04-2020 00:31:17 11.5 C 33 %
3022 08-04-2020 00:41:17 11.2 C 34 %
3023 08-04-2020 00:51:18 10.8 C 35 %
3024 08-04-2020 01:01:17 10.8 C 36 %
3025 08-04-2020 01:11:17 10.9 C 35 %
Sensor: Nr:Datum:Temp:Feuchte:
Aussen-T/F 3026 08-04-2020 01:21:17 10.4 C 36 %
3027 08-04-2020 01:31:18 10.2 C 36 %
3028 08-04-2020 01:41:18 9.9 C 37 %
3029 08-04-2020 01:51:17 9.6 C 38 %
3030 08-04-2020 02:01:18 9.2 C 38 %
3031 08-04-2020 02:11:18 8.7 C 39 %
3032 08-04-2020 02:21:17 8.5 C 40 %
3033 08-04-2020 02:31:17 8.2 C 40 %
3034 08-04-2020 02:41:18 8 C 40 %
3035 08-04-2020 02:51:17 7.7 C 41 %
3036 08-04-2020 03:01:18 7.4 C 41 %
3037 08-04-2020 03:11:18 7.1 C 41 %
3038 08-04-2020 03:21:17 7.1 C 42 %
3039 08-04-2020 03:31:17 7.1 C 42 %
3040 08-04-2020 03:41:17 6.8 C 43 %
3041 08-04-2020 03:51:17 6.7 C 43 %
3042 08-04-2020 04:01:17 6.6 C 44 %
3043 08-04-2020 04:11:18 6.7 C 44 %
3044 08-04-2020 04:21:17 6.3 C 44 %
3045 08-04-2020 04:31:17 6.3 C 45 %
3046 08-04-2020 04:41:17 6.4 C 45 %
3047 08-04-2020 04:51:17 6.3 C 45 %
3048 08-04-2020 05:01:18 6.1 C 44 %
3049 08-04-2020 05:11:18 5.9 C 45 %
3050 08-04-2020 05:21:17 5.6 C 45 %
Sensor: Nr:Datum:Temp:Feuchte:
Aussen-T/F 3051 08-04-2020 05:31:17 5.4 C 45 %
3052 08-04-2020 05:41:18 5.4 C 45 %
3053 08-04-2020 05:51:17 5.4 C 46 %
3054 08-04-2020 06:01:17 5.3 C 46 %
3055 08-04-2020 06:11:17 5.4 C 46 %
3056 08-04-2020 06:21:17 5.3 C 46 %
3057 08-04-2020 06:31:17 5.3 C 46 %
3058 08-04-2020 06:41:17 5.1 C 46 %
3059 08-04-2020 06:51:18 5 C 46 %
3060 08-04-2020 07:01:18 5 C 46 %
3061 08-04-2020 07:11:18 5.1 C 46 %
3062 08-04-2020 07:21:17 5.2 C 46 %
3063 08-04-2020 07:31:17 5.3 C 46 %
3064 08-04-2020 07:41:17 5.4 C 46 %
3065 08-04-2020 07:51:17 5.8 C 46 %
3066 08-04-2020 08:01:17 5.7 C 46 %
3067 08-04-2020 08:11:17 6 C 46 %
3068 08-04-2020 08:21:17 6.3 C 46 %
3069 08-04-2020 08:31:18 6.3 C 46 %
3070 08-04-2020 08:41:18 6.5 C 46 %
3071 08-04-2020 08:51:18 6.7 C 46 %
3072 08-04-2020 09:01:18 7 C 45 %
3073 08-04-2020 09:11:18 7.1 C 45 %
3074 08-04-2020 09:21:17 7.6 C 45 %
3075 08-04-2020 09:31:17 7.9 C 45 %
Sensor: Nr:Datum:Temp:Feuchte:
Aussen-T/F 3076 08-04-2020 09:41:17 8.3 C 45 %
3077 08-04-2020 09:51:17 8.7 C 44 %
3078 08-04-2020 10:01:17 9.1 C 43 %
3079 08-04-2020 10:11:17 9.7 C 43 %
3080 08-04-2020 10:21:17 10.2 C 41 %
3081 08-04-2020 10:31:18 11 C 40 %
3082 08-04-2020 10:41:18 11.8 C 39 %
3083 08-04-2020 10:51:18 12.6 C 38 %
3084 08-04-2020 11:01:18 13.7 C 36 %
3085 08-04-2020 11:11:18 14.5 C 35 %
3086 08-04-2020 11:21:17 15.5 C 34 %
3087 08-04-2020 11:31:18 16.2 C 32 %
3088 08-04-2020 11:41:18 17.6 C 27 %
3089 08-04-2020 11:51:17 18.6 C 25 %
3090 08-04-2020 12:01:18 19.2 C 22 %
3091 08-04-2020 12:11:18 20.1 C 21 %
3092 08-04-2020 12:21:17 21.2 C 20 %
3093 08-04-2020 12:31:17 22.4 C 20 %
3094 08-04-2020 12:41:17 22.9 C 20 %
3095 08-04-2020 12:51:17 21.8 C 20 %
3096 08-04-2020 13:01:18 22.9 C 20 %
3097 08-04-2020 13:11:18 22.4 C 20 %
3098 08-04-2020 13:21:17 22.1 C 20 %
3099 08-04-2020 13:31:18 22.3 C 20 %
3100 08-04-2020 13:41:18 23.3 C 20 %
Sensor: Nr:Datum:Temp:Feuchte:
Aussen-T/F 3101 08-04-2020 13:51:17 22.6 C 20 %
3102 08-04-2020 14:01:18 23 C 20 %
3103 08-04-2020 14:11:18 23.7 C 20 %
3104 08-04-2020 14:21:17 24.8 C 20 %
3105 08-04-2020 14:31:18 28.3 C 20 %
3106 08-04-2020 14:41:18 28.9 C 20 %
3107 08-04-2020 14:51:17 28.7 C 20 %
3108 08-04-2020 15:01:17 28.7 C 20 %
3109 08-04-2020 15:11:17 30.1 C 20 %
3110 08-04-2020 15:21:18 29.3 C 20 %
3111 08-04-2020 15:31:17 29.5 C 20 %
3112 08-04-2020 15:41:17 29.1 C 20 %
3113 08-04-2020 15:51:17 32.2 C 20 %
3114 08-04-2020 16:01:17 31.1 C 20 %
3115 08-04-2020 16:11:17 29.7 C 20 %
3116 08-04-2020 16:21:18 30.7 C 20 %
3117 08-04-2020 16:31:17 29 C 20 %
3118 08-04-2020 16:41:17 32.6 C 20 %
3119 08-04-2020 16:51:17 29.7 C 20 %
3120 08-04-2020 17:01:17 29.4 C 20 %
3121 08-04-2020 17:11:17 29.7 C 20 %
3122 08-04-2020 17:21:17 30.1 C 20 %
3123 08-04-2020 17:31:17 30.1 C 20 %
3124 08-04-2020 17:41:17 29 C 20 %
3125 08-04-2020 17:51:17 28.1 C 20 %
Sensor: Nr:Datum:Temp:Feuchte:
Aussen-T/F 3126 08-04-2020 18:01:17 26.6 C 20 %
3127 08-04-2020 18:11:17 25.2 C 20 %
3128 08-04-2020 18:21:17 24.7 C 20 %
3129 08-04-2020 18:31:18 24.3 C 20 %
3130 08-04-2020 18:41:18 24.1 C 20 %
3131 08-04-2020 18:51:17 23.8 C 20 %
3132 08-04-2020 19:01:17 23.2 C 20 %
3133 08-04-2020 19:11:17 22.6 C 20 %
3134 08-04-2020 19:21:17 21.4 C 20 %
3135 08-04-2020 19:31:17 20.1 C 20 %
3136 08-04-2020 19:41:17 19.7 C 20 %
3137 08-04-2020 19:51:17 19.2 C 20 %
3138 08-04-2020 20:01:17 18.5 C 20 %
3139 08-04-2020 20:11:17 18 C 20 %
3140 08-04-2020 20:21:18 17.5 C 20 %
3141 08-04-2020 20:31:17 17 C 20 %
3142 08-04-2020 20:41:18 16.2 C 20 %
3143 08-04-2020 20:51:17 15.6 C 20 %
3144 08-04-2020 21:01:18 14.6 C 20 %
3145 08-04-2020 21:11:18 13.9 C 20 %
3146 08-04-2020 21:21:17 14.2 C 20 %
3147 08-04-2020 21:31:17 13.7 C 20 %
3148 08-04-2020 21:41:17 13.5 C 20 %
3149 08-04-2020 21:51:17 13.4 C 20 %
3150 08-04-2020 22:01:17 12.9 C 21 %
Sensor: Nr:Datum:Temp:Feuchte:
Aussen-T/F 3151 08-04-2020 22:11:18 12.7 C 21 %
3152 08-04-2020 22:21:17 12.5 C 24 %
3153 08-04-2020 22:31:17 12.2 C 25 %
3154 08-04-2020 22:41:17 11.8 C 26 %
3155 08-04-2020 22:51:18 11.6 C 26 %
3156 08-04-2020 23:01:17 12 C 25 %
3157 08-04-2020 23:11:17 11.5 C 26 %
3158 08-04-2020 23:21:17 10.9 C 28 %
3159 08-04-2020 23:31:17 10.5 C 29 %
3160 08-04-2020 23:41:17 10.7 C 28 %
3161 08-04-2020 23:51:17 11.2 C 28 %
3162 09-04-2020 00:01:18 10.7 C 29 %
3163 09-04-2020 00:11:18 10.7 C 29 %
3164 09-04-2020 00:21:17 10.3 C 30 %
3165 09-04-2020 00:31:18 10 C 30 %
3166 09-04-2020 00:41:18 10.5 C 30 %
3167 09-04-2020 00:51:17 10.5 C 30 %
3168 09-04-2020 01:01:17 10 C 30 %
3169 09-04-2020 01:11:17 9.6 C 31 %
3170 09-04-2020 01:21:17 9.2 C 32 %
3171 09-04-2020 01:31:17 9.9 C 33 %
3172 09-04-2020 01:41:17 9.3 C 33 %
3173 09-04-2020 01:51:17 9.6 C 33 %
3174 09-04-2020 02:01:17 8.8 C 35 %
3175 09-04-2020 02:11:17 9.1 C 34 %
Sensor: Nr:Datum:Temp:Feuchte:
Aussen-T/F 3176 09-04-2020 02:21:18 9 C 34 %
3177 09-04-2020 02:31:18 8.8 C 35 %
3178 09-04-2020 02:41:18 8.7 C 35 %
3179 09-04-2020 02:51:17 8.8 C 35 %
3180 09-04-2020 03:01:17 9.2 C 34 %
3181 09-04-2020 03:11:17 9.7 C 33 %
3182 09-04-2020 03:21:17 9.5 C 33 %
3183 09-04-2020 03:31:17 9.4 C 34 %
3184 09-04-2020 03:41:17 9.5 C 34 %
3185 09-04-2020 03:51:17 10.2 C 32 %
3186 09-04-2020 04:01:17 9.9 C 34 %
3187 09-04-2020 04:11:17 10.1 C 33 %
3188 09-04-2020 04:21:17 10 C 33 %
3189 09-04-2020 04:31:18 9.4 C 34 %
3190 09-04-2020 04:41:18 9.3 C 35 %
3191 09-04-2020 04:51:17 8.9 C 35 %
3192 09-04-2020 05:01:17 8.7 C 36 %
3193 09-04-2020 05:11:17 8.6 C 35 %
3194 09-04-2020 05:21:17 8.5 C 36 %
3195 09-04-2020 05:31:18 8.2 C 36 %
3196 09-04-2020 05:41:18 8.1 C 36 %
3197 09-04-2020 05:51:17 8.1 C 37 %
3198 09-04-2020 06:01:18 8.1 C 37 %
3199 09-04-2020 06:11:18 7.7 C 38 %
3200 09-04-2020 06:21:17 7.1 C 38 %
Sensor: Nr:Datum:Temp:Feuchte:
Aussen-T/F 3201 09-04-2020 06:31:17 7 C 38 %
3202 09-04-2020 06:41:17 6.6 C 39 %
3203 09-04-2020 06:51:17 6.8 C 40 %
3204 09-04-2020 07:01:17 6.9 C 40 %
3205 09-04-2020 07:11:17 7.3 C 39 %
3206 09-04-2020 07:21:17 7.3 C 39 %
3207 09-04-2020 07:31:17 7 C 39 %
3208 09-04-2020 07:41:17 6.9 C 40 %
3209 09-04-2020 07:51:17 7 C 40 %
3210 09-04-2020 08:01:17 7 C 40 %
3211 09-04-2020 08:11:17 7.3 C 40 %
3212 09-04-2020 08:21:18 7.4 C 40 %
3213 09-04-2020 08:31:17 7.6 C 40 %
3214 09-04-2020 08:41:17 8 C 39 %
3215 09-04-2020 08:51:17 8.3 C 39 %
3216 09-04-2020 09:01:17 8.5 C 38 %
3217 09-04-2020 09:11:17 8.7 C 39 %
3218 09-04-2020 09:21:17 9 C 38 %
3219 09-04-2020 09:31:17 9.3 C 38 %
3220 09-04-2020 09:41:17 9.8 C 37 %
3221 09-04-2020 09:51:17 10.4 C 36 %
3222 09-04-2020 10:01:17 10.8 C 36 %
3223 09-04-2020 10:11:17 11.2 C 35 %
3224 09-04-2020 10:21:17 11.8 C 35 %
3225 09-04-2020 10:31:17 12.6 C 34 %
Sensor: Nr:Datum:Temp:Feuchte:
Aussen-T/F 3226 09-04-2020 10:41:17 13.3 C 32 %
3227 09-04-2020 10:51:18 14.6 C 31 %
3228 09-04-2020 11:01:17 15.4 C 30 %
3229 09-04-2020 11:11:18 16.2 C 28 %
3230 09-04-2020 11:21:17 17 C 25 %
3231 09-04-2020 11:31:17 17.9 C 23 %
3232 09-04-2020 11:41:17 18.5 C 21 %
3233 09-04-2020 11:51:18 19 C 20 %
3234 09-04-2020 12:01:17 19.3 C 20 %
3235 09-04-2020 12:11:17 19.8 C 20 %
3236 09-04-2020 12:21:17 20.7 C 20 %
3237 09-04-2020 12:31:17 22 C 20 %
3238 09-04-2020 12:41:17 23 C 20 %
3239 09-04-2020 12:51:18 22.3 C 20 %
3240 09-04-2020 13:01:17 23.2 C 20 %
3241 09-04-2020 13:11:17 23.3 C 20 %
3242 09-04-2020 13:21:17 22.9 C 20 %
3243 09-04-2020 13:31:17 22.4 C 20 %
3244 09-04-2020 13:41:18 22.6 C 20 %
3245 09-04-2020 13:51:17 22.8 C 20 %
3246 09-04-2020 14:01:17 24.1 C 20 %
3247 09-04-2020 14:11:17 23.8 C 20 %
3248 09-04-2020 14:21:17 24.3 C 20 %
3249 09-04-2020 14:31:17 26.8 C 20 %
3250 09-04-2020 14:41:17 28 C 20 %
Sensor: Nr:Datum:Temp:Feuchte:
Aussen-T/F 3251 09-04-2020 14:51:17 29.2 C 20 %
3252 09-04-2020 15:01:17 28.6 C 20 %
3253 09-04-2020 15:11:17 31.7 C 20 %
3254 09-04-2020 15:21:17 28.2 C 20 %
3255 09-04-2020 15:31:18 28.7 C 20 %
3256 09-04-2020 15:41:18 28.4 C 20 %
3257 09-04-2020 15:51:17 30.1 C 20 %
3258 09-04-2020 16:01:18 29.2 C 20 %
3259 09-04-2020 16:11:18 29.3 C 20 %
3260 09-04-2020 16:21:17 31.4 C 20 %
3261 09-04-2020 16:31:17 28.8 C 20 %
3262 09-04-2020 16:41:17 28.8 C 20 %
3263 09-04-2020 16:51:17 29.2 C 20 %
3264 09-04-2020 17:01:17 28.7 C 20 %
3265 09-04-2020 17:11:17 28.4 C 20 %
3266 09-04-2020 17:21:17 29.8 C 20 %
3267 09-04-2020 17:31:17 28 C 20 %
3268 09-04-2020 17:41:17 27.6 C 20 %
3269 09-04-2020 17:51:18 27.1 C 20 %
3270 09-04-2020 18:01:18 25.2 C 20 %
3271 09-04-2020 18:11:18 24 C 20 %
3272 09-04-2020 18:21:17 23.7 C 20 %
3273 09-04-2020 18:31:17 23.4 C 20 %
3274 09-04-2020 18:41:17 23.5 C 20 %
3275 09-04-2020 18:51:17 22.9 C 20 %
Sensor: Nr:Datum:Temp:Feuchte:
Aussen-T/F 3276 09-04-2020 19:01:18 22.7 C 20 %
3277 09-04-2020 19:11:18 22.4 C 20 %
3278 09-04-2020 19:21:17 21.8 C 20 %
3279 09-04-2020 19:31:17 21.1 C 20 %
3280 09-04-2020 19:41:17 20.6 C 20 %
3281 09-04-2020 19:51:17 20.1 C 20 %
3282 09-04-2020 20:01:17 19.7 C 20 %
3283 09-04-2020 20:11:17 17.9 C 20 %
3284 09-04-2020 20:21:17 16.6 C 20 %
3285 09-04-2020 20:31:17 16.6 C 20 %
3286 09-04-2020 20:41:17 16.1 C 21 %
3287 09-04-2020 20:51:17 16.4 C 20 %
3288 09-04-2020 21:01:17 16.2 C 20 %
3289 09-04-2020 21:11:17 16.4 C 20 %
3290 09-04-2020 21:21:17 16.5 C 20 %
3291 09-04-2020 21:31:17 15.9 C 21 %
3292 09-04-2020 21:41:17 15.4 C 22 %
3293 09-04-2020 21:51:17 15.5 C 22 %
3294 09-04-2020 22:01:17 15.5 C 22 %
3295 09-04-2020 22:11:17 15.2 C 22 %
3296 09-04-2020 22:21:17 15.1 C 22 %
3297 09-04-2020 22:31:18 14.8 C 24 %
3298 09-04-2020 22:41:18 14.6 C 25 %
3299 09-04-2020 22:51:17 14.3 C 25 %
3300 09-04-2020 23:01:18 14.2 C 25 %
Sensor: Nr:Datum:Temp:Feuchte:
Aussen-T/F 3301 09-04-2020 23:11:18 14.2 C 25 %
3302 09-04-2020 23:21:17 13.6 C 26 %
3303 09-04-2020 23:31:17 13.8 C 26 %
3304 09-04-2020 23:41:18 13.7 C 26 %
3305 09-04-2020 23:51:17 12.7 C 28 %
3306 10-04-2020 00:01:17 12.7 C 29 %
3307 10-04-2020 00:11:17 11.7 C 31 %
3308 10-04-2020 00:21:18 11.8 C 31 %
3309 10-04-2020 00:31:18 11.1 C 32 %
3310 10-04-2020 00:41:18 10.7 C 34 %
3311 10-04-2020 00:51:17 10.5 C 34 %
3312 10-04-2020 01:01:17 10.1 C 35 %
3313 10-04-2020 01:11:17 10 C 35 %
3314 10-04-2020 01:21:17 9.7 C 36 %
3315 10-04-2020 01:31:17 9.6 C 36 %
3316 10-04-2020 01:41:17 9.5 C 36 %
3317 10-04-2020 01:51:17 9 C 36 %
3318 10-04-2020 02:01:17 9.2 C 36 %
3319 10-04-2020 02:11:17 8.9 C 37 %
3320 10-04-2020 02:21:18 8.7 C 37 %
3321 10-04-2020 02:31:18 8.6 C 37 %
3322 10-04-2020 02:41:18 8.3 C 38 %
3323 10-04-2020 02:51:17 8.2 C 38 %
3324 10-04-2020 03:01:18 8.3 C 38 %
3325 10-04-2020 03:11:18 7.9 C 39 %
Sensor: Nr:Datum:Temp:Feuchte:
Aussen-T/F 3326 10-04-2020 03:21:17 7.6 C 39 %
3327 10-04-2020 03:31:17 7.4 C 40 %
3328 10-04-2020 03:41:17 7.2 C 40 %
3329 10-04-2020 03:51:17 7.1 C 40 %
3330 10-04-2020 04:01:18 7 C 40 %
3331 10-04-2020 04:11:18 6.8 C 41 %
3332 10-04-2020 04:21:17 6.9 C 41 %
3333 10-04-2020 04:31:17 6.6 C 41 %
3334 10-04-2020 04:41:17 6.6 C 41 %
3335 10-04-2020 04:51:18 6.6 C 41 %
3336 10-04-2020 05:01:17 6.3 C 41 %
3337 10-04-2020 05:11:17 6.3 C 42 %
3338 10-04-2020 05:21:18 6.4 C 42 %
3339 10-04-2020 05:31:17 6.2 C 42 %
3340 10-04-2020 05:41:17 5.9 C 43 %
3341 10-04-2020 05:51:17 5.7 C 43 %
3342 10-04-2020 06:01:17 5.8 C 44 %
3343 10-04-2020 06:11:17 5.8 C 44 %
3344 10-04-2020 06:21:17 5.6 C 44 %
3345 10-04-2020 06:31:18 5.4 C 44 %
3346 10-04-2020 06:41:18 5.4 C 44 %
3347 10-04-2020 06:51:17 5.4 C 44 %
3348 10-04-2020 07:01:18 5.3 C 44 %
3349 10-04-2020 07:11:18 5.3 C 45 %
3350 10-04-2020 07:21:17 5.3 C 45 %
Sensor: Nr:Datum:Temp:Feuchte:
Aussen-T/F 3351 10-04-2020 07:31:18 5.3 C 45 %
3352 10-04-2020 07:41:18 5.3 C 45 %
3353 10-04-2020 07:51:17 5.9 C 46 %
3354 10-04-2020 08:01:17 5.8 C 45 %
3355 10-04-2020 08:11:17 5.8 C 45 %
3356 10-04-2020 08:21:17 6 C 44 %
3357 10-04-2020 08:31:17 6.1 C 45 %
3358 10-04-2020 08:41:17 6.2 C 44 %
3359 10-04-2020 08:51:17 6.5 C 45 %
3360 10-04-2020 09:01:17 6.9 C 45 %
3361 10-04-2020 09:11:17 7.8 C 42 %
3362 10-04-2020 09:21:18 8.2 C 41 %
3363 10-04-2020 09:31:18 8.5 C 40 %
3364 10-04-2020 09:41:18 9.1 C 39 %
3365 10-04-2020 09:51:17 9.4 C 39 %
3366 10-04-2020 10:01:17 9.9 C 38 %
3367 10-04-2020 10:11:17 10.2 C 37 %
3368 10-04-2020 10:21:17 10.8 C 37 %
3369 10-04-2020 10:31:17 11.6 C 36 %
3370 10-04-2020 10:41:17 12.3 C 35 %
3371 10-04-2020 10:51:17 13.4 C 33 %
3372 10-04-2020 11:01:17 14 C 31 %
3373 10-04-2020 11:11:17 14.7 C 31 %
3374 10-04-2020 11:21:17 15.9 C 28 %
3375 10-04-2020 11:31:17 16.3 C 27 %
Sensor: Nr:Datum:Temp:Feuchte:
Aussen-T/F 3376 10-04-2020 11:41:17 16.8 C 26 %
3377 10-04-2020 11:51:17 17.5 C 25 %
3378 10-04-2020 12:01:17 17.9 C 24 %
3379 10-04-2020 12:11:17 18.4 C 21 %
3380 10-04-2020 12:21:17 19.2 C 20 %
3381 10-04-2020 12:31:17 19.7 C 20 %
3382 10-04-2020 12:41:17 20.6 C 20 %
3383 10-04-2020 12:51:17 20.4 C 20 %
3384 10-04-2020 13:01:17 20.8 C 20 %
3385 10-04-2020 13:11:17 20.2 C 20 %
3386 10-04-2020 13:21:17 20.4 C 20 %
3387 10-04-2020 13:31:17 20.2 C 20 %
3388 10-04-2020 13:41:17 20.4 C 20 %
3389 10-04-2020 13:51:17 20.7 C 20 %
3390 10-04-2020 14:01:17 21.7 C 20 %
3391 10-04-2020 14:11:17 21.6 C 20 %
3392 10-04-2020 14:21:18 22 C 20 %
3393 10-04-2020 14:31:18 25.1 C 20 %
3394 10-04-2020 14:41:18 29.1 C 20 %
3395 10-04-2020 14:51:17 27.6 C 20 %
3396 10-04-2020 15:01:17 27.9 C 20 %
3397 10-04-2020 15:11:17 31.6 C 20 %
3398 10-04-2020 15:21:17 30.1 C 20 %
3399 10-04-2020 15:31:17 30.5 C 20 %
3400 10-04-2020 15:41:17 30.2 C 20 %
Sensor: Nr:Datum:Temp:Feuchte:
Aussen-T/F 3401 10-04-2020 15:51:17 29.1 C 20 %
3402 10-04-2020 16:01:17 29.8 C 20 %
3403 10-04-2020 16:11:17 30.3 C 20 %
3404 10-04-2020 16:21:17 28.8 C 20 %
3405 10-04-2020 16:31:17 29.1 C 20 %
3406 10-04-2020 16:41:17 28.3 C 20 %
3407 10-04-2020 16:51:17 30.8 C 20 %
3408 10-04-2020 17:01:17 29.6 C 20 %
3409 10-04-2020 17:11:17 28.8 C 20 %
3410 10-04-2020 17:21:17 26.8 C 20 %
3411 10-04-2020 17:31:17 28.5 C 20 %
3412 10-04-2020 17:41:17 27.6 C 20 %
3413 10-04-2020 17:51:18 26.4 C 20 %
3414 10-04-2020 18:01:17 23.6 C 20 %
3415 10-04-2020 18:11:17 23 C 20 %
3416 10-04-2020 18:21:18 22.5 C 20 %
3417 10-04-2020 18:31:18 22.2 C 20 %
3418 10-04-2020 18:41:18 22.3 C 20 %
3419 10-04-2020 18:51:17 22 C 20 %
3420 10-04-2020 19:01:17 21.6 C 20 %
3421 10-04-2020 19:11:17 21.4 C 20 %
3422 10-04-2020 19:21:17 21.1 C 20 %
3423 10-04-2020 19:31:17 20.9 C 20 %
3424 10-04-2020 19:41:17 20.7 C 20 %
3425 10-04-2020 19:51:18 20.2 C 20 %
Sensor: Nr:Datum:Temp:Feuchte:
Aussen-T/F 3426 10-04-2020 20:01:17 19.6 C 20 %
3427 10-04-2020 20:11:17 18.5 C 20 %
3428 10-04-2020 20:21:18 16 C 20 %
3429 10-04-2020 20:31:17 15.9 C 20 %
3430 10-04-2020 20:41:17 15.3 C 20 %
3431 10-04-2020 20:51:17 15 C 20 %
3432 10-04-2020 21:01:17 15.3 C 20 %
3433 10-04-2020 21:11:17 14.7 C 20 %
3434 10-04-2020 21:21:17 14.3 C 21 %
3435 10-04-2020 21:31:17 13.8 C 21 %
3436 10-04-2020 21:41:17 14.2 C 21 %
3437 10-04-2020 21:51:17 14.3 C 21 %
3438 10-04-2020 22:01:18 14.5 C 21 %
3439 10-04-2020 22:11:18 14.9 C 20 %
3440 10-04-2020 22:21:18 14.5 C 22 %
3441 10-04-2020 22:31:17 14.5 C 22 %
3442 10-04-2020 22:41:17 13.9 C 24 %
3443 10-04-2020 22:51:17 13.1 C 25 %
3444 10-04-2020 23:01:17 12.7 C 25 %
3445 10-04-2020 23:11:17 12.8 C 25 %
3446 10-04-2020 23:21:17 12 C 26 %
3447 10-04-2020 23:31:17 12.2 C 26 %
3448 10-04-2020 23:41:17 11.2 C 28 %
3449 10-04-2020 23:51:17 11.1 C 29 %
3450 11-04-2020 00:01:18 10.5 C 30 %
Sensor: Nr:Datum:Temp:Feuchte:
Aussen-T/F 3451 11-04-2020 00:11:18 10.8 C 30 %
3452 11-04-2020 00:21:17 10.8 C 30 %
3453 11-04-2020 00:31:17 10.1 C 31 %
3454 11-04-2020 00:41:18 9.9 C 32 %
3455 11-04-2020 00:51:18 10 C 31 %
3456 11-04-2020 01:01:17 9.6 C 31 %
3457 11-04-2020 01:11:17 9.6 C 32 %
3458 11-04-2020 01:21:17 9.1 C 32 %
3459 11-04-2020 01:31:18 9.2 C 32 %
3460 11-04-2020 01:41:18 9 C 32 %
3461 11-04-2020 01:51:18 8.7 C 32 %
3462 11-04-2020 02:01:17 8.4 C 32 %
3463 11-04-2020 02:11:17 8.2 C 32 %
3464 11-04-2020 02:21:18 8.1 C 32 %
3465 11-04-2020 02:31:17 8.3 C 32 %
3466 11-04-2020 02:41:17 8.1 C 32 %
3467 11-04-2020 02:51:17 7.9 C 33 %
3468 11-04-2020 03:01:17 8.5 C 31 %
3469 11-04-2020 03:11:17 8.7 C 31 %
3470 11-04-2020 03:21:17 8.8 C 30 %
3471 11-04-2020 03:31:18 8.8 C 30 %
3472 11-04-2020 03:41:18 8.2 C 30 %
3473 11-04-2020 03:51:17 8.6 C 30 %
3474 11-04-2020 04:01:17 8.3 C 30 %
3475 11-04-2020 04:11:17 8.3 C 30 %
Sensor: Nr:Datum:Temp:Feuchte:
Aussen-T/F 3476 11-04-2020 04:21:17 7.7 C 30 %
3477 11-04-2020 04:31:17 7.4 C 30 %
3478 11-04-2020 04:41:17 7.5 C 30 %
3479 11-04-2020 04:51:17 7.6 C 29 %
3480 11-04-2020 05:01:17 7.4 C 29 %
3481 11-04-2020 05:11:17 6.9 C 30 %
3482 11-04-2020 05:21:17 6.8 C 30 %
3483 11-04-2020 05:31:18 6.1 C 31 %
3484 11-04-2020 05:41:18 5.8 C 32 %
3485 11-04-2020 05:51:17 5.7 C 32 %
3486 11-04-2020 06:01:17 5.6 C 32 %
3487 11-04-2020 06:11:17 5 C 33 %
3488 11-04-2020 06:21:17 4.9 C 35 %
3489 11-04-2020 06:31:18 5 C 33 %
3490 11-04-2020 06:41:18 4.6 C 35 %
3491 11-04-2020 06:51:17 4.6 C 35 %
3492 11-04-2020 07:01:18 4.4 C 35 %
3493 11-04-2020 07:11:18 4.5 C 35 %
3494 11-04-2020 07:21:17 4.4 C 35 %
3495 11-04-2020 07:31:18 4.4 C 36 %
3496 11-04-2020 07:41:18 4.7 C 35 %
3497 11-04-2020 07:51:17 5 C 34 %
3498 11-04-2020 08:01:18 5 C 34 %
3499 11-04-2020 08:11:18 5 C 35 %
3500 11-04-2020 08:21:18 5.1 C 35 %
Sensor: Nr:Datum:Temp:Feuchte:
Aussen-T/F 3501 11-04-2020 08:31:18 5.5 C 34 %
3502 11-04-2020 08:41:18 6 C 33 %
3503 11-04-2020 08:51:18 6.4 C 32 %
3504 11-04-2020 09:01:17 6.5 C 33 %
3505 11-04-2020 09:11:18 7.1 C 31 %
3506 11-04-2020 09:21:17 7.3 C 31 %
3507 11-04-2020 09:31:18 7.8 C 31 %
3508 11-04-2020 09:41:18 8.2 C 30 %
3509 11-04-2020 09:51:17 8.6 C 30 %
3510 11-04-2020 10:01:17 9.1 C 29 %
3511 11-04-2020 10:11:17 9.5 C 29 %
3512 11-04-2020 10:21:17 10.2 C 26 %
3513 11-04-2020 10:31:17 10.7 C 27 %
3514 11-04-2020 10:41:17 11.5 C 25 %
3515 11-04-2020 10:51:17 12.3 C 21 %
3516 11-04-2020 11:01:18 12.9 C 20 %
3517 11-04-2020 11:11:18 13.7 C 20 %
3518 11-04-2020 11:21:17 14.5 C 20 %
3519 11-04-2020 11:31:17 15.3 C 20 %
3520 11-04-2020 11:41:18 16 C 20 %
3521 11-04-2020 11:51:17 16.5 C 20 %
3522 11-04-2020 12:01:17 17.2 C 20 %
3523 11-04-2020 12:11:17 17.5 C 20 %
3524 11-04-2020 12:21:18 18.1 C 20 %
3525 11-04-2020 12:31:17 19.1 C 20 %
Sensor: Nr:Datum:Temp:Feuchte:
Aussen-T/F 3526 11-04-2020 12:41:17 19.4 C 20 %
3527 11-04-2020 12:51:17 19.5 C 20 %
3528 11-04-2020 13:01:17 19.6 C 20 %
3529 11-04-2020 13:11:17 19.5 C 20 %
3530 11-04-2020 13:21:17 19.5 C 20 %
3531 11-04-2020 13:31:17 19.6 C 20 %
3532 11-04-2020 13:41:17 19.9 C 20 %
3533 11-04-2020 13:51:17 20.2 C 20 %
3534 11-04-2020 14:01:18 20.9 C 20 %
3535 11-04-2020 14:11:18 21.3 C 20 %
3536 11-04-2020 14:21:17 21.5 C 20 %
3537 11-04-2020 14:31:17 24.4 C 20 %
3538 11-04-2020 14:41:17 27.5 C 20 %
3539 11-04-2020 14:51:18 27.4 C 20 %
3540 11-04-2020 15:01:18 28.6 C 20 %
3541 11-04-2020 15:11:18 30.4 C 20 %
3542 11-04-2020 15:21:17 29.9 C 20 %
3543 11-04-2020 15:31:17 30.4 C 20 %
3544 11-04-2020 15:41:17 31.2 C 20 %
3545 11-04-2020 15:51:18 31.8 C 20 %
3546 11-04-2020 16:01:17 28.5 C 20 %
3547 11-04-2020 16:11:17 31.4 C 20 %
3548 11-04-2020 16:21:18 30.7 C 20 %
3549 11-04-2020 16:31:17 31.5 C 20 %
3550 11-04-2020 16:41:17 31.3 C 20 %
Sensor: Nr:Datum:Temp:Feuchte:
Aussen-T/F 3551 11-04-2020 16:51:17 32.1 C 20 %
3552 11-04-2020 17:01:17 31.8 C 20 %
3553 11-04-2020 17:11:17 29.5 C 20 %
3554 11-04-2020 17:21:17 29.8 C 20 %
3555 11-04-2020 17:31:17 28.7 C 20 %
3556 11-04-2020 17:41:17 26.5 C 20 %
3557 11-04-2020 17:51:17 27.5 C 20 %
3558 11-04-2020 18:01:17 24.2 C 20 %
3559 11-04-2020 18:11:17 23.4 C 20 %
3560 11-04-2020 18:21:17 23.6 C 20 %
3561 11-04-2020 18:31:17 23.6 C 20 %
3562 11-04-2020 18:41:17 23.3 C 20 %
3563 11-04-2020 18:51:17 22.9 C 20 %
3564 11-04-2020 19:01:17 22.9 C 20 %
3565 11-04-2020 19:11:17 22.7 C 20 %
3566 11-04-2020 19:21:18 22 C 20 %
3567 11-04-2020 19:31:17 21.7 C 20 %
3568 11-04-2020 19:41:17 21.2 C 20 %
3569 11-04-2020 19:51:17 18.9 C 20 %
3570 11-04-2020 20:01:17 18 C 20 %
3571 11-04-2020 20:11:17 17.1 C 20 %
3572 11-04-2020 20:21:17 16.6 C 20 %
3573 11-04-2020 20:31:17 16.5 C 20 %
3574 11-04-2020 20:41:17 16.5 C 20 %
3575 11-04-2020 20:51:17 16.2 C 20 %
Sensor: Nr:Datum:Temp:Feuchte:
Aussen-T/F 3576 11-04-2020 21:01:18 16 C 20 %
3577 11-04-2020 21:11:18 15.5 C 20 %
3578 11-04-2020 21:21:18 15.4 C 20 %
3579 11-04-2020 21:31:17 15.1 C 20 %
3580 11-04-2020 21:41:17 14.8 C 20 %
3581 11-04-2020 21:51:17 14.5 C 20 %
3582 11-04-2020 22:01:17 14.3 C 20 %
3583 11-04-2020 22:11:17 14.4 C 20 %
3584 11-04-2020 22:21:17 14 C 20 %
3585 11-04-2020 22:31:18 14 C 21 %
3586 11-04-2020 22:41:18 14.4 C 21 %
3587 11-04-2020 22:51:17 14.4 C 22 %
3588 11-04-2020 23:01:17 13.7 C 23 %
3589 11-04-2020 23:11:17 13 C 24 %
3590 11-04-2020 23:21:18 12.3 C 26 %
3591 11-04-2020 23:31:18 12.1 C 26 %
3592 11-04-2020 23:41:18 11.8 C 27 %
3593 11-04-2020 23:51:17 11.7 C 28 %
3594 12-04-2020 00:01:17 11.6 C 29 %
3595 12-04-2020 00:11:17 11.3 C 28 %
3596 12-04-2020 00:21:17 11.3 C 29 %
3597 12-04-2020 00:31:17 11.5 C 29 %
3598 12-04-2020 00:41:17 11.6 C 29 %
3599 12-04-2020 00:51:17 11.4 C 28 %
3600 12-04-2020 01:01:17 11.3 C 28 %
Sensor: Nr:Datum:Temp:Feuchte:
Aussen-T/F 3601 12-04-2020 01:11:17 11 C 28 %
3602 12-04-2020 01:21:17 10.6 C 29 %
3603 12-04-2020 01:31:18 10.3 C 29 %
3604 12-04-2020 01:41:18 10.2 C 30 %
3605 12-04-2020 01:51:17 10.6 C 29 %
3606 12-04-2020 02:01:18 10.8 C 30 %
3607 12-04-2020 02:11:18 10.7 C 31 %
3608 12-04-2020 02:21:18 10.3 C 31 %
3609 12-04-2020 02:31:17 10.4 C 30 %
3610 12-04-2020 02:41:17 10.2 C 31 %
3611 12-04-2020 02:51:17 10.1 C 31 %
3612 12-04-2020 03:01:17 10.3 C 31 %
3613 12-04-2020 03:11:17 10.2 C 31 %
3614 12-04-2020 03:21:17 10.1 C 32 %
3615 12-04-2020 03:31:17 10 C 32 %
3616 12-04-2020 03:41:18 9.9 C 33 %
3617 12-04-2020 03:51:17 10 C 32 %
3618 12-04-2020 04:01:17 9.8 C 33 %
3619 12-04-2020 04:11:17 9.7 C 33 %
3620 12-04-2020 04:21:17 8.9 C 35 %
3621 12-04-2020 04:31:17 8.8 C 34 %
3622 12-04-2020 04:41:17 8.9 C 35 %
3623 12-04-2020 04:51:17 8.5 C 35 %
3624 12-04-2020 05:01:18 8.2 C 36 %
3625 12-04-2020 05:11:18 8.4 C 36 %
Sensor: Nr:Datum:Temp:Feuchte:
Aussen-T/F 3626 12-04-2020 05:21:17 8.5 C 36 %
3627 12-04-2020 05:31:17 8.2 C 36 %
3628 12-04-2020 05:41:17 8 C 36 %
3629 12-04-2020 05:51:17 7.6 C 37 %
3630 12-04-2020 06:01:17 7.7 C 37 %
3631 12-04-2020 06:11:17 7.5 C 38 %
3632 12-04-2020 06:21:17 7.2 C 38 %
3633 12-04-2020 06:31:17 7.1 C 39 %
3634 12-04-2020 06:41:17 7.2 C 39 %
3635 12-04-2020 06:51:17 7.3 C 39 %
3636 12-04-2020 07:01:17 6.9 C 39 %
3637 12-04-2020 07:11:17 6.7 C 40 %
3638 12-04-2020 07:21:17 6.5 C 40 %
3639 12-04-2020 07:31:17 6.7 C 40 %
3640 12-04-2020 07:41:17 7.1 C 40 %
3641 12-04-2020 07:51:18 7 C 40 %
3642 12-04-2020 08:01:17 7.3 C 40 %
3643 12-04-2020 08:11:17 7.5 C 40 %
3644 12-04-2020 08:21:17 7.5 C 40 %
3645 12-04-2020 08:31:17 7.6 C 40 %
3646 12-04-2020 08:41:18 7.9 C 40 %
3647 12-04-2020 08:51:17 8.2 C 40 %
3648 12-04-2020 09:01:18 8.8 C 39 %
3649 12-04-2020 09:11:18 9.2 C 38 %
3650 12-04-2020 09:21:17 9.5 C 38 %
Sensor: Nr:Datum:Temp:Feuchte:
Aussen-T/F 3651 12-04-2020 09:31:17 10 C 37 %
3652 12-04-2020 09:41:17 10.1 C 37 %
3653 12-04-2020 09:51:17 11 C 36 %
3654 12-04-2020 10:01:17 11.3 C 36 %
3655 12-04-2020 10:11:17 11.7 C 35 %
3656 12-04-2020 10:21:17 12.2 C 35 %
3657 12-04-2020 10:31:18 13.2 C 33 %
3658 12-04-2020 10:41:18 14.4 C 31 %
3659 12-04-2020 10:51:17 14.9 C 31 %
3660 12-04-2020 11:01:17 15.6 C 30 %
3661 12-04-2020 11:11:17 17 C 27 %
3662 12-04-2020 11:21:17 17.6 C 27 %
3663 12-04-2020 11:31:17 18 C 26 %
3664 12-04-2020 11:41:17 18.5 C 24 %
3665 12-04-2020 11:51:17 19.1 C 20 %
3666 12-04-2020 12:01:17 20.6 C 20 %
3667 12-04-2020 12:11:17 20.8 C 20 %
3668 12-04-2020 12:21:17 21.7 C 20 %
3669 12-04-2020 12:31:17 21.6 C 20 %
3670 12-04-2020 12:41:17 21.8 C 20 %
3671 12-04-2020 12:51:18 21.2 C 20 %
3672 12-04-2020 13:01:17 21.7 C 20 %
3673 12-04-2020 13:11:17 21.7 C 20 %
3674 12-04-2020 13:21:17 22 C 20 %
3675 12-04-2020 13:31:17 21.7 C 20 %
Sensor: Nr:Datum:Temp:Feuchte:
Aussen-T/F 3676 12-04-2020 13:41:17 22 C 20 %
3677 12-04-2020 13:51:17 22.1 C 20 %
3678 12-04-2020 14:01:17 22.4 C 20 %
3679 12-04-2020 14:11:17 22.8 C 20 %
3680 12-04-2020 14:21:17 22.9 C 20 %
3681 12-04-2020 14:31:17 26.2 C 20 %
3682 12-04-2020 14:41:17 28.6 C 20 %
3683 12-04-2020 14:51:17 28.5 C 20 %
3684 12-04-2020 15:01:17 30.3 C 20 %
3685 12-04-2020 15:11:17 27.7 C 20 %
3686 12-04-2020 15:21:17 27.9 C 20 %
3687 12-04-2020 15:31:18 30.7 C 20 %
3688 12-04-2020 15:41:18 30.5 C 20 %
3689 12-04-2020 15:51:18 28.3 C 20 %
3690 12-04-2020 16:01:17 30.5 C 20 %
3691 12-04-2020 16:11:17 33.2 C 20 %
3692 12-04-2020 16:21:17 32.8 C 20 %
3693 12-04-2020 16:31:17 27.8 C 20 %
3694 12-04-2020 16:41:17 26 C 20 %
3695 12-04-2020 16:51:17 24.7 C 20 %
3696 12-04-2020 17:01:17 29.6 C 20 %
3697 12-04-2020 17:11:18 29.6 C 20 %
3698 12-04-2020 17:21:17 29.5 C 20 %
3699 12-04-2020 17:31:17 26.5 C 20 %
3700 12-04-2020 17:41:17 29.3 C 20 %
Sensor: Nr:Datum:Temp:Feuchte:
Aussen-T/F 3701 12-04-2020 17:51:17 29.8 C 20 %
3702 12-04-2020 18:01:18 24.6 C 20 %
3703 12-04-2020 18:11:18 24 C 20 %
3704 12-04-2020 18:21:17 24 C 20 %
3705 12-04-2020 18:31:17 23.6 C 20 %
3706 12-04-2020 18:41:17 22.9 C 20 %
3707 12-04-2020 18:51:17 22.4 C 20 %
3708 12-04-2020 19:01:17 22.5 C 20 %
3709 12-04-2020 19:11:17 22.4 C 20 %
3710 12-04-2020 19:21:17 22 C 20 %
3711 12-04-2020 19:31:17 21.6 C 20 %
3712 12-04-2020 19:41:17 20.3 C 20 %
3713 12-04-2020 19:51:18 19.1 C 20 %
3714 12-04-2020 20:01:18 18.2 C 20 %
3715 12-04-2020 20:11:18 17.9 C 20 %
3716 12-04-2020 20:21:17 17.5 C 20 %
3717 12-04-2020 20:31:18 17 C 20 %
3718 12-04-2020 20:41:18 16.8 C 20 %
3719 12-04-2020 20:51:17 16 C 20 %
3720 12-04-2020 21:01:17 15.5 C 20 %
3721 12-04-2020 21:11:17 14 C 20 %
3722 12-04-2020 21:22:17 13.5 C 20 %
3723 12-04-2020 21:31:17 13.2 C 21 %
3724 12-04-2020 21:41:17 13.2 C 20 %
3725 12-04-2020 21:51:17 13.3 C 21 %
Sensor: Nr:Datum:Temp:Feuchte:
Aussen-T/F 3726 12-04-2020 22:01:17 13.4 C 20 %
3727 12-04-2020 22:11:17 13 C 21 %
3728 12-04-2020 22:22:17 12.9 C 22 %
3729 12-04-2020 22:32:17 12.2 C 23 %
3730 12-04-2020 22:42:17 11.8 C 26 %
3731 12-04-2020 22:51:17 11.7 C 25 %
3732 12-04-2020 23:01:18 11.5 C 25 %
3733 12-04-2020 23:11:18 11.1 C 26 %
3734 12-04-2020 23:21:17 10.9 C 27 %
3735 12-04-2020 23:32:17 10.7 C 28 %
3736 12-04-2020 23:41:17 10.3 C 28 %
3737 12-04-2020 23:52:17 10.5 C 28 %
3738 13-04-2020 00:01:17 10.6 C 28 %
3739 13-04-2020 00:11:17 10.4 C 29 %
3740 13-04-2020 00:21:18 10.4 C 30 %
3741 13-04-2020 00:31:17 10.1 C 30 %
3742 13-04-2020 00:41:17 9.9 C 31 %
3743 13-04-2020 00:51:17 9.7 C 31 %
3744 13-04-2020 01:01:18 9.5 C 31 %
3745 13-04-2020 01:11:18 9.4 C 32 %
3746 13-04-2020 01:21:18 9 C 32 %
3747 13-04-2020 01:31:18 9.3 C 32 %
3748 13-04-2020 01:41:18 9.2 C 32 %
3749 13-04-2020 01:51:18 9.3 C 32 %
3750 13-04-2020 02:02:17 9.2 C 32 %
Sensor: Nr:Datum:Temp:Feuchte:
Aussen-T/F 3751 13-04-2020 02:12:17 9.2 C 32 %
3752 13-04-2020 02:21:17 9.1 C 32 %
3753 13-04-2020 02:31:18 9 C 33 %
3754 13-04-2020 02:41:18 8.6 C 34 %
3755 13-04-2020 02:51:17 8.6 C 34 %
3756 13-04-2020 03:01:18 8.4 C 34 %
3757 13-04-2020 03:11:18 8.2 C 35 %
3758 13-04-2020 03:22:17 7.9 C 35 %
3759 13-04-2020 03:32:17 8.1 C 35 %
3760 13-04-2020 03:42:17 8 C 35 %
3761 13-04-2020 03:51:17 7.8 C 35 %
3762 13-04-2020 04:02:17 7.5 C 36 %
3763 13-04-2020 04:12:17 7.2 C 36 %
3764 13-04-2020 04:21:18 6.8 C 38 %
3765 13-04-2020 04:32:17 6.8 C 38 %
3766 13-04-2020 04:41:17 6.7 C 39 %
3767 13-04-2020 04:52:17 7.7 C 37 %
3768 13-04-2020 05:02:17 7.3 C 37 %
3769 13-04-2020 05:12:17 7.5 C 38 %
3770 13-04-2020 05:22:17 7.8 C 38 %
3771 13-04-2020 05:32:17 7.6 C 37 %
3772 13-04-2020 05:42:17 7.4 C 37 %
3773 13-04-2020 05:52:17 7.2 C 38 %
3774 13-04-2020 06:02:17 7.2 C 38 %
3775 13-04-2020 06:12:17 6.6 C 39 %
Sensor: Nr:Datum:Temp:Feuchte:
Aussen-T/F 3776 13-04-2020 06:22:17 6.2 C 39 %
3777 13-04-2020 06:32:17 6.3 C 40 %
3778 13-04-2020 06:42:17 6.3 C 40 %
3779 13-04-2020 06:52:17 6.4 C 40 %
3780 13-04-2020 07:02:17 6.5 C 40 %
3781 13-04-2020 07:12:17 7.2 C 39 %
3782 13-04-2020 07:22:17 7.6 C 38 %
3783 13-04-2020 07:32:17 8.1 C 37 %
3784 13-04-2020 07:42:17 8.3 C 37 %
3785 13-04-2020 07:52:17 8.5 C 37 %
3786 13-04-2020 08:02:17 8.6 C 36 %
3787 13-04-2020 08:12:18 8.9 C 36 %
3788 13-04-2020 08:22:17 9 C 36 %
3789 13-04-2020 08:32:17 9.4 C 36 %
3790 13-04-2020 08:42:17 10.7 C 37 %
3791 13-04-2020 08:52:17 11.1 C 36 %
3792 13-04-2020 09:02:17 10.7 C 37 %
3793 13-04-2020 09:12:17 10.7 C 37 %
3794 13-04-2020 09:22:17 11 C 36 %
3795 13-04-2020 09:32:17 11.5 C 36 %
3796 13-04-2020 09:42:17 11.9 C 35 %
3797 13-04-2020 09:52:17 11.4 C 35 %
3798 13-04-2020 10:02:17 11.2 C 35 %
3799 13-04-2020 10:12:17 11.1 C 35 %
3800 13-04-2020 10:22:17 11 C 34 %
Sensor: Nr:Datum:Temp:Feuchte:
Aussen-T/F 3801 13-04-2020 10:32:17 11.1 C 34 %
3802 13-04-2020 10:42:17 11.3 C 34 %
3803 13-04-2020 10:52:17 11.6 C 33 %
3804 13-04-2020 11:02:17 11.6 C 33 %
3805 13-04-2020 11:12:17 11.4 C 32 %
3806 13-04-2020 11:22:17 11.8 C 32 %
3807 13-04-2020 11:32:17 11.5 C 31 %
3808 13-04-2020 11:42:17 11.1 C 31 %
3809 13-04-2020 11:52:16 10.8 C 32 %
3810 13-04-2020 12:02:17 10.9 C 32 %
3811 13-04-2020 12:12:17 10.5 C 33 %
3812 13-04-2020 12:22:17 10.4 C 33 %
3813 13-04-2020 12:32:17 10.7 C 32 %
3814 13-04-2020 12:42:17 11.1 C 32 %
3815 13-04-2020 12:52:17 10.6 C 32 %
3816 13-04-2020 13:02:16 10.3 C 32 %
3817 13-04-2020 13:12:16 10.2 C 32 %
3818 13-04-2020 13:22:17 10.2 C 32 %
3819 13-04-2020 13:32:17 9.6 C 33 %
3820 13-04-2020 13:42:17 8.6 C 35 %
3821 13-04-2020 13:52:17 7.6 C 39 %
3822 13-04-2020 14:02:17 7.5 C 40 %
3823 13-04-2020 14:12:17 7.7 C 38 %
3824 13-04-2020 14:22:16 8.7 C 36 %
3825 13-04-2020 14:32:17 9.2 C 35 %
Sensor: Nr:Datum:Temp:Feuchte:
Aussen-T/F 3826 13-04-2020 14:42:17 9.6 C 34 %
3827 13-04-2020 14:52:16 10.9 C 31 %
3828 13-04-2020 15:02:17 12.4 C 26 %
3829 13-04-2020 15:12:17 12.3 C 25 %
3830 13-04-2020 15:22:17 12.7 C 20 %
3831 13-04-2020 15:32:17 11.8 C 20 %
3832 13-04-2020 15:42:17 12.4 C 20 %
3833 13-04-2020 15:52:16 13.2 C 20 %
3834 13-04-2020 16:02:16 12.2 C 20 %
3835 13-04-2020 16:12:16 14.4 C 20 %
3836 13-04-2020 16:22:16 15 C 20 %
3837 13-04-2020 16:32:17 16 C 20 %
3838 13-04-2020 16:42:17 14.9 C 20 %
3839 13-04-2020 16:52:16 16.5 C 20 %
3840 13-04-2020 17:02:17 15.2 C 20 %
3841 13-04-2020 17:12:17 15.6 C 20 %
3842 13-04-2020 17:22:16 15 C 20 %
3843 13-04-2020 17:32:16 15 C 20 %
3844 13-04-2020 17:42:16 14.5 C 20 %
3845 13-04-2020 17:52:16 15.4 C 20 %
3846 13-04-2020 18:02:16 13.2 C 20 %
3847 13-04-2020 18:12:16 12.5 C 20 %
3848 13-04-2020 18:22:17 12.1 C 20 %
3849 13-04-2020 18:32:17 11.9 C 20 %
3850 13-04-2020 18:42:18 11.1 C 20 %
Sensor: Nr:Datum:Temp:Feuchte:
Aussen-T/F 3851 13-04-2020 18:52:16 11.1 C 20 %
3852 13-04-2020 19:02:16 10.8 C 20 %
3853 13-04-2020 19:12:16 10.5 C 20 %
3854 13-04-2020 19:22:16 10.2 C 20 %
3855 13-04-2020 19:32:17 10 C 20 %
3856 13-04-2020 19:42:17 9.8 C 20 %
3857 13-04-2020 19:52:16 9.6 C 20 %
3858 13-04-2020 20:02:16 9 C 20 %
3859 13-04-2020 20:12:16 8.6 C 20 %
3860 13-04-2020 20:22:16 8.5 C 20 %
3861 13-04-2020 20:32:16 8.4 C 20 %
3862 13-04-2020 20:42:16 8.2 C 20 %
3863 13-04-2020 20:52:16 7.5 C 20 %
3864 13-04-2020 21:02:16 7.5 C 20 %
3865 13-04-2020 21:12:16 7.4 C 20 %
3866 13-04-2020 21:22:16 7.3 C 20 %
3867 13-04-2020 21:32:17 7.2 C 20 %
3868 13-04-2020 21:42:17 6.7 C 20 %
3869 13-04-2020 21:52:16 6.5 C 20 %
3870 13-04-2020 22:02:16 6.1 C 20 %
3871 13-04-2020 22:12:16 5.5 C 20 %
3872 13-04-2020 22:22:16 5.1 C 20 %
3873 13-04-2020 22:32:16 4.6 C 23 %
3874 13-04-2020 22:42:16 4.4 C 25 %
3875 13-04-2020 22:52:16 4.1 C 25 %
Sensor: Nr:Datum:Temp:Feuchte:
Aussen-T/F 3876 13-04-2020 23:02:16 3.9 C 26 %
3877 13-04-2020 23:12:16 3.8 C 27 %
3878 13-04-2020 23:22:16 3.5 C 30 %
3879 13-04-2020 23:32:17 3.3 C 29 %
3880 13-04-2020 23:42:17 4 C 26 %
3881 13-04-2020 23:52:16 4 C 25 %
3882 14-04-2020 00:02:16 3.3 C 28 %
3883 14-04-2020 00:12:16 4.1 C 25 %
3884 14-04-2020 00:22:16 3.2 C 27 %
3885 14-04-2020 00:32:16 3.3 C 27 %
3886 14-04-2020 00:42:16 2.8 C 29 %
3887 14-04-2020 00:52:16 2.9 C 29 %
3888 14-04-2020 01:02:16 3.1 C 27 %
3889 14-04-2020 01:12:16 3.4 C 27 %
3890 14-04-2020 01:22:16 2.8 C 28 %
3891 14-04-2020 01:32:16 2.1 C 30 %
3892 14-04-2020 01:42:16 1.9 C 33 %
3893 14-04-2020 01:52:16 1.2 C 35 %
3894 14-04-2020 02:02:16 1.6 C 35 %
3895 14-04-2020 02:12:16 1.3 C 35 %
3896 14-04-2020 02:22:16 0.9 C 36 %
3897 14-04-2020 02:32:16 0.8 C 36 %
3898 14-04-2020 02:42:16 1.1 C 35 %
3899 14-04-2020 02:52:18 1 C 35 %
3900 14-04-2020 03:02:18 1.1 C 35 %
Sensor: Nr:Datum:Temp:Feuchte:
Aussen-T/F 3901 14-04-2020 03:12:18 1.1 C 35 %
3902 14-04-2020 03:22:17 0.7 C 36 %
3903 14-04-2020 03:32:18 1.1 C 36 %
3904 14-04-2020 03:42:18 0.9 C 36 %
3905 14-04-2020 03:52:17 1 C 35 %
3906 14-04-2020 04:02:18 0.9 C 36 %
3907 14-04-2020 04:12:18 0.9 C 36 %
3908 14-04-2020 04:22:17 0.6 C 36 %
3909 14-04-2020 04:32:17 0.7 C 36 %
3910 14-04-2020 04:42:17 0.7 C 36 %
3911 14-04-2020 04:52:18 0.6 C 36 %
3912 14-04-2020 05:02:17 0 C 37 %
3913 14-04-2020 05:12:17 0 C 38 %
3914 14-04-2020 05:22:17 0.6 C 38 %
3915 14-04-2020 05:32:17 0.6 C 39 %
3916 14-04-2020 05:42:17 0.7 C 39 %
3917 14-04-2020 05:52:17 0 C 39 %
3918 14-04-2020 06:02:17 -0.2 C 40 %
3919 14-04-2020 06:12:17 -0.7 C 41 %
3920 14-04-2020 06:22:17 -0.9 C 41 %
3921 14-04-2020 06:32:17 -0.4 C 41 %
3922 14-04-2020 06:42:17 -0.1 C 41 %
3923 14-04-2020 06:52:17 0.5 C 41 %
3924 14-04-2020 07:02:17 0.7 C 41 %
3925 14-04-2020 07:12:17 1.1 C 40 %
Sensor: Nr:Datum:Temp:Feuchte:
Aussen-T/F 3926 14-04-2020 07:22:17 1.3 C 39 %
3927 14-04-2020 07:32:17 1.6 C 39 %
3928 14-04-2020 07:42:17 1.8 C 39 %
3929 14-04-2020 07:52:18 2.1 C 37 %
3930 14-04-2020 08:02:17 2.2 C 38 %
3931 14-04-2020 08:12:17 2.3 C 37 %
3932 14-04-2020 08:22:18 1.7 C 39 %
3933 14-04-2020 08:32:17 1.7 C 40 %
3934 14-04-2020 08:42:17 2.2 C 38 %
3935 14-04-2020 08:52:17 2.4 C 38 %
3936 14-04-2020 09:02:18 3 C 37 %
3937 14-04-2020 09:12:18 3.8 C 36 %
3938 14-04-2020 09:22:17 4.7 C 34 %
3939 14-04-2020 09:32:18 5.7 C 32 %
3940 14-04-2020 09:42:18 5.3 C 31 %
3941 14-04-2020 09:52:17 6 C 31 %
3942 14-04-2020 10:02:17 6.6 C 30 %
3943 14-04-2020 10:12:17 5.8 C 30 %
3944 14-04-2020 10:22:17 5.9 C 30 %
3945 14-04-2020 10:32:17 6.7 C 30 %
3946 14-04-2020 10:42:17 7.4 C 26 %
3947 14-04-2020 10:52:18 8.4 C 23 %
3948 14-04-2020 11:02:17 8.2 C 21 %
3949 14-04-2020 11:12:17 8 C 20 %
3950 14-04-2020 11:22:17 7.9 C 20 %
Sensor: Nr:Datum:Temp:Feuchte:
Aussen-T/F 3951 14-04-2020 11:32:17 8.2 C 20 %
3952 14-04-2020 11:42:17 9.1 C 20 %
3953 14-04-2020 11:52:18 8.4 C 20 %
3954 14-04-2020 12:02:17 8.5 C 20 %
3955 14-04-2020 12:12:17 8.6 C 20 %
3956 14-04-2020 12:22:17 8.9 C 20 %
3957 14-04-2020 12:32:17 8.6 C 20 %
3958 14-04-2020 12:42:17 9.8 C 20 %
3959 14-04-2020 12:52:17 10.6 C 20 %
3960 14-04-2020 13:02:18 10.2 C 20 %
3961 14-04-2020 13:12:18 10 C 20 %
3962 14-04-2020 13:22:17 10.4 C 20 %
3963 14-04-2020 13:32:17 10.7 C 20 %
3964 14-04-2020 13:42:17 10 C 20 %
3965 14-04-2020 13:52:18 9.5 C 20 %
3966 14-04-2020 14:02:17 9.8 C 20 %
3967 14-04-2020 14:12:18 10.3 C 20 %
3968 14-04-2020 14:22:18 11.8 C 20 %
3969 14-04-2020 14:32:18 14.5 C 20 %
3970 14-04-2020 14:42:18 17.4 C 20 %
3971 14-04-2020 14:52:17 16.8 C 20 %
3972 14-04-2020 15:02:17 17.6 C 20 %
3973 14-04-2020 15:12:18 21 C 20 %
3974 14-04-2020 15:22:17 14.7 C 20 %
3975 14-04-2020 15:32:17 16.7 C 20 %
Sensor: Nr:Datum:Temp:Feuchte:
Aussen-T/F 3976 14-04-2020 15:42:17 14 C 20 %
3977 14-04-2020 15:52:17 14 C 20 %
3978 14-04-2020 16:02:17 15 C 20 %
3979 14-04-2020 16:12:17 17.2 C 20 %
3980 14-04-2020 16:22:17 17.7 C 20 %
3981 14-04-2020 16:32:18 16.3 C 20 %
3982 14-04-2020 16:42:18 14 C 20 %
3983 14-04-2020 16:52:17 14.5 C 20 %
3984 14-04-2020 17:02:18 12.2 C 20 %
3985 14-04-2020 17:12:18 14.2 C 20 %
3986 14-04-2020 17:22:17 19.2 C 20 %
3987 14-04-2020 17:32:17 16.8 C 20 %
3988 14-04-2020 17:42:18 15.5 C 20 %
3989 14-04-2020 17:52:17 16 C 20 %
3990 14-04-2020 18:02:18 13.4 C 20 %
3991 14-04-2020 18:12:18 12.4 C 20 %
3992 14-04-2020 18:22:17 12.1 C 20 %
3993 14-04-2020 18:32:18 11.9 C 20 %
3994 14-04-2020 18:42:18 11.7 C 20 %
3995 14-04-2020 18:52:17 11.3 C 20 %
3996 14-04-2020 19:02:17 11.2 C 20 %
3997 14-04-2020 19:12:18 11 C 20 %
3998 14-04-2020 19:22:18 10.6 C 20 %
3999 14-04-2020 19:32:18 10.3 C 20 %
4000 14-04-2020 19:42:18 10.1 C 20 %
Sensor: Nr:Datum:Temp:Feuchte:
Aussen-T/F 4001 14-04-2020 19:52:17 9.7 C 20 %
4002 14-04-2020 20:02:17 9.3 C 20 %
4003 14-04-2020 20:12:17 8.9 C 20 %
4004 14-04-2020 20:22:17 7.7 C 20 %
4005 14-04-2020 20:32:17 7 C 23 %
4006 14-04-2020 20:42:18 6.7 C 25 %
4007 14-04-2020 20:52:17 6.8 C 25 %
4008 14-04-2020 21:02:17 6.5 C 25 %
4009 14-04-2020 21:12:17 6.3 C 25 %
4010 14-04-2020 21:22:17 6 C 26 %
4011 14-04-2020 21:32:17 6.1 C 26 %
4012 14-04-2020 21:42:17 5.8 C 27 %
4013 14-04-2020 21:52:17 5.6 C 27 %
4014 14-04-2020 22:02:18 5.6 C 27 %
4015 14-04-2020 22:12:18 5.1 C 29 %
4016 14-04-2020 22:22:17 5.2 C 28 %
4017 14-04-2020 22:32:18 5 C 29 %
4018 14-04-2020 22:42:18 4.7 C 30 %
4019 14-04-2020 22:52:18 4.7 C 30 %
4020 14-04-2020 23:02:18 4.3 C 32 %
4021 14-04-2020 23:12:18 3.6 C 34 %
4022 14-04-2020 23:22:17 3.2 C 35 %
4023 14-04-2020 23:32:17 3 C 35 %
4024 14-04-2020 23:42:17 2.8 C 36 %
4025 14-04-2020 23:52:17 2.6 C 36 %
Sensor: Nr:Datum:Temp:Feuchte:
Aussen-T/F 4026 15-04-2020 00:02:18 2.4 C 37 %
4027 15-04-2020 00:12:18 2.1 C 37 %
4028 15-04-2020 00:22:17 1.7 C 39 %
4029 15-04-2020 00:32:18 1.6 C 39 %
4030 15-04-2020 00:42:18 1.6 C 40 %
4031 15-04-2020 00:52:17 1.6 C 39 %
4032 15-04-2020 01:02:17 1.5 C 40 %
4033 15-04-2020 01:12:17 1.3 C 40 %
4034 15-04-2020 01:22:17 1.2 C 40 %
4035 15-04-2020 01:32:17 1.3 C 40 %
4036 15-04-2020 01:42:17 1.2 C 40 %
4037 15-04-2020 01:52:17 1 C 40 %
4038 15-04-2020 02:02:17 0.8 C 41 %
4039 15-04-2020 02:12:17 0.8 C 42 %
4040 15-04-2020 02:22:17 0.8 C 42 %
4041 15-04-2020 02:32:17 0.7 C 42 %
4042 15-04-2020 02:42:17 0.6 C 42 %
4043 15-04-2020 02:52:17 0.1 C 42 %
4044 15-04-2020 03:02:17 0.2 C 43 %
4045 15-04-2020 03:12:17 0.3 C 43 %
4046 15-04-2020 03:22:17 0.2 C 43 %
4047 15-04-2020 03:32:18 0.5 C 43 %
4048 15-04-2020 03:42:18 0.1 C 43 %
4049 15-04-2020 03:52:18 0 C 43 %
4050 15-04-2020 04:02:18 0.2 C 43 %
Sensor: Nr:Datum:Temp:Feuchte:
Aussen-T/F 4051 15-04-2020 04:12:18 -0.2 C 43 %
4052 15-04-2020 04:22:17 0 C 44 %
4053 15-04-2020 04:32:18 -0.2 C 43 %
4054 15-04-2020 04:42:18 -0.3 C 44 %
4055 15-04-2020 04:52:17 -0.4 C 44 %
4056 15-04-2020 05:02:18 -0.4 C 44 %
4057 15-04-2020 05:12:18 -0.3 C 44 %
4058 15-04-2020 05:22:17 -0.4 C 45 %
4059 15-04-2020 05:32:17 -0.5 C 45 %
4060 15-04-2020 05:42:17 -0.4 C 45 %
4061 15-04-2020 05:52:17 -0.7 C 45 %
4062 15-04-2020 06:02:17 -0.7 C 45 %
4063 15-04-2020 06:12:17 -0.7 C 45 %
4064 15-04-2020 06:22:17 -0.7 C 45 %
4065 15-04-2020 06:32:17 -0.6 C 45 %
4066 15-04-2020 06:42:17 -0.7 C 45 %
4067 15-04-2020 06:52:17 -0.9 C 45 %
4068 15-04-2020 07:02:17 -0.7 C 45 %
4069 15-04-2020 07:12:17 -0.6 C 45 %
4070 15-04-2020 07:22:17 -0.5 C 45 %
4071 15-04-2020 07:32:17 -0.1 C 46 %
4072 15-04-2020 07:42:17 0.1 C 45 %
4073 15-04-2020 07:52:18 0.4 C 45 %
4074 15-04-2020 08:02:17 0.7 C 45 %
4075 15-04-2020 08:12:17 1 C 43 %
Sensor: Nr:Datum:Temp:Feuchte:
Aussen-T/F 4076 15-04-2020 08:22:18 1.4 C 42 %
4077 15-04-2020 08:32:18 1.6 C 41 %
4078 15-04-2020 08:42:18 1.9 C 41 %
4079 15-04-2020 08:52:18 2.4 C 40 %
4080 15-04-2020 09:02:17 2.8 C 40 %
4081 15-04-2020 09:12:17 3 C 38 %
4082 15-04-2020 09:22:18 3.4 C 38 %
4083 15-04-2020 09:32:18 3.5 C 37 %
4084 15-04-2020 09:42:18 4.2 C 36 %
4085 15-04-2020 09:52:17 4.4 C 36 %
4086 15-04-2020 10:02:18 4.9 C 35 %
4087 15-04-2020 10:12:18 5.4 C 35 %
4088 15-04-2020 10:22:18 6.2 C 34 %
4089 15-04-2020 10:32:18 6.9 C 33 %
4090 15-04-2020 10:42:18 7.4 C 31 %
4091 15-04-2020 10:52:18 8.1 C 30 %
4092 15-04-2020 11:02:17 8.5 C 30 %
4093 15-04-2020 11:12:17 9.2 C 29 %
4094 15-04-2020 11:22:18 9.9 C 28 %
4095 15-04-2020 11:32:17 10.4 C 26 %
4096 15-04-2020 11:42:17 11 C 22 %
4097 15-04-2020 11:52:18 11.6 C 20 %
4098 15-04-2020 12:02:17 12.3 C 20 %
4099 15-04-2020 12:12:17 12.2 C 20 %
4100 15-04-2020 12:22:18 13.3 C 20 %
Sensor: Nr:Datum:Temp:Feuchte:
Aussen-T/F 4101 15-04-2020 12:32:18 13.2 C 20 %
4102 15-04-2020 12:42:18 13.3 C 20 %
4103 15-04-2020 12:52:17 13.2 C 20 %
4104 15-04-2020 13:02:17 13.4 C 20 %
4105 15-04-2020 13:12:17 13.5 C 20 %
4106 15-04-2020 13:22:18 13.4 C 20 %
4107 15-04-2020 13:32:18 14.2 C 20 %
4108 15-04-2020 13:42:18 14.4 C 20 %
4109 15-04-2020 13:52:17 14.7 C 20 %
4110 15-04-2020 14:02:17 15.2 C 20 %
4111 15-04-2020 14:12:17 15.5 C 20 %
4112 15-04-2020 14:22:17 16.9 C 20 %
4113 15-04-2020 14:32:17 21.6 C 20 %
4114 15-04-2020 14:42:17 23.9 C 20 %
4115 15-04-2020 14:52:17 25.2 C 20 %
4116 15-04-2020 15:02:18 24.8 C 20 %
4117 15-04-2020 15:12:18 23.5 C 20 %
4118 15-04-2020 15:22:18 24.4 C 20 %
4119 15-04-2020 15:32:18 23.9 C 20 %
4120 15-04-2020 15:42:18 24.5 C 20 %
4121 15-04-2020 15:52:17 24.4 C 20 %
4122 15-04-2020 16:02:18 24.8 C 20 %
4123 15-04-2020 16:12:18 24.6 C 20 %
4124 15-04-2020 16:22:17 23.3 C 20 %
4125 15-04-2020 16:32:18 23.7 C 20 %
Sensor: Nr:Datum:Temp:Feuchte:
Aussen-T/F 4126 15-04-2020 16:42:18 25.4 C 20 %
4127 15-04-2020 16:52:18 25.9 C 20 %
4128 15-04-2020 17:02:17 25.4 C 20 %
4129 15-04-2020 17:12:17 26.8 C 20 %
4130 15-04-2020 17:22:18 24.8 C 20 %
4131 15-04-2020 17:32:17 24 C 20 %
4132 15-04-2020 17:42:17 22.4 C 20 %
4133 15-04-2020 17:52:18 24.4 C 20 %
4134 15-04-2020 18:02:18 20.6 C 20 %
4135 15-04-2020 18:12:18 20.2 C 20 %
4136 15-04-2020 18:22:18 19.7 C 20 %
4137 15-04-2020 18:32:18 19.1 C 20 %
4138 15-04-2020 18:42:18 19.4 C 20 %
4139 15-04-2020 18:52:17 19.4 C 20 %
4140 15-04-2020 19:02:17 18.8 C 20 %
4141 15-04-2020 19:12:17 18.7 C 20 %
4142 15-04-2020 19:22:17 18.2 C 20 %
4143 15-04-2020 19:32:17 18 C 20 %
4144 15-04-2020 19:42:18 17.3 C 20 %
4145 15-04-2020 19:52:17 15.3 C 20 %
4146 15-04-2020 20:02:18 14 C 20 %
4147 15-04-2020 20:12:18 13.6 C 20 %
4148 15-04-2020 20:22:18 13.4 C 20 %
4149 15-04-2020 20:32:17 13.1 C 20 %
4150 15-04-2020 20:42:18 12.7 C 20 %
Sensor: Nr:Datum:Temp:Feuchte:
Aussen-T/F 4151 15-04-2020 20:52:17 12 C 20 %
4152 15-04-2020 21:02:18 12 C 20 %
4153 15-04-2020 21:12:18 11 C 20 %
4154 15-04-2020 21:22:17 11 C 20 %
4155 15-04-2020 21:32:17 10.5 C 20 %
4156 15-04-2020 21:42:17 9.4 C 25 %
4157 15-04-2020 21:52:17 9 C 26 %
4158 15-04-2020 22:02:17 8.9 C 27 %
4159 15-04-2020 22:12:17 8.6 C 28 %
4160 15-04-2020 22:22:17 8.8 C 28 %
4161 15-04-2020 22:32:18 8.1 C 28 %
4162 15-04-2020 22:42:18 7.7 C 29 %
4163 15-04-2020 22:52:17 7.3 C 30 %
4164 15-04-2020 23:02:17 7.1 C 30 %
4165 15-04-2020 23:12:17 7.2 C 30 %
4166 15-04-2020 23:22:17 7 C 30 %
4167 15-04-2020 23:32:17 6.6 C 31 %
4168 15-04-2020 23:42:18 6.4 C 32 %
4169 15-04-2020 23:52:17 6.2 C 32 %
Sensor: Nr:Datum:Temp:Feuchte:
G-T/H 1 18-03-2020 00:09:17 11.7 C 71 %
2 18-03-2020 00:19:17 11.7 C 71 %
3 18-03-2020 00:29:17 11.7 C 71 %
4 18-03-2020 00:39:17 11.8 C 71 %
5 18-03-2020 00:49:17 11.8 C 71 %
6 18-03-2020 00:59:17 11.7 C 71 %
7 18-03-2020 01:09:17 11.8 C 71 %
8 18-03-2020 01:19:17 11.7 C 71 %
9 18-03-2020 01:29:17 11.7 C 71 %
10 18-03-2020 01:39:17 11.7 C 71 %
11 18-03-2020 01:49:17 11.7 C 71 %
12 18-03-2020 01:59:17 11.7 C 70 %
13 18-03-2020 02:09:17 11.7 C 70 %
14 18-03-2020 02:19:17 11.6 C 70 %
15 18-03-2020 02:29:17 11.6 C 70 %
16 18-03-2020 02:39:17 11.7 C 70 %
17 18-03-2020 02:49:18 11.6 C 70 %
18 18-03-2020 02:59:18 11.6 C 70 %
19 18-03-2020 03:09:18 11.6 C 70 %
20 18-03-2020 03:19:17 11.6 C 70 %
21 18-03-2020 03:29:17 11.6 C 70 %
22 18-03-2020 03:39:17 11.6 C 70 %
23 18-03-2020 03:49:17 11.5 C 70 %
24 18-03-2020 03:59:17 11.5 C 70 %
25 18-03-2020 04:09:17 11.5 C 70 %
Sensor: Nr:Datum:Temp:Feuchte:
G-T/H 26 18-03-2020 04:19:18 11.5 C 70 %
27 18-03-2020 04:29:18 11.5 C 70 %
28 18-03-2020 04:39:18 11.5 C 69 %
29 18-03-2020 04:49:18 11.4 C 69 %
30 18-03-2020 04:59:18 11.4 C 69 %
31 18-03-2020 05:09:18 11.4 C 69 %
32 18-03-2020 05:19:18 11.4 C 69 %
33 18-03-2020 05:29:18 11.4 C 69 %
34 18-03-2020 05:39:18 11.3 C 69 %
35 18-03-2020 05:49:18 11.3 C 68 %
36 18-03-2020 05:59:18 11.3 C 68 %
37 18-03-2020 06:09:18 11.3 C 68 %
38 18-03-2020 06:19:17 11.2 C 68 %
39 18-03-2020 06:29:18 11.2 C 68 %
40 18-03-2020 06:39:18 11.2 C 68 %
41 18-03-2020 06:49:17 11.2 C 68 %
42 18-03-2020 06:59:18 11.2 C 68 %
43 18-03-2020 07:09:18 11.2 C 68 %
44 18-03-2020 07:19:17 11.1 C 68 %
45 18-03-2020 07:29:17 11.1 C 68 %
46 18-03-2020 07:39:17 11.1 C 68 %
47 18-03-2020 07:49:18 11.1 C 68 %
48 18-03-2020 07:59:18 11.1 C 68 %
49 18-03-2020 08:09:18 11.1 C 68 %
50 18-03-2020 08:19:18 11.1 C 68 %
Sensor: Nr:Datum:Temp:Feuchte:
G-T/H 51 18-03-2020 08:29:18 11 C 68 %
52 18-03-2020 08:39:17 11 C 68 %
53 18-03-2020 08:49:18 11 C 68 %
54 18-03-2020 08:59:18 11 C 69 %
55 18-03-2020 09:09:17 11 C 69 %
56 18-03-2020 09:19:17 11 C 69 %
57 18-03-2020 09:29:17 11 C 69 %
58 18-03-2020 09:39:17 11 C 69 %
59 18-03-2020 09:49:18 11 C 69 %
60 18-03-2020 09:59:18 11 C 69 %
61 18-03-2020 10:09:18 11 C 69 %
62 18-03-2020 10:19:18 11 C 69 %
63 18-03-2020 10:29:18 11 C 69 %
64 18-03-2020 10:39:18 11 C 70 %
65 18-03-2020 10:49:18 11 C 70 %
66 18-03-2020 10:59:18 11 C 70 %
67 18-03-2020 11:09:18 11 C 70 %
68 18-03-2020 11:19:18 11 C 70 %
69 18-03-2020 11:29:18 11 C 70 %
70 18-03-2020 11:39:18 11 C 70 %
71 18-03-2020 11:49:17 11 C 70 %
72 18-03-2020 11:59:17 11 C 70 %
73 18-03-2020 12:09:18 11 C 70 %
74 18-03-2020 12:19:17 11 C 70 %
75 18-03-2020 12:29:18 11.1 C 70 %
Sensor: Nr:Datum:Temp:Feuchte:
G-T/H 76 18-03-2020 12:39:18 11.1 C 70 %
77 18-03-2020 12:49:17 11.1 C 70 %
78 18-03-2020 12:59:17 11.1 C 70 %
79 18-03-2020 13:09:17 11.1 C 70 %
80 18-03-2020 13:19:17 11.1 C 70 %
81 18-03-2020 13:29:17 11.1 C 71 %
82 18-03-2020 13:39:18 11.2 C 71 %
83 18-03-2020 13:49:17 11.2 C 71 %
84 18-03-2020 13:59:17 11.2 C 71 %
85 18-03-2020 14:09:17 11.2 C 71 %
86 18-03-2020 14:19:17 11.2 C 71 %
87 18-03-2020 14:29:17 11.2 C 71 %
88 18-03-2020 14:39:18 11.3 C 71 %
89 18-03-2020 14:49:17 11.3 C 71 %
90 18-03-2020 14:59:17 11.3 C 71 %
91 18-03-2020 15:09:17 11.3 C 71 %
92 18-03-2020 15:19:18 11.3 C 71 %
93 18-03-2020 15:29:18 11.4 C 71 %
94 18-03-2020 15:39:18 11.4 C 71 %
95 18-03-2020 15:49:17 11.4 C 71 %
96 18-03-2020 15:59:17 11.4 C 71 %
97 18-03-2020 16:09:17 11.4 C 71 %
98 18-03-2020 16:19:17 11.4 C 71 %
99 18-03-2020 16:29:17 11.5 C 71 %
100 18-03-2020 16:39:17 11.5 C 71 %
Sensor: Nr:Datum:Temp:Feuchte:
G-T/H 101 18-03-2020 16:49:18 11.5 C 71 %
102 18-03-2020 16:59:18 11.5 C 71 %
103 18-03-2020 17:09:17 11.5 C 71 %
104 18-03-2020 17:19:17 11.5 C 71 %
105 18-03-2020 17:29:17 11.6 C 71 %
106 18-03-2020 17:39:18 11.6 C 71 %
107 18-03-2020 17:49:17 11.6 C 71 %
108 18-03-2020 17:59:17 11.7 C 71 %
109 18-03-2020 18:09:17 11.6 C 71 %
110 18-03-2020 18:19:17 11.7 C 72 %
111 18-03-2020 18:29:17 11.6 C 72 %
112 18-03-2020 18:39:17 11.7 C 72 %
113 18-03-2020 18:49:17 11.7 C 71 %
114 18-03-2020 18:59:17 11.7 C 71 %
115 18-03-2020 19:09:17 11.7 C 71 %
116 18-03-2020 19:19:18 11.7 C 71 %
117 18-03-2020 19:29:18 11.7 C 71 %
118 18-03-2020 19:39:18 11.7 C 72 %
119 18-03-2020 19:49:18 11.7 C 72 %
120 18-03-2020 19:59:18 11.7 C 72 %
121 18-03-2020 20:09:18 11.7 C 72 %
122 18-03-2020 20:19:17 11.8 C 72 %
123 18-03-2020 20:29:17 11.7 C 72 %
124 18-03-2020 20:39:18 11.7 C 72 %
125 18-03-2020 20:49:17 11.7 C 72 %
Sensor: Nr:Datum:Temp:Feuchte:
G-T/H 126 18-03-2020 20:59:17 11.8 C 72 %
127 18-03-2020 21:09:18 11.8 C 72 %
128 18-03-2020 21:19:17 11.8 C 72 %
129 18-03-2020 21:29:17 11.8 C 72 %
130 18-03-2020 21:39:17 11.8 C 72 %
131 18-03-2020 21:49:17 11.8 C 72 %
132 18-03-2020 21:59:17 11.8 C 72 %
133 18-03-2020 22:09:17 11.8 C 72 %
134 18-03-2020 22:19:17 11.8 C 72 %
135 18-03-2020 22:29:17 11.8 C 72 %
136 18-03-2020 22:39:17 11.8 C 72 %
137 18-03-2020 22:49:17 11.8 C 72 %
138 18-03-2020 22:59:17 11.8 C 72 %
139 18-03-2020 23:09:18 11.8 C 72 %
140 18-03-2020 23:19:17 11.8 C 72 %
141 18-03-2020 23:29:17 11.8 C 72 %
142 18-03-2020 23:39:18 11.8 C 72 %
143 18-03-2020 23:49:18 11.8 C 72 %
144 18-03-2020 23:59:18 11.8 C 72 %
145 19-03-2020 00:09:17 11.8 C 72 %
146 19-03-2020 00:19:18 11.8 C 72 %
147 19-03-2020 00:29:18 11.8 C 72 %
148 19-03-2020 00:39:18 11.9 C 72 %
149 19-03-2020 00:49:17 11.9 C 72 %
150 19-03-2020 00:59:17 11.8 C 72 %
Sensor: Nr:Datum:Temp:Feuchte:
G-T/H 151 19-03-2020 01:09:18 11.8 C 72 %
152 19-03-2020 01:19:17 11.8 C 72 %
153 19-03-2020 01:29:17 11.8 C 72 %
154 19-03-2020 01:39:17 11.8 C 72 %
155 19-03-2020 01:49:17 11.8 C 72 %
156 19-03-2020 01:59:17 11.8 C 72 %
157 19-03-2020 02:09:18 11.8 C 72 %
158 19-03-2020 02:19:17 11.8 C 72 %
159 19-03-2020 02:29:17 11.8 C 72 %
160 19-03-2020 02:39:17 11.8 C 72 %
161 19-03-2020 02:49:18 11.8 C 72 %
162 19-03-2020 02:59:18 11.8 C 72 %
163 19-03-2020 03:09:18 11.8 C 72 %
164 19-03-2020 03:19:18 11.8 C 72 %
165 19-03-2020 03:29:18 11.8 C 72 %
166 19-03-2020 03:39:17 11.8 C 72 %
167 19-03-2020 03:49:18 11.8 C 72 %
168 19-03-2020 03:59:18 11.8 C 72 %
169 19-03-2020 04:09:18 11.8 C 71 %
170 19-03-2020 04:19:17 11.8 C 71 %
171 19-03-2020 04:29:17 11.8 C 71 %
172 19-03-2020 04:39:17 11.8 C 71 %
173 19-03-2020 04:49:18 11.8 C 71 %
174 19-03-2020 04:59:18 11.8 C 71 %
175 19-03-2020 05:09:18 11.8 C 71 %
Sensor: Nr:Datum:Temp:Feuchte:
G-T/H 176 19-03-2020 05:19:18 11.8 C 71 %
177 19-03-2020 05:29:18 11.8 C 71 %
178 19-03-2020 05:39:18 11.8 C 71 %
179 19-03-2020 05:49:17 11.8 C 71 %
180 19-03-2020 05:59:18 11.8 C 71 %
181 19-03-2020 06:09:18 11.8 C 71 %
182 19-03-2020 06:19:17 11.8 C 71 %
183 19-03-2020 06:29:17 11.8 C 71 %
184 19-03-2020 06:39:17 11.8 C 71 %
185 19-03-2020 06:49:17 11.8 C 71 %
186 19-03-2020 06:59:17 11.8 C 71 %
187 19-03-2020 07:09:17 11.8 C 71 %
188 19-03-2020 07:19:17 11.8 C 71 %
189 19-03-2020 07:29:17 11.8 C 71 %
190 19-03-2020 07:39:18 11.8 C 71 %
191 19-03-2020 07:49:18 11.8 C 71 %
192 19-03-2020 07:59:18 11.8 C 71 %
193 19-03-2020 08:09:18 11.8 C 71 %
194 19-03-2020 08:19:17 11.8 C 71 %
195 19-03-2020 08:29:17 11.8 C 71 %
196 19-03-2020 08:39:17 11.8 C 71 %
197 19-03-2020 08:49:18 11.8 C 71 %
198 19-03-2020 08:59:18 11.8 C 71 %
199 19-03-2020 09:09:17 11.8 C 72 %
200 19-03-2020 09:19:17 11.8 C 72 %
Sensor: Nr:Datum:Temp:Feuchte:
G-T/H 201 19-03-2020 09:29:17 11.8 C 72 %
202 19-03-2020 09:39:18 11.8 C 72 %
203 19-03-2020 09:49:17 11.8 C 72 %
204 19-03-2020 09:59:17 11.8 C 72 %
205 19-03-2020 10:09:18 11.8 C 72 %
206 19-03-2020 10:19:18 11.8 C 72 %
207 19-03-2020 10:29:18 11.8 C 72 %
208 19-03-2020 10:39:17 11.8 C 72 %
209 19-03-2020 10:49:17 11.8 C 72 %
210 19-03-2020 10:59:17 11.8 C 72 %
211 19-03-2020 11:09:17 11.8 C 72 %
212 19-03-2020 11:19:17 11.9 C 72 %
213 19-03-2020 11:29:17 11.9 C 72 %
214 19-03-2020 11:39:17 11.9 C 72 %
215 19-03-2020 11:49:17 11.9 C 72 %
216 19-03-2020 11:59:17 11.9 C 72 %
217 19-03-2020 12:09:17 11.9 C 72 %
218 19-03-2020 12:19:17 11.9 C 72 %
219 19-03-2020 12:29:17 11.9 C 72 %
220 19-03-2020 12:39:18 11.9 C 72 %
221 19-03-2020 12:49:17 11.9 C 72 %
222 19-03-2020 12:59:17 11.9 C 72 %
223 19-03-2020 13:09:18 12 C 71 %
224 19-03-2020 13:19:18 12 C 71 %
225 19-03-2020 13:29:18 12 C 71 %
Sensor: Nr:Datum:Temp:Feuchte:
G-T/H 226 19-03-2020 13:39:18 12 C 71 %
227 19-03-2020 13:49:17 12 C 71 %
228 19-03-2020 13:59:17 12.1 C 71 %
229 19-03-2020 14:09:17 12.1 C 71 %
230 19-03-2020 14:19:17 12.1 C 71 %
231 19-03-2020 14:29:17 12.2 C 71 %
232 19-03-2020 14:39:17 12.6 C 69 %
233 19-03-2020 14:49:17 12.8 C 67 %
234 19-03-2020 14:59:17 13 C 64 %
235 19-03-2020 15:09:18 13.2 C 63 %
236 19-03-2020 15:19:18 13.2 C 62 %
237 19-03-2020 15:29:18 13.3 C 61 %
238 19-03-2020 15:39:18 13.4 C 61 %
239 19-03-2020 15:49:17 13.4 C 60 %
240 19-03-2020 15:59:18 13.5 C 60 %
241 19-03-2020 16:09:18 13.5 C 60 %
242 19-03-2020 16:20:17 13.6 C 59 %
243 19-03-2020 16:29:17 13.7 C 58 %
244 19-03-2020 16:39:17 13.8 C 57 %
245 19-03-2020 16:49:17 13.8 C 57 %
246 19-03-2020 16:59:17 13.9 C 56 %
247 19-03-2020 17:09:18 13.8 C 56 %
248 19-03-2020 17:19:18 13.8 C 56 %
249 19-03-2020 17:29:18 13.8 C 56 %
250 19-03-2020 17:39:18 13.8 C 56 %
Sensor: Nr:Datum:Temp:Feuchte:
G-T/H 251 19-03-2020 17:49:18 13.8 C 56 %
252 19-03-2020 17:59:18 13.9 C 57 %
253 19-03-2020 18:09:18 13.9 C 57 %
254 19-03-2020 18:20:17 13.9 C 58 %
255 19-03-2020 18:30:17 13.8 C 58 %
256 19-03-2020 18:40:17 13.7 C 59 %
257 19-03-2020 18:50:17 13.6 C 59 %
258 19-03-2020 18:59:18 13.5 C 60 %
259 19-03-2020 19:09:18 13.4 C 60 %
260 19-03-2020 19:20:17 13.2 C 60 %
261 19-03-2020 19:30:17 13.1 C 60 %
262 19-03-2020 19:40:17 12.9 C 61 %
263 19-03-2020 19:50:17 12.8 C 61 %
264 19-03-2020 19:59:17 12.8 C 61 %
265 19-03-2020 20:09:17 12.7 C 61 %
266 19-03-2020 20:29:17 12.7 C 61 %
267 19-03-2020 20:29:17 12.7 C 62 %
268 19-03-2020 20:39:17 12.7 C 62 %
269 19-03-2020 20:49:17 12.7 C 62 %
270 19-03-2020 20:59:17 12.7 C 62 %
271 19-03-2020 21:09:18 12.7 C 63 %
272 19-03-2020 21:20:17 12.8 C 63 %
273 19-03-2020 21:30:17 12.8 C 63 %
274 19-03-2020 21:40:17 12.8 C 63 %
275 19-03-2020 21:50:17 12.8 C 63 %
Sensor: Nr:Datum:Temp:Feuchte:
G-T/H 276 19-03-2020 21:59:18 12.8 C 64 %
277 19-03-2020 22:09:18 12.8 C 64 %
278 19-03-2020 22:19:18 12.8 C 64 %
279 19-03-2020 22:29:18 12.8 C 64 %
280 19-03-2020 22:39:18 12.8 C 64 %
281 19-03-2020 22:49:18 12.8 C 64 %
282 19-03-2020 22:59:18 12.8 C 65 %
283 19-03-2020 23:09:18 12.8 C 65 %
284 19-03-2020 23:20:17 12.8 C 65 %
285 19-03-2020 23:30:17 12.8 C 65 %
286 19-03-2020 23:40:17 12.8 C 65 %
287 19-03-2020 23:50:17 12.8 C 65 %
288 19-03-2020 23:59:18 12.8 C 65 %
289 20-03-2020 00:09:18 12.8 C 66 %
290 20-03-2020 00:19:18 12.8 C 66 %
291 20-03-2020 00:29:18 12.8 C 66 %
292 20-03-2020 00:39:18 12.8 C 66 %
293 20-03-2020 00:59:17 12.8 C 66 %
294 20-03-2020 01:00:18 12.8 C 66 %
295 20-03-2020 01:10:18 12.8 C 66 %
296 20-03-2020 01:20:17 12.8 C 66 %
297 20-03-2020 01:30:18 12.8 C 66 %
298 20-03-2020 01:40:18 12.8 C 66 %
299 20-03-2020 01:50:17 12.8 C 66 %
300 20-03-2020 02:00:18 12.8 C 66 %
Sensor: Nr:Datum:Temp:Feuchte:
G-T/H 301 20-03-2020 02:10:18 12.8 C 66 %
302 20-03-2020 02:20:17 12.8 C 67 %
303 20-03-2020 02:30:17 12.8 C 67 %
304 20-03-2020 02:40:17 12.7 C 67 %
305 20-03-2020 02:50:17 12.8 C 67 %
306 20-03-2020 03:00:17 12.7 C 67 %
307 20-03-2020 03:10:17 12.7 C 67 %
308 20-03-2020 03:20:17 12.7 C 67 %
309 20-03-2020 03:30:18 12.7 C 67 %
310 20-03-2020 03:40:18 12.7 C 67 %
311 20-03-2020 03:50:17 12.7 C 67 %
312 20-03-2020 04:00:18 12.7 C 67 %
313 20-03-2020 04:10:18 12.7 C 67 %
314 20-03-2020 04:20:18 12.7 C 67 %
315 20-03-2020 04:30:18 12.7 C 67 %
316 20-03-2020 04:40:18 12.7 C 67 %
317 20-03-2020 04:50:17 12.6 C 67 %
318 20-03-2020 05:00:18 12.6 C 67 %
319 20-03-2020 05:10:18 12.7 C 67 %
320 20-03-2020 05:20:17 12.6 C 67 %
321 20-03-2020 05:30:17 12.6 C 67 %
322 20-03-2020 05:40:17 12.6 C 67 %
323 20-03-2020 05:50:17 12.5 C 67 %
324 20-03-2020 06:00:17 12.5 C 67 %
325 20-03-2020 06:10:17 12.5 C 67 %
Sensor: Nr:Datum:Temp:Feuchte:
G-T/H 326 20-03-2020 06:20:17 12.5 C 67 %
327 20-03-2020 06:30:17 12.5 C 67 %
328 20-03-2020 06:40:17 12.5 C 67 %
329 20-03-2020 06:50:17 12.5 C 67 %
330 20-03-2020 07:00:17 12.5 C 67 %
331 20-03-2020 07:10:17 12.5 C 67 %
332 20-03-2020 07:20:17 12.4 C 67 %
333 20-03-2020 07:30:17 12.5 C 67 %
334 20-03-2020 07:40:17 12.4 C 67 %
335 20-03-2020 07:50:18 12.4 C 67 %
336 20-03-2020 08:00:17 12.4 C 67 %
337 20-03-2020 08:10:17 12.4 C 67 %
338 20-03-2020 08:20:17 12.4 C 67 %
339 20-03-2020 08:30:17 12.4 C 67 %
340 20-03-2020 08:40:17 12.4 C 67 %
341 20-03-2020 08:50:17 12.4 C 67 %
342 20-03-2020 09:00:17 12.4 C 67 %
343 20-03-2020 09:10:17 12.3 C 67 %
344 20-03-2020 09:20:17 12.4 C 67 %
345 20-03-2020 09:30:17 12.4 C 67 %
346 20-03-2020 09:40:17 12.4 C 68 %
347 20-03-2020 09:50:17 12.4 C 68 %
348 20-03-2020 10:00:18 12.3 C 68 %
349 20-03-2020 10:10:18 12.3 C 68 %
350 20-03-2020 10:20:18 12.3 C 68 %
Sensor: Nr:Datum:Temp:Feuchte:
G-T/H 351 20-03-2020 10:30:18 12.3 C 68 %
352 20-03-2020 10:40:18 12.3 C 68 %
353 20-03-2020 10:50:18 12.3 C 68 %
354 20-03-2020 11:00:17 12.3 C 68 %
355 20-03-2020 11:10:18 12.3 C 68 %
356 20-03-2020 11:20:18 12.3 C 68 %
357 20-03-2020 11:30:18 12.3 C 68 %
358 20-03-2020 11:40:18 12.3 C 68 %
359 20-03-2020 11:50:18 12.3 C 68 %
360 20-03-2020 12:00:17 12.3 C 68 %
361 20-03-2020 12:10:17 12.3 C 68 %
362 20-03-2020 12:20:17 12.3 C 68 %
363 20-03-2020 12:30:18 12.3 C 68 %
364 20-03-2020 12:40:18 12.3 C 68 %
365 20-03-2020 12:50:18 12.3 C 68 %
366 20-03-2020 13:00:18 12.3 C 68 %
367 20-03-2020 13:10:18 12.4 C 68 %
368 20-03-2020 13:20:18 12.4 C 69 %
369 20-03-2020 13:30:18 12.4 C 69 %
370 20-03-2020 13:40:18 12.4 C 69 %
371 20-03-2020 13:50:17 12.4 C 69 %
372 20-03-2020 14:00:17 12.4 C 69 %
373 20-03-2020 14:10:17 12.4 C 69 %
374 20-03-2020 14:20:17 12.4 C 69 %
375 20-03-2020 14:30:18 12.4 C 69 %
Sensor: Nr:Datum:Temp:Feuchte:
G-T/H 376 20-03-2020 14:40:18 12.4 C 69 %
377 20-03-2020 14:50:18 12.4 C 69 %
378 20-03-2020 15:00:17 12.4 C 69 %
379 20-03-2020 15:10:17 12.4 C 69 %
380 20-03-2020 15:20:17 12.5 C 69 %
381 20-03-2020 15:30:18 12.5 C 69 %
382 20-03-2020 15:40:18 12.5 C 69 %
383 20-03-2020 15:50:18 12.4 C 69 %
384 20-03-2020 16:00:17 12.5 C 69 %
385 20-03-2020 16:10:17 12.5 C 69 %
386 20-03-2020 16:20:17 12.5 C 69 %
387 20-03-2020 16:30:18 12.5 C 69 %
388 20-03-2020 16:40:18 12.5 C 69 %
389 20-03-2020 16:50:18 12.5 C 69 %
390 20-03-2020 17:00:18 12.6 C 69 %
391 20-03-2020 17:10:18 12.7 C 69 %
392 20-03-2020 17:20:18 12.8 C 69 %
393 20-03-2020 17:30:18 12.8 C 68 %
394 20-03-2020 17:40:18 12.7 C 68 %
395 20-03-2020 17:50:17 12.7 C 68 %
396 20-03-2020 18:00:17 12.6 C 68 %
397 20-03-2020 18:10:17 12.7 C 68 %
398 20-03-2020 18:20:17 12.6 C 68 %
399 20-03-2020 18:30:17 12.6 C 68 %
400 20-03-2020 18:40:17 12.6 C 68 %
Sensor: Nr:Datum:Temp:Feuchte:
G-T/H 401 20-03-2020 18:50:18 12.6 C 68 %
402 20-03-2020 19:00:17 12.6 C 68 %
403 20-03-2020 19:10:17 12.6 C 68 %
404 20-03-2020 19:20:17 12.6 C 68 %
405 20-03-2020 19:30:17 12.6 C 68 %
406 20-03-2020 19:40:17 12.6 C 68 %
407 20-03-2020 19:50:17 12.6 C 68 %
408 20-03-2020 20:00:17 12.6 C 68 %
409 20-03-2020 20:10:17 12.6 C 68 %
410 20-03-2020 20:20:17 12.6 C 68 %
411 20-03-2020 20:30:17 12.6 C 68 %
412 20-03-2020 20:40:17 12.6 C 68 %
413 20-03-2020 20:50:18 12.6 C 68 %
414 20-03-2020 21:00:18 12.6 C 68 %
415 20-03-2020 21:10:18 12.6 C 68 %
416 20-03-2020 21:20:17 12.6 C 68 %
417 20-03-2020 21:30:17 12.6 C 68 %
418 20-03-2020 21:40:17 12.5 C 68 %
419 20-03-2020 21:50:17 12.5 C 68 %
420 20-03-2020 22:00:17 12.5 C 67 %
421 20-03-2020 22:10:17 12.5 C 67 %
422 20-03-2020 22:20:18 12.5 C 67 %
423 20-03-2020 22:30:17 12.5 C 67 %
424 20-03-2020 22:40:18 12.5 C 67 %
425 20-03-2020 22:50:17 12.5 C 67 %
Sensor: Nr:Datum:Temp:Feuchte:
G-T/H 426 20-03-2020 23:00:18 12.5 C 67 %
427 20-03-2020 23:10:18 12.5 C 67 %
428 20-03-2020 23:20:17 12.5 C 67 %
429 20-03-2020 23:30:18 12.5 C 67 %
430 20-03-2020 23:40:18 12.5 C 67 %
431 20-03-2020 23:50:18 12.4 C 66 %
432 21-03-2020 00:00:17 12.5 C 66 %
433 21-03-2020 00:10:17 12.4 C 66 %
434 21-03-2020 00:20:17 12.5 C 66 %
435 21-03-2020 00:30:17 12.4 C 66 %
436 21-03-2020 00:40:17 12.4 C 66 %
437 21-03-2020 00:50:17 12.4 C 66 %
438 21-03-2020 01:00:17 12.4 C 66 %
439 21-03-2020 01:10:17 12.4 C 66 %
440 21-03-2020 01:20:17 12.4 C 66 %
441 21-03-2020 01:30:18 12.4 C 66 %
442 21-03-2020 01:40:18 12.4 C 66 %
443 21-03-2020 01:50:17 12.4 C 66 %
444 21-03-2020 02:00:18 12.3 C 66 %
445 21-03-2020 02:10:18 12.3 C 66 %
446 21-03-2020 02:20:17 12.3 C 66 %
447 21-03-2020 02:30:18 12.3 C 66 %
448 21-03-2020 02:40:18 12.3 C 66 %
449 21-03-2020 02:50:18 12.3 C 66 %
450 21-03-2020 03:00:17 12.3 C 66 %
Sensor: Nr:Datum:Temp:Feuchte:
G-T/H 451 21-03-2020 03:10:17 12.3 C 66 %
452 21-03-2020 03:20:17 12.2 C 66 %
453 21-03-2020 03:30:18 12.2 C 66 %
454 21-03-2020 03:40:18 12.2 C 66 %
455 21-03-2020 03:50:17 12.2 C 66 %
456 21-03-2020 04:00:18 12.2 C 66 %
457 21-03-2020 04:10:18 12.2 C 66 %
458 21-03-2020 04:20:17 12.2 C 66 %
459 21-03-2020 04:30:18 12.1 C 66 %
460 21-03-2020 04:40:18 12.1 C 66 %
461 21-03-2020 04:50:18 12.1 C 66 %
462 21-03-2020 05:00:18 12.1 C 65 %
463 21-03-2020 05:10:18 12 C 65 %
464 21-03-2020 05:20:18 12 C 65 %
465 21-03-2020 05:30:18 12 C 65 %
466 21-03-2020 05:40:18 12 C 65 %
467 21-03-2020 05:50:17 11.9 C 66 %
468 21-03-2020 06:00:18 11.9 C 66 %
469 21-03-2020 06:10:18 12 C 65 %
470 21-03-2020 06:20:17 11.9 C 66 %
471 21-03-2020 06:30:18 11.9 C 66 %
472 21-03-2020 06:40:18 11.9 C 67 %
473 21-03-2020 06:50:17 11.9 C 67 %
474 21-03-2020 07:00:17 11.9 C 67 %
475 21-03-2020 07:10:18 11.9 C 67 %
Sensor: Nr:Datum:Temp:Feuchte:
G-T/H 476 21-03-2020 07:20:18 11.8 C 67 %
477 21-03-2020 07:30:18 11.8 C 66 %
478 21-03-2020 07:40:18 11.8 C 66 %
479 21-03-2020 07:50:17 11.8 C 66 %
480 21-03-2020 08:00:18 11.7 C 66 %
481 21-03-2020 08:10:18 11.7 C 66 %
482 21-03-2020 08:20:17 11.7 C 67 %
483 21-03-2020 08:30:17 11.7 C 67 %
484 21-03-2020 08:40:17 11.7 C 67 %
485 21-03-2020 08:50:18 11.7 C 67 %
486 21-03-2020 09:00:18 11.7 C 67 %
487 21-03-2020 09:10:18 11.7 C 67 %
488 21-03-2020 09:20:18 11.7 C 67 %
489